<?xml version="1.0" encoding="UTF-8" standalone="no" ?>
<gpx xmlns="http://www.topografix.com/GPX/1/1" xmlns:xsi="http://www.w3.org/2001/XMLSchema-instance" xsi:schemaLocation="http://www.topografix.com/GPX/1/1 http://www.topografix.com/GPX/1/1/gpx.xsd" version="1.1" creator="VisuGPX - https://www.visugpx.com">
  <metadata>
    <name>Altitoy B J2</name>
    <desc><![CDATA[Parcours B du Dimanche 26 Février de l'Altitoy.]]></desc>
  </metadata>
  <trk>
    <name><![CDATA[Altitoy B J2_1]]></name>
    <trkseg>
      <trkpt lat="42.88115" lon="-0.06521">
        <ele>1786</ele>
        <time>2017-02-26T07:26:16Z</time>
      </trkpt>
      <trkpt lat="42.88111" lon="-0.06523">
        <ele>1787</ele>
        <time>2017-02-26T07:26:21Z</time>
      </trkpt>
      <trkpt lat="42.88109" lon="-0.06525">
        <ele>1787</ele>
        <time>2017-02-26T07:26:23Z</time>
      </trkpt>
      <trkpt lat="42.88107" lon="-0.06526">
        <ele>1787</ele>
        <time>2017-02-26T07:26:25Z</time>
      </trkpt>
      <trkpt lat="42.88104" lon="-0.06527">
        <ele>1788</ele>
        <time>2017-02-26T07:26:27Z</time>
      </trkpt>
      <trkpt lat="42.88102" lon="-0.06527">
        <ele>1788</ele>
        <time>2017-02-26T07:26:29Z</time>
      </trkpt>
      <trkpt lat="42.881" lon="-0.06528">
        <ele>1787</ele>
        <time>2017-02-26T07:26:31Z</time>
      </trkpt>
      <trkpt lat="42.88087" lon="-0.06536">
        <ele>1789</ele>
        <time>2017-02-26T07:26:43Z</time>
      </trkpt>
      <trkpt lat="42.88082" lon="-0.06537">
        <ele>1789</ele>
        <time>2017-02-26T07:26:47Z</time>
      </trkpt>
      <trkpt lat="42.88076" lon="-0.0654">
        <ele>1789</ele>
        <time>2017-02-26T07:26:53Z</time>
      </trkpt>
      <trkpt lat="42.88074" lon="-0.06541">
        <ele>1789</ele>
        <time>2017-02-26T07:26:55Z</time>
      </trkpt>
      <trkpt lat="42.88069" lon="-0.06543">
        <ele>1789</ele>
        <time>2017-02-26T07:26:59Z</time>
      </trkpt>
      <trkpt lat="42.88066" lon="-0.06543">
        <ele>1789</ele>
        <time>2017-02-26T07:27:01Z</time>
      </trkpt>
      <trkpt lat="42.88061" lon="-0.06544">
        <ele>1789</ele>
        <time>2017-02-26T07:27:05Z</time>
      </trkpt>
      <trkpt lat="42.88056" lon="-0.06545">
        <ele>1789</ele>
        <time>2017-02-26T07:27:09Z</time>
      </trkpt>
      <trkpt lat="42.88049" lon="-0.06546">
        <ele>1789</ele>
        <time>2017-02-26T07:27:15Z</time>
      </trkpt>
      <trkpt lat="42.88047" lon="-0.06546">
        <ele>1789</ele>
        <time>2017-02-26T07:27:17Z</time>
      </trkpt>
      <trkpt lat="42.88044" lon="-0.06547">
        <ele>1789</ele>
        <time>2017-02-26T07:27:19Z</time>
      </trkpt>
      <trkpt lat="42.8804" lon="-0.06547">
        <ele>1789</ele>
        <time>2017-02-26T07:27:23Z</time>
      </trkpt>
      <trkpt lat="42.88006" lon="-0.06544">
        <ele>1790</ele>
        <time>2017-02-26T07:27:51Z</time>
      </trkpt>
      <trkpt lat="42.87994" lon="-0.06541">
        <ele>1790</ele>
        <time>2017-02-26T07:28:03Z</time>
      </trkpt>
      <trkpt lat="42.87992" lon="-0.06541">
        <ele>1791</ele>
        <time>2017-02-26T07:28:05Z</time>
      </trkpt>
      <trkpt lat="42.87945" lon="-0.06531">
        <ele>1800</ele>
        <time>2017-02-26T07:29:00Z</time>
      </trkpt>
      <trkpt lat="42.8793" lon="-0.0653">
        <ele>1803</ele>
        <time>2017-02-26T07:29:20Z</time>
      </trkpt>
      <trkpt lat="42.87928" lon="-0.06529">
        <ele>1804</ele>
        <time>2017-02-26T07:29:23Z</time>
      </trkpt>
      <trkpt lat="42.87926" lon="-0.06529">
        <ele>1804</ele>
        <time>2017-02-26T07:29:26Z</time>
      </trkpt>
      <trkpt lat="42.87917" lon="-0.06527">
        <ele>1806</ele>
        <time>2017-02-26T07:29:37Z</time>
      </trkpt>
      <trkpt lat="42.87906" lon="-0.06526">
        <ele>1809</ele>
        <time>2017-02-26T07:29:51Z</time>
      </trkpt>
      <trkpt lat="42.87904" lon="-0.06526">
        <ele>1809</ele>
        <time>2017-02-26T07:29:54Z</time>
      </trkpt>
      <trkpt lat="42.87901" lon="-0.06525">
        <ele>1810</ele>
        <time>2017-02-26T07:29:57Z</time>
      </trkpt>
      <trkpt lat="42.87899" lon="-0.06526">
        <ele>1811</ele>
        <time>2017-02-26T07:30:01Z</time>
      </trkpt>
      <trkpt lat="42.87894" lon="-0.06526">
        <ele>1811</ele>
        <time>2017-02-26T07:30:07Z</time>
      </trkpt>
      <trkpt lat="42.87891" lon="-0.06526">
        <ele>1812</ele>
        <time>2017-02-26T07:30:11Z</time>
      </trkpt>
      <trkpt lat="42.87889" lon="-0.06524">
        <ele>1813</ele>
        <time>2017-02-26T07:30:21Z</time>
      </trkpt>
      <trkpt lat="42.87886" lon="-0.06524">
        <ele>1814</ele>
        <time>2017-02-26T07:30:24Z</time>
      </trkpt>
      <trkpt lat="42.87884" lon="-0.06524">
        <ele>1814</ele>
        <time>2017-02-26T07:30:26Z</time>
      </trkpt>
      <trkpt lat="42.87882" lon="-0.06524">
        <ele>1815</ele>
        <time>2017-02-26T07:30:29Z</time>
      </trkpt>
      <trkpt lat="42.87879" lon="-0.06523">
        <ele>1815</ele>
        <time>2017-02-26T07:30:32Z</time>
      </trkpt>
      <trkpt lat="42.87878" lon="-0.06523">
        <ele>1816</ele>
        <time>2017-02-26T07:30:34Z</time>
      </trkpt>
      <trkpt lat="42.87875" lon="-0.06523">
        <ele>1816</ele>
        <time>2017-02-26T07:30:37Z</time>
      </trkpt>
      <trkpt lat="42.87869" lon="-0.06523">
        <ele>1818</ele>
        <time>2017-02-26T07:30:44Z</time>
      </trkpt>
      <trkpt lat="42.87866" lon="-0.06523">
        <ele>1819</ele>
        <time>2017-02-26T07:30:47Z</time>
      </trkpt>
      <trkpt lat="42.87863" lon="-0.06525">
        <ele>1820</ele>
        <time>2017-02-26T07:30:52Z</time>
      </trkpt>
      <trkpt lat="42.8786" lon="-0.06526">
        <ele>1821</ele>
        <time>2017-02-26T07:30:55Z</time>
      </trkpt>
      <trkpt lat="42.87858" lon="-0.06526">
        <ele>1821</ele>
        <time>2017-02-26T07:30:58Z</time>
      </trkpt>
      <trkpt lat="42.87856" lon="-0.06526">
        <ele>1821</ele>
        <time>2017-02-26T07:31:01Z</time>
      </trkpt>
      <trkpt lat="42.87854" lon="-0.06526">
        <ele>1823</ele>
        <time>2017-02-26T07:31:04Z</time>
      </trkpt>
      <trkpt lat="42.8785" lon="-0.06525">
        <ele>1824</ele>
        <time>2017-02-26T07:31:08Z</time>
      </trkpt>
      <trkpt lat="42.87848" lon="-0.06527">
        <ele>1825</ele>
        <time>2017-02-26T07:31:12Z</time>
      </trkpt>
      <trkpt lat="42.87846" lon="-0.06528">
        <ele>1825</ele>
        <time>2017-02-26T07:31:14Z</time>
      </trkpt>
      <trkpt lat="42.87843" lon="-0.0653">
        <ele>1826</ele>
        <time>2017-02-26T07:31:21Z</time>
      </trkpt>
      <trkpt lat="42.87839" lon="-0.06534">
        <ele>1828</ele>
        <time>2017-02-26T07:31:27Z</time>
      </trkpt>
      <trkpt lat="42.87835" lon="-0.06537">
        <ele>1829</ele>
        <time>2017-02-26T07:31:32Z</time>
      </trkpt>
      <trkpt lat="42.87834" lon="-0.06538">
        <ele>1829</ele>
        <time>2017-02-26T07:31:34Z</time>
      </trkpt>
      <trkpt lat="42.87832" lon="-0.06541">
        <ele>1829</ele>
        <time>2017-02-26T07:31:38Z</time>
      </trkpt>
      <trkpt lat="42.87831" lon="-0.06546">
        <ele>1830</ele>
        <time>2017-02-26T07:31:47Z</time>
      </trkpt>
      <trkpt lat="42.87829" lon="-0.06551">
        <ele>1832</ele>
        <time>2017-02-26T07:31:55Z</time>
      </trkpt>
      <trkpt lat="42.87827" lon="-0.06552">
        <ele>1833</ele>
        <time>2017-02-26T07:31:57Z</time>
      </trkpt>
      <trkpt lat="42.87823" lon="-0.06562">
        <ele>1835</ele>
        <time>2017-02-26T07:32:09Z</time>
      </trkpt>
      <trkpt lat="42.87823" lon="-0.06563">
        <ele>1835</ele>
        <time>2017-02-26T07:32:10Z</time>
      </trkpt>
      <trkpt lat="42.87823" lon="-0.06564">
        <ele>1835</ele>
        <time>2017-02-26T07:32:11Z</time>
      </trkpt>
      <trkpt lat="42.87822" lon="-0.06566">
        <ele>1836</ele>
        <time>2017-02-26T07:32:14Z</time>
      </trkpt>
      <trkpt lat="42.87822" lon="-0.06567">
        <ele>1836</ele>
        <time>2017-02-26T07:32:15Z</time>
      </trkpt>
      <trkpt lat="42.87822" lon="-0.0657">
        <ele>1837</ele>
        <time>2017-02-26T07:32:18Z</time>
      </trkpt>
      <trkpt lat="42.87822" lon="-0.0657">
        <ele>1837</ele>
        <time>2017-02-26T07:32:19Z</time>
      </trkpt>
      <trkpt lat="42.87821" lon="-0.06571">
        <ele>1837</ele>
        <time>2017-02-26T07:32:20Z</time>
      </trkpt>
      <trkpt lat="42.87819" lon="-0.06575">
        <ele>1838</ele>
        <time>2017-02-26T07:32:24Z</time>
      </trkpt>
      <trkpt lat="42.87819" lon="-0.06578">
        <ele>1838</ele>
        <time>2017-02-26T07:32:27Z</time>
      </trkpt>
      <trkpt lat="42.87819" lon="-0.06581">
        <ele>1839</ele>
        <time>2017-02-26T07:32:31Z</time>
      </trkpt>
      <trkpt lat="42.8782" lon="-0.06584">
        <ele>1840</ele>
        <time>2017-02-26T07:32:34Z</time>
      </trkpt>
      <trkpt lat="42.87819" lon="-0.06587">
        <ele>1841</ele>
        <time>2017-02-26T07:32:37Z</time>
      </trkpt>
      <trkpt lat="42.87819" lon="-0.0659">
        <ele>1841</ele>
        <time>2017-02-26T07:32:41Z</time>
      </trkpt>
      <trkpt lat="42.8782" lon="-0.06593">
        <ele>1842</ele>
        <time>2017-02-26T07:32:44Z</time>
      </trkpt>
      <trkpt lat="42.87822" lon="-0.06601">
        <ele>1845</ele>
        <time>2017-02-26T07:32:54Z</time>
      </trkpt>
      <trkpt lat="42.87821" lon="-0.06604">
        <ele>1845</ele>
        <time>2017-02-26T07:32:57Z</time>
      </trkpt>
      <trkpt lat="42.87821" lon="-0.06611">
        <ele>1846</ele>
        <time>2017-02-26T07:33:02Z</time>
      </trkpt>
      <trkpt lat="42.87822" lon="-0.06613">
        <ele>1846</ele>
        <time>2017-02-26T07:33:04Z</time>
      </trkpt>
      <trkpt lat="42.87825" lon="-0.06617">
        <ele>1846</ele>
        <time>2017-02-26T07:33:09Z</time>
      </trkpt>
      <trkpt lat="42.87826" lon="-0.06621">
        <ele>1847</ele>
        <time>2017-02-26T07:33:13Z</time>
      </trkpt>
      <trkpt lat="42.87826" lon="-0.06621">
        <ele>1847</ele>
        <time>2017-02-26T07:33:14Z</time>
      </trkpt>
      <trkpt lat="42.87826" lon="-0.06622">
        <ele>1847</ele>
        <time>2017-02-26T07:33:16Z</time>
      </trkpt>
      <trkpt lat="42.87826" lon="-0.06622">
        <ele>1847</ele>
        <time>2017-02-26T07:33:17Z</time>
      </trkpt>
      <trkpt lat="42.87826" lon="-0.06623">
        <ele>1847</ele>
        <time>2017-02-26T07:33:18Z</time>
      </trkpt>
      <trkpt lat="42.87827" lon="-0.06623">
        <ele>1847</ele>
        <time>2017-02-26T07:33:19Z</time>
      </trkpt>
      <trkpt lat="42.87827" lon="-0.06623">
        <ele>1847</ele>
        <time>2017-02-26T07:33:20Z</time>
      </trkpt>
      <trkpt lat="42.87827" lon="-0.06624">
        <ele>1847</ele>
        <time>2017-02-26T07:33:22Z</time>
      </trkpt>
      <trkpt lat="42.87827" lon="-0.06625">
        <ele>1847</ele>
        <time>2017-02-26T07:33:23Z</time>
      </trkpt>
      <trkpt lat="42.87827" lon="-0.06625">
        <ele>1847</ele>
        <time>2017-02-26T07:33:24Z</time>
      </trkpt>
      <trkpt lat="42.87827" lon="-0.06625">
        <ele>1847</ele>
        <time>2017-02-26T07:33:25Z</time>
      </trkpt>
      <trkpt lat="42.87827" lon="-0.06626">
        <ele>1847</ele>
        <time>2017-02-26T07:33:27Z</time>
      </trkpt>
      <trkpt lat="42.87827" lon="-0.06627">
        <ele>1847</ele>
        <time>2017-02-26T07:33:28Z</time>
      </trkpt>
      <trkpt lat="42.87828" lon="-0.0663">
        <ele>1847</ele>
        <time>2017-02-26T07:33:30Z</time>
      </trkpt>
      <trkpt lat="42.87831" lon="-0.06645">
        <ele>1849</ele>
        <time>2017-02-26T07:33:46Z</time>
      </trkpt>
      <trkpt lat="42.87832" lon="-0.06647">
        <ele>1849</ele>
        <time>2017-02-26T07:33:48Z</time>
      </trkpt>
      <trkpt lat="42.87834" lon="-0.0665">
        <ele>1849</ele>
        <time>2017-02-26T07:33:51Z</time>
      </trkpt>
      <trkpt lat="42.87833" lon="-0.06653">
        <ele>1850</ele>
        <time>2017-02-26T07:34:10Z</time>
      </trkpt>
      <trkpt lat="42.87832" lon="-0.06652">
        <ele>1850</ele>
        <time>2017-02-26T07:34:25Z</time>
      </trkpt>
      <trkpt lat="42.87831" lon="-0.06655">
        <ele>1850</ele>
        <time>2017-02-26T07:34:33Z</time>
      </trkpt>
      <trkpt lat="42.87831" lon="-0.06658">
        <ele>1851</ele>
        <time>2017-02-26T07:34:35Z</time>
      </trkpt>
      <trkpt lat="42.87833" lon="-0.06682">
        <ele>1852</ele>
        <time>2017-02-26T07:34:49Z</time>
      </trkpt>
      <trkpt lat="42.87834" lon="-0.06685">
        <ele>1852</ele>
        <time>2017-02-26T07:34:51Z</time>
      </trkpt>
      <trkpt lat="42.87835" lon="-0.06692">
        <ele>1853</ele>
        <time>2017-02-26T07:34:55Z</time>
      </trkpt>
      <trkpt lat="42.87836" lon="-0.06694">
        <ele>1853</ele>
        <time>2017-02-26T07:34:57Z</time>
      </trkpt>
      <trkpt lat="42.87838" lon="-0.06707">
        <ele>1854</ele>
        <time>2017-02-26T07:35:05Z</time>
      </trkpt>
      <trkpt lat="42.87838" lon="-0.06711">
        <ele>1855</ele>
        <time>2017-02-26T07:35:07Z</time>
      </trkpt>
      <trkpt lat="42.87841" lon="-0.06721">
        <ele>1855</ele>
        <time>2017-02-26T07:35:13Z</time>
      </trkpt>
      <trkpt lat="42.87841" lon="-0.06724">
        <ele>1855</ele>
        <time>2017-02-26T07:35:15Z</time>
      </trkpt>
      <trkpt lat="42.87842" lon="-0.06727">
        <ele>1856</ele>
        <time>2017-02-26T07:35:17Z</time>
      </trkpt>
      <trkpt lat="42.87843" lon="-0.06729">
        <ele>1856</ele>
        <time>2017-02-26T07:35:19Z</time>
      </trkpt>
      <trkpt lat="42.87845" lon="-0.06737">
        <ele>1856</ele>
        <time>2017-02-26T07:35:25Z</time>
      </trkpt>
      <trkpt lat="42.8785" lon="-0.06755">
        <ele>1858</ele>
        <time>2017-02-26T07:35:39Z</time>
      </trkpt>
      <trkpt lat="42.87854" lon="-0.06765">
        <ele>1860</ele>
        <time>2017-02-26T07:35:47Z</time>
      </trkpt>
      <trkpt lat="42.87855" lon="-0.06768">
        <ele>1860</ele>
        <time>2017-02-26T07:35:49Z</time>
      </trkpt>
      <trkpt lat="42.8786" lon="-0.06788">
        <ele>1863</ele>
        <time>2017-02-26T07:36:05Z</time>
      </trkpt>
      <trkpt lat="42.87861" lon="-0.0679">
        <ele>1863</ele>
        <time>2017-02-26T07:36:07Z</time>
      </trkpt>
      <trkpt lat="42.87862" lon="-0.06792">
        <ele>1863</ele>
        <time>2017-02-26T07:36:09Z</time>
      </trkpt>
      <trkpt lat="42.87863" lon="-0.06795">
        <ele>1865</ele>
        <time>2017-02-26T07:36:12Z</time>
      </trkpt>
      <trkpt lat="42.87864" lon="-0.068">
        <ele>1865</ele>
        <time>2017-02-26T07:36:16Z</time>
      </trkpt>
      <trkpt lat="42.87865" lon="-0.06803">
        <ele>1866</ele>
        <time>2017-02-26T07:36:19Z</time>
      </trkpt>
      <trkpt lat="42.87866" lon="-0.06806">
        <ele>1866</ele>
        <time>2017-02-26T07:36:21Z</time>
      </trkpt>
      <trkpt lat="42.87868" lon="-0.06808">
        <ele>1866</ele>
        <time>2017-02-26T07:36:24Z</time>
      </trkpt>
      <trkpt lat="42.87868" lon="-0.06812">
        <ele>1867</ele>
        <time>2017-02-26T07:36:27Z</time>
      </trkpt>
      <trkpt lat="42.87869" lon="-0.06814">
        <ele>1867</ele>
        <time>2017-02-26T07:36:30Z</time>
      </trkpt>
      <trkpt lat="42.8787" lon="-0.06818">
        <ele>1868</ele>
        <time>2017-02-26T07:36:32Z</time>
      </trkpt>
      <trkpt lat="42.87872" lon="-0.06819">
        <ele>1869</ele>
        <time>2017-02-26T07:36:35Z</time>
      </trkpt>
      <trkpt lat="42.87874" lon="-0.06822">
        <ele>1870</ele>
        <time>2017-02-26T07:36:38Z</time>
      </trkpt>
      <trkpt lat="42.87874" lon="-0.06825">
        <ele>1870</ele>
        <time>2017-02-26T07:36:41Z</time>
      </trkpt>
      <trkpt lat="42.87874" lon="-0.06828">
        <ele>1871</ele>
        <time>2017-02-26T07:36:44Z</time>
      </trkpt>
      <trkpt lat="42.87874" lon="-0.06831">
        <ele>1871</ele>
        <time>2017-02-26T07:36:46Z</time>
      </trkpt>
      <trkpt lat="42.87876" lon="-0.06834">
        <ele>1872</ele>
        <time>2017-02-26T07:36:49Z</time>
      </trkpt>
      <trkpt lat="42.87876" lon="-0.06837">
        <ele>1872</ele>
        <time>2017-02-26T07:36:52Z</time>
      </trkpt>
      <trkpt lat="42.87879" lon="-0.06843">
        <ele>1873</ele>
        <time>2017-02-26T07:36:57Z</time>
      </trkpt>
      <trkpt lat="42.87879" lon="-0.06845">
        <ele>1874</ele>
        <time>2017-02-26T07:36:59Z</time>
      </trkpt>
      <trkpt lat="42.87881" lon="-0.06848">
        <ele>1874</ele>
        <time>2017-02-26T07:37:02Z</time>
      </trkpt>
      <trkpt lat="42.87882" lon="-0.06849">
        <ele>1875</ele>
        <time>2017-02-26T07:37:05Z</time>
      </trkpt>
      <trkpt lat="42.87884" lon="-0.06852">
        <ele>1876</ele>
        <time>2017-02-26T07:37:08Z</time>
      </trkpt>
      <trkpt lat="42.87885" lon="-0.06854">
        <ele>1876</ele>
        <time>2017-02-26T07:37:11Z</time>
      </trkpt>
      <trkpt lat="42.87886" lon="-0.06857">
        <ele>1876</ele>
        <time>2017-02-26T07:37:14Z</time>
      </trkpt>
      <trkpt lat="42.87887" lon="-0.0686">
        <ele>1877</ele>
        <time>2017-02-26T07:37:17Z</time>
      </trkpt>
      <trkpt lat="42.87889" lon="-0.06861">
        <ele>1877</ele>
        <time>2017-02-26T07:37:20Z</time>
      </trkpt>
      <trkpt lat="42.87891" lon="-0.06863">
        <ele>1878</ele>
        <time>2017-02-26T07:37:23Z</time>
      </trkpt>
      <trkpt lat="42.87892" lon="-0.06865">
        <ele>1878</ele>
        <time>2017-02-26T07:37:25Z</time>
      </trkpt>
      <trkpt lat="42.87893" lon="-0.06869">
        <ele>1878</ele>
        <time>2017-02-26T07:37:28Z</time>
      </trkpt>
      <trkpt lat="42.87895" lon="-0.06871">
        <ele>1879</ele>
        <time>2017-02-26T07:37:31Z</time>
      </trkpt>
      <trkpt lat="42.87896" lon="-0.06873">
        <ele>1880</ele>
        <time>2017-02-26T07:37:34Z</time>
      </trkpt>
      <trkpt lat="42.87898" lon="-0.06876">
        <ele>1880</ele>
        <time>2017-02-26T07:37:38Z</time>
      </trkpt>
      <trkpt lat="42.87905" lon="-0.0689">
        <ele>1884</ele>
        <time>2017-02-26T07:37:55Z</time>
      </trkpt>
      <trkpt lat="42.87911" lon="-0.06899">
        <ele>1886</ele>
        <time>2017-02-26T07:38:07Z</time>
      </trkpt>
      <trkpt lat="42.87913" lon="-0.069">
        <ele>1887</ele>
        <time>2017-02-26T07:38:09Z</time>
      </trkpt>
      <trkpt lat="42.87918" lon="-0.06911">
        <ele>1890</ele>
        <time>2017-02-26T07:38:21Z</time>
      </trkpt>
      <trkpt lat="42.87919" lon="-0.06914">
        <ele>1890</ele>
        <time>2017-02-26T07:38:24Z</time>
      </trkpt>
      <trkpt lat="42.87922" lon="-0.06918">
        <ele>1891</ele>
        <time>2017-02-26T07:38:30Z</time>
      </trkpt>
      <trkpt lat="42.8793" lon="-0.06935">
        <ele>1895</ele>
        <time>2017-02-26T07:38:47Z</time>
      </trkpt>
      <trkpt lat="42.8793" lon="-0.06937">
        <ele>1895</ele>
        <time>2017-02-26T07:38:49Z</time>
      </trkpt>
      <trkpt lat="42.87931" lon="-0.0694">
        <ele>1896</ele>
        <time>2017-02-26T07:38:51Z</time>
      </trkpt>
      <trkpt lat="42.87931" lon="-0.06945">
        <ele>1896</ele>
        <time>2017-02-26T07:38:57Z</time>
      </trkpt>
      <trkpt lat="42.87932" lon="-0.06947">
        <ele>1897</ele>
        <time>2017-02-26T07:39:01Z</time>
      </trkpt>
      <trkpt lat="42.87932" lon="-0.0695">
        <ele>1897</ele>
        <time>2017-02-26T07:39:04Z</time>
      </trkpt>
      <trkpt lat="42.87931" lon="-0.06953">
        <ele>1899</ele>
        <time>2017-02-26T07:39:07Z</time>
      </trkpt>
      <trkpt lat="42.8793" lon="-0.06954">
        <ele>1899</ele>
        <time>2017-02-26T07:39:10Z</time>
      </trkpt>
      <trkpt lat="42.87928" lon="-0.06956">
        <ele>1899</ele>
        <time>2017-02-26T07:39:13Z</time>
      </trkpt>
      <trkpt lat="42.87925" lon="-0.06957">
        <ele>1900</ele>
        <time>2017-02-26T07:39:16Z</time>
      </trkpt>
      <trkpt lat="42.87923" lon="-0.06957">
        <ele>1900</ele>
        <time>2017-02-26T07:39:19Z</time>
      </trkpt>
      <trkpt lat="42.87918" lon="-0.06958">
        <ele>1901</ele>
        <time>2017-02-26T07:39:25Z</time>
      </trkpt>
      <trkpt lat="42.87914" lon="-0.06958">
        <ele>1902</ele>
        <time>2017-02-26T07:39:31Z</time>
      </trkpt>
      <trkpt lat="42.87908" lon="-0.06958">
        <ele>1904</ele>
        <time>2017-02-26T07:39:40Z</time>
      </trkpt>
      <trkpt lat="42.87905" lon="-0.06958">
        <ele>1905</ele>
        <time>2017-02-26T07:39:43Z</time>
      </trkpt>
      <trkpt lat="42.87901" lon="-0.06957">
        <ele>1905</ele>
        <time>2017-02-26T07:39:49Z</time>
      </trkpt>
      <trkpt lat="42.87898" lon="-0.06957">
        <ele>1906</ele>
        <time>2017-02-26T07:39:52Z</time>
      </trkpt>
      <trkpt lat="42.87892" lon="-0.06957">
        <ele>1908</ele>
        <time>2017-02-26T07:40:00Z</time>
      </trkpt>
      <trkpt lat="42.87888" lon="-0.06956">
        <ele>1908</ele>
        <time>2017-02-26T07:40:05Z</time>
      </trkpt>
      <trkpt lat="42.87883" lon="-0.06955">
        <ele>1909</ele>
        <time>2017-02-26T07:40:10Z</time>
      </trkpt>
      <trkpt lat="42.87881" lon="-0.06954">
        <ele>1909</ele>
        <time>2017-02-26T07:40:12Z</time>
      </trkpt>
      <trkpt lat="42.87872" lon="-0.06953">
        <ele>1911</ele>
        <time>2017-02-26T07:40:22Z</time>
      </trkpt>
      <trkpt lat="42.87865" lon="-0.06952">
        <ele>1912</ele>
        <time>2017-02-26T07:40:29Z</time>
      </trkpt>
      <trkpt lat="42.87835" lon="-0.06948">
        <ele>1916</ele>
        <time>2017-02-26T07:41:03Z</time>
      </trkpt>
      <trkpt lat="42.87832" lon="-0.06948">
        <ele>1918</ele>
        <time>2017-02-26T07:41:06Z</time>
      </trkpt>
      <trkpt lat="42.87828" lon="-0.06947">
        <ele>1918</ele>
        <time>2017-02-26T07:41:12Z</time>
      </trkpt>
      <trkpt lat="42.87813" lon="-0.06944">
        <ele>1923</ele>
        <time>2017-02-26T07:41:33Z</time>
      </trkpt>
      <trkpt lat="42.87811" lon="-0.06943">
        <ele>1923</ele>
        <time>2017-02-26T07:41:36Z</time>
      </trkpt>
      <trkpt lat="42.87804" lon="-0.06943">
        <ele>1924</ele>
        <time>2017-02-26T07:41:45Z</time>
      </trkpt>
      <trkpt lat="42.878" lon="-0.06943">
        <ele>1925</ele>
        <time>2017-02-26T07:41:51Z</time>
      </trkpt>
      <trkpt lat="42.87793" lon="-0.06943">
        <ele>1927</ele>
        <time>2017-02-26T07:42:00Z</time>
      </trkpt>
      <trkpt lat="42.87791" lon="-0.06944">
        <ele>1927</ele>
        <time>2017-02-26T07:42:03Z</time>
      </trkpt>
      <trkpt lat="42.87784" lon="-0.06945">
        <ele>1929</ele>
        <time>2017-02-26T07:42:12Z</time>
      </trkpt>
      <trkpt lat="42.87782" lon="-0.06945">
        <ele>1929</ele>
        <time>2017-02-26T07:42:15Z</time>
      </trkpt>
      <trkpt lat="42.87778" lon="-0.06946">
        <ele>1930</ele>
        <time>2017-02-26T07:42:21Z</time>
      </trkpt>
      <trkpt lat="42.87776" lon="-0.06947">
        <ele>1931</ele>
        <time>2017-02-26T07:42:24Z</time>
      </trkpt>
      <trkpt lat="42.87771" lon="-0.06948">
        <ele>1932</ele>
        <time>2017-02-26T07:42:31Z</time>
      </trkpt>
      <trkpt lat="42.87767" lon="-0.0695">
        <ele>1934</ele>
        <time>2017-02-26T07:42:38Z</time>
      </trkpt>
      <trkpt lat="42.87756" lon="-0.06953">
        <ele>1937</ele>
        <time>2017-02-26T07:42:59Z</time>
      </trkpt>
      <trkpt lat="42.8775" lon="-0.06956">
        <ele>1938</ele>
        <time>2017-02-26T07:43:08Z</time>
      </trkpt>
      <trkpt lat="42.87743" lon="-0.06963">
        <ele>1943</ele>
        <time>2017-02-26T07:43:22Z</time>
      </trkpt>
      <trkpt lat="42.8774" lon="-0.06964">
        <ele>1944</ele>
        <time>2017-02-26T07:43:26Z</time>
      </trkpt>
      <trkpt lat="42.87739" lon="-0.06966">
        <ele>1944</ele>
        <time>2017-02-26T07:43:29Z</time>
      </trkpt>
      <trkpt lat="42.87731" lon="-0.06971">
        <ele>1947</ele>
        <time>2017-02-26T07:43:41Z</time>
      </trkpt>
      <trkpt lat="42.87728" lon="-0.06974">
        <ele>1949</ele>
        <time>2017-02-26T07:43:49Z</time>
      </trkpt>
      <trkpt lat="42.87726" lon="-0.06975">
        <ele>1949</ele>
        <time>2017-02-26T07:43:53Z</time>
      </trkpt>
      <trkpt lat="42.87724" lon="-0.06976">
        <ele>1950</ele>
        <time>2017-02-26T07:43:56Z</time>
      </trkpt>
      <trkpt lat="42.87723" lon="-0.06977">
        <ele>1951</ele>
        <time>2017-02-26T07:43:59Z</time>
      </trkpt>
      <trkpt lat="42.8772" lon="-0.06979">
        <ele>1951</ele>
        <time>2017-02-26T07:44:03Z</time>
      </trkpt>
      <trkpt lat="42.8772" lon="-0.0698">
        <ele>1952</ele>
        <time>2017-02-26T07:44:04Z</time>
      </trkpt>
      <trkpt lat="42.87719" lon="-0.0698">
        <ele>1952</ele>
        <time>2017-02-26T07:44:05Z</time>
      </trkpt>
      <trkpt lat="42.87714" lon="-0.06984">
        <ele>1954</ele>
        <time>2017-02-26T07:44:16Z</time>
      </trkpt>
      <trkpt lat="42.87711" lon="-0.06985">
        <ele>1955</ele>
        <time>2017-02-26T07:44:20Z</time>
      </trkpt>
      <trkpt lat="42.87709" lon="-0.06987">
        <ele>1956</ele>
        <time>2017-02-26T07:44:24Z</time>
      </trkpt>
      <trkpt lat="42.87707" lon="-0.06988">
        <ele>1956</ele>
        <time>2017-02-26T07:44:27Z</time>
      </trkpt>
      <trkpt lat="42.87705" lon="-0.06989">
        <ele>1958</ele>
        <time>2017-02-26T07:44:31Z</time>
      </trkpt>
      <trkpt lat="42.87703" lon="-0.0699">
        <ele>1959</ele>
        <time>2017-02-26T07:44:35Z</time>
      </trkpt>
      <trkpt lat="42.87699" lon="-0.06991">
        <ele>1960</ele>
        <time>2017-02-26T07:44:42Z</time>
      </trkpt>
      <trkpt lat="42.87697" lon="-0.06992">
        <ele>1961</ele>
        <time>2017-02-26T07:44:46Z</time>
      </trkpt>
      <trkpt lat="42.87694" lon="-0.06992">
        <ele>1961</ele>
        <time>2017-02-26T07:44:49Z</time>
      </trkpt>
      <trkpt lat="42.8769" lon="-0.06993">
        <ele>1963</ele>
        <time>2017-02-26T07:44:56Z</time>
      </trkpt>
      <trkpt lat="42.87684" lon="-0.06993">
        <ele>1965</ele>
        <time>2017-02-26T07:45:07Z</time>
      </trkpt>
      <trkpt lat="42.87679" lon="-0.06993">
        <ele>1967</ele>
        <time>2017-02-26T07:45:14Z</time>
      </trkpt>
      <trkpt lat="42.87675" lon="-0.06991">
        <ele>1967</ele>
        <time>2017-02-26T07:45:20Z</time>
      </trkpt>
      <trkpt lat="42.87672" lon="-0.06989">
        <ele>1969</ele>
        <time>2017-02-26T07:45:24Z</time>
      </trkpt>
      <trkpt lat="42.87668" lon="-0.06984">
        <ele>1971</ele>
        <time>2017-02-26T07:45:31Z</time>
      </trkpt>
      <trkpt lat="42.87667" lon="-0.06982">
        <ele>1972</ele>
        <time>2017-02-26T07:45:34Z</time>
      </trkpt>
      <trkpt lat="42.87663" lon="-0.06979">
        <ele>1973</ele>
        <time>2017-02-26T07:45:42Z</time>
      </trkpt>
      <trkpt lat="42.87661" lon="-0.06977">
        <ele>1973</ele>
        <time>2017-02-26T07:45:46Z</time>
      </trkpt>
      <trkpt lat="42.8766" lon="-0.06975">
        <ele>1974</ele>
        <time>2017-02-26T07:45:49Z</time>
      </trkpt>
      <trkpt lat="42.87657" lon="-0.06971">
        <ele>1976</ele>
        <time>2017-02-26T07:45:56Z</time>
      </trkpt>
      <trkpt lat="42.87654" lon="-0.0697">
        <ele>1977</ele>
        <time>2017-02-26T07:46:00Z</time>
      </trkpt>
      <trkpt lat="42.87653" lon="-0.06968">
        <ele>1978</ele>
        <time>2017-02-26T07:46:04Z</time>
      </trkpt>
      <trkpt lat="42.87651" lon="-0.06966">
        <ele>1978</ele>
        <time>2017-02-26T07:46:08Z</time>
      </trkpt>
      <trkpt lat="42.8765" lon="-0.06963">
        <ele>1979</ele>
        <time>2017-02-26T07:46:12Z</time>
      </trkpt>
      <trkpt lat="42.87648" lon="-0.06962">
        <ele>1980</ele>
        <time>2017-02-26T07:46:15Z</time>
      </trkpt>
      <trkpt lat="42.87647" lon="-0.06957">
        <ele>1982</ele>
        <time>2017-02-26T07:46:26Z</time>
      </trkpt>
      <trkpt lat="42.87639" lon="-0.06941">
        <ele>1988</ele>
        <time>2017-02-26T07:46:53Z</time>
      </trkpt>
      <trkpt lat="42.87638" lon="-0.06939">
        <ele>1988</ele>
        <time>2017-02-26T07:46:56Z</time>
      </trkpt>
      <trkpt lat="42.87636" lon="-0.06937">
        <ele>1989</ele>
        <time>2017-02-26T07:47:01Z</time>
      </trkpt>
      <trkpt lat="42.87635" lon="-0.06934">
        <ele>1990</ele>
        <time>2017-02-26T07:47:05Z</time>
      </trkpt>
      <trkpt lat="42.87632" lon="-0.0693">
        <ele>1991</ele>
        <time>2017-02-26T07:47:11Z</time>
      </trkpt>
      <trkpt lat="42.87627" lon="-0.06921">
        <ele>1995</ele>
        <time>2017-02-26T07:47:24Z</time>
      </trkpt>
      <trkpt lat="42.87617" lon="-0.06906">
        <ele>2001</ele>
        <time>2017-02-26T07:47:51Z</time>
      </trkpt>
      <trkpt lat="42.87612" lon="-0.06901">
        <ele>2003</ele>
        <time>2017-02-26T07:48:02Z</time>
      </trkpt>
      <trkpt lat="42.8761" lon="-0.069">
        <ele>2004</ele>
        <time>2017-02-26T07:48:07Z</time>
      </trkpt>
      <trkpt lat="42.87608" lon="-0.069">
        <ele>2005</ele>
        <time>2017-02-26T07:48:11Z</time>
      </trkpt>
      <trkpt lat="42.87606" lon="-0.06899">
        <ele>2006</ele>
        <time>2017-02-26T07:48:15Z</time>
      </trkpt>
      <trkpt lat="42.87604" lon="-0.06899">
        <ele>2007</ele>
        <time>2017-02-26T07:48:21Z</time>
      </trkpt>
      <trkpt lat="42.87598" lon="-0.06899">
        <ele>2009</ele>
        <time>2017-02-26T07:48:31Z</time>
      </trkpt>
      <trkpt lat="42.87596" lon="-0.06899">
        <ele>2010</ele>
        <time>2017-02-26T07:48:35Z</time>
      </trkpt>
      <trkpt lat="42.87593" lon="-0.06898">
        <ele>2012</ele>
        <time>2017-02-26T07:48:39Z</time>
      </trkpt>
      <trkpt lat="42.87591" lon="-0.06899">
        <ele>2012</ele>
        <time>2017-02-26T07:48:42Z</time>
      </trkpt>
      <trkpt lat="42.87589" lon="-0.069">
        <ele>2012</ele>
        <time>2017-02-26T07:48:46Z</time>
      </trkpt>
      <trkpt lat="42.87587" lon="-0.069">
        <ele>2013</ele>
        <time>2017-02-26T07:48:50Z</time>
      </trkpt>
      <trkpt lat="42.87585" lon="-0.069">
        <ele>2014</ele>
        <time>2017-02-26T07:48:54Z</time>
      </trkpt>
      <trkpt lat="42.87582" lon="-0.06901">
        <ele>2015</ele>
        <time>2017-02-26T07:48:58Z</time>
      </trkpt>
      <trkpt lat="42.8758" lon="-0.06903">
        <ele>2015</ele>
        <time>2017-02-26T07:49:02Z</time>
      </trkpt>
      <trkpt lat="42.87578" lon="-0.06903">
        <ele>2016</ele>
        <time>2017-02-26T07:49:06Z</time>
      </trkpt>
      <trkpt lat="42.87573" lon="-0.06902">
        <ele>2017</ele>
        <time>2017-02-26T07:49:13Z</time>
      </trkpt>
      <trkpt lat="42.87568" lon="-0.06903">
        <ele>2019</ele>
        <time>2017-02-26T07:49:22Z</time>
      </trkpt>
      <trkpt lat="42.87566" lon="-0.06903">
        <ele>2020</ele>
        <time>2017-02-26T07:49:25Z</time>
      </trkpt>
      <trkpt lat="42.87564" lon="-0.06903">
        <ele>2021</ele>
        <time>2017-02-26T07:49:28Z</time>
      </trkpt>
      <trkpt lat="42.87562" lon="-0.06904">
        <ele>2021</ele>
        <time>2017-02-26T07:49:32Z</time>
      </trkpt>
      <trkpt lat="42.8756" lon="-0.06904">
        <ele>2022</ele>
        <time>2017-02-26T07:49:35Z</time>
      </trkpt>
      <trkpt lat="42.87556" lon="-0.06905">
        <ele>2023</ele>
        <time>2017-02-26T07:49:41Z</time>
      </trkpt>
      <trkpt lat="42.87549" lon="-0.06904">
        <ele>2024</ele>
        <time>2017-02-26T07:50:02Z</time>
      </trkpt>
      <trkpt lat="42.8754" lon="-0.06905">
        <ele>2026</ele>
        <time>2017-02-26T07:50:14Z</time>
      </trkpt>
      <trkpt lat="42.87537" lon="-0.06905">
        <ele>2026</ele>
        <time>2017-02-26T07:50:17Z</time>
      </trkpt>
      <trkpt lat="42.87528" lon="-0.06907">
        <ele>2028</ele>
        <time>2017-02-26T07:50:29Z</time>
      </trkpt>
      <trkpt lat="42.87525" lon="-0.06908">
        <ele>2029</ele>
        <time>2017-02-26T07:50:33Z</time>
      </trkpt>
      <trkpt lat="42.87517" lon="-0.0691">
        <ele>2031</ele>
        <time>2017-02-26T07:50:42Z</time>
      </trkpt>
      <trkpt lat="42.87515" lon="-0.06911">
        <ele>2033</ele>
        <time>2017-02-26T07:50:45Z</time>
      </trkpt>
      <trkpt lat="42.87511" lon="-0.06912">
        <ele>2034</ele>
        <time>2017-02-26T07:50:51Z</time>
      </trkpt>
      <trkpt lat="42.87509" lon="-0.06912">
        <ele>2034</ele>
        <time>2017-02-26T07:50:54Z</time>
      </trkpt>
      <trkpt lat="42.87506" lon="-0.06912">
        <ele>2035</ele>
        <time>2017-02-26T07:50:57Z</time>
      </trkpt>
      <trkpt lat="42.87504" lon="-0.06914">
        <ele>2036</ele>
        <time>2017-02-26T07:51:00Z</time>
      </trkpt>
      <trkpt lat="42.87502" lon="-0.06915">
        <ele>2036</ele>
        <time>2017-02-26T07:51:03Z</time>
      </trkpt>
      <trkpt lat="42.87498" lon="-0.06915">
        <ele>2037</ele>
        <time>2017-02-26T07:51:09Z</time>
      </trkpt>
      <trkpt lat="42.87496" lon="-0.06916">
        <ele>2038</ele>
        <time>2017-02-26T07:51:14Z</time>
      </trkpt>
      <trkpt lat="42.87495" lon="-0.06918">
        <ele>2039</ele>
        <time>2017-02-26T07:51:18Z</time>
      </trkpt>
      <trkpt lat="42.87487" lon="-0.06924">
        <ele>2041</ele>
        <time>2017-02-26T07:51:31Z</time>
      </trkpt>
      <trkpt lat="42.87485" lon="-0.06925">
        <ele>2042</ele>
        <time>2017-02-26T07:51:35Z</time>
      </trkpt>
      <trkpt lat="42.87483" lon="-0.06926">
        <ele>2043</ele>
        <time>2017-02-26T07:51:38Z</time>
      </trkpt>
      <trkpt lat="42.87479" lon="-0.06929">
        <ele>2044</ele>
        <time>2017-02-26T07:51:44Z</time>
      </trkpt>
      <trkpt lat="42.87477" lon="-0.0693">
        <ele>2044</ele>
        <time>2017-02-26T07:51:48Z</time>
      </trkpt>
      <trkpt lat="42.87473" lon="-0.06928">
        <ele>2046</ele>
        <time>2017-02-26T07:51:57Z</time>
      </trkpt>
      <trkpt lat="42.87471" lon="-0.06927">
        <ele>2046</ele>
        <time>2017-02-26T07:52:01Z</time>
      </trkpt>
      <trkpt lat="42.8747" lon="-0.06925">
        <ele>2046</ele>
        <time>2017-02-26T07:52:05Z</time>
      </trkpt>
      <trkpt lat="42.87457" lon="-0.06906">
        <ele>2052</ele>
        <time>2017-02-26T07:52:36Z</time>
      </trkpt>
      <trkpt lat="42.87456" lon="-0.06904">
        <ele>2053</ele>
        <time>2017-02-26T07:52:40Z</time>
      </trkpt>
      <trkpt lat="42.87454" lon="-0.06894">
        <ele>2055</ele>
        <time>2017-02-26T07:52:53Z</time>
      </trkpt>
      <trkpt lat="42.87453" lon="-0.06892">
        <ele>2056</ele>
        <time>2017-02-26T07:52:57Z</time>
      </trkpt>
      <trkpt lat="42.87448" lon="-0.06886">
        <ele>2058</ele>
        <time>2017-02-26T07:53:08Z</time>
      </trkpt>
      <trkpt lat="42.87446" lon="-0.06885">
        <ele>2058</ele>
        <time>2017-02-26T07:53:15Z</time>
      </trkpt>
      <trkpt lat="42.87443" lon="-0.06886">
        <ele>2059</ele>
        <time>2017-02-26T07:53:24Z</time>
      </trkpt>
      <trkpt lat="42.87441" lon="-0.06885">
        <ele>2059</ele>
        <time>2017-02-26T07:53:29Z</time>
      </trkpt>
      <trkpt lat="42.87439" lon="-0.06885">
        <ele>2060</ele>
        <time>2017-02-26T07:53:35Z</time>
      </trkpt>
      <trkpt lat="42.87437" lon="-0.06884">
        <ele>2062</ele>
        <time>2017-02-26T07:53:42Z</time>
      </trkpt>
      <trkpt lat="42.87435" lon="-0.06883">
        <ele>2063</ele>
        <time>2017-02-26T07:53:48Z</time>
      </trkpt>
      <trkpt lat="42.8743" lon="-0.06878">
        <ele>2065</ele>
        <time>2017-02-26T07:53:57Z</time>
      </trkpt>
      <trkpt lat="42.87427" lon="-0.06874">
        <ele>2065</ele>
        <time>2017-02-26T07:54:02Z</time>
      </trkpt>
      <trkpt lat="42.87423" lon="-0.06867">
        <ele>2067</ele>
        <time>2017-02-26T07:54:12Z</time>
      </trkpt>
      <trkpt lat="42.87422" lon="-0.06859">
        <ele>2068</ele>
        <time>2017-02-26T07:54:24Z</time>
      </trkpt>
      <trkpt lat="42.87418" lon="-0.06849">
        <ele>2070</ele>
        <time>2017-02-26T07:54:42Z</time>
      </trkpt>
      <trkpt lat="42.87417" lon="-0.06849">
        <ele>2070</ele>
        <time>2017-02-26T07:54:43Z</time>
      </trkpt>
      <trkpt lat="42.87417" lon="-0.06849">
        <ele>2070</ele>
        <time>2017-02-26T07:54:44Z</time>
      </trkpt>
      <trkpt lat="42.87416" lon="-0.06848">
        <ele>2070</ele>
        <time>2017-02-26T07:54:45Z</time>
      </trkpt>
      <trkpt lat="42.87416" lon="-0.06848">
        <ele>2070</ele>
        <time>2017-02-26T07:54:46Z</time>
      </trkpt>
      <trkpt lat="42.87415" lon="-0.06847">
        <ele>2070</ele>
        <time>2017-02-26T07:54:47Z</time>
      </trkpt>
      <trkpt lat="42.87415" lon="-0.06847">
        <ele>2070</ele>
        <time>2017-02-26T07:54:48Z</time>
      </trkpt>
      <trkpt lat="42.87414" lon="-0.06846">
        <ele>2070</ele>
        <time>2017-02-26T07:54:49Z</time>
      </trkpt>
      <trkpt lat="42.87413" lon="-0.06844">
        <ele>2070</ele>
        <time>2017-02-26T07:54:53Z</time>
      </trkpt>
      <trkpt lat="42.87411" lon="-0.06842">
        <ele>2071</ele>
        <time>2017-02-26T07:54:56Z</time>
      </trkpt>
      <trkpt lat="42.87411" lon="-0.06845">
        <ele>2072</ele>
        <time>2017-02-26T07:55:01Z</time>
      </trkpt>
      <trkpt lat="42.8741" lon="-0.06846">
        <ele>2073</ele>
        <time>2017-02-26T07:55:04Z</time>
      </trkpt>
      <trkpt lat="42.8741" lon="-0.06848">
        <ele>2074</ele>
        <time>2017-02-26T07:55:09Z</time>
      </trkpt>
      <trkpt lat="42.8741" lon="-0.06849">
        <ele>2074</ele>
        <time>2017-02-26T07:55:12Z</time>
      </trkpt>
      <trkpt lat="42.87409" lon="-0.06852">
        <ele>2074</ele>
        <time>2017-02-26T07:55:17Z</time>
      </trkpt>
      <trkpt lat="42.87409" lon="-0.06853">
        <ele>2074</ele>
        <time>2017-02-26T07:55:20Z</time>
      </trkpt>
      <trkpt lat="42.87408" lon="-0.06855">
        <ele>2075</ele>
        <time>2017-02-26T07:55:25Z</time>
      </trkpt>
      <trkpt lat="42.87409" lon="-0.06858">
        <ele>2075</ele>
        <time>2017-02-26T07:55:29Z</time>
      </trkpt>
      <trkpt lat="42.87409" lon="-0.06855">
        <ele>2075</ele>
        <time>2017-02-26T07:55:33Z</time>
      </trkpt>
      <trkpt lat="42.87408" lon="-0.06854">
        <ele>2075</ele>
        <time>2017-02-26T07:55:34Z</time>
      </trkpt>
      <trkpt lat="42.87407" lon="-0.06848">
        <ele>2075</ele>
        <time>2017-02-26T07:55:41Z</time>
      </trkpt>
      <trkpt lat="42.87407" lon="-0.06845">
        <ele>2076</ele>
        <time>2017-02-26T07:55:45Z</time>
      </trkpt>
      <trkpt lat="42.87406" lon="-0.06843">
        <ele>2076</ele>
        <time>2017-02-26T07:55:49Z</time>
      </trkpt>
      <trkpt lat="42.87405" lon="-0.06843">
        <ele>2077</ele>
        <time>2017-02-26T07:55:50Z</time>
      </trkpt>
      <trkpt lat="42.87405" lon="-0.06844">
        <ele>2077</ele>
        <time>2017-02-26T07:55:51Z</time>
      </trkpt>
      <trkpt lat="42.87405" lon="-0.06844">
        <ele>2077</ele>
        <time>2017-02-26T07:55:52Z</time>
      </trkpt>
      <trkpt lat="42.87404" lon="-0.06845">
        <ele>2078</ele>
        <time>2017-02-26T07:55:54Z</time>
      </trkpt>
      <trkpt lat="42.87404" lon="-0.06846">
        <ele>2078</ele>
        <time>2017-02-26T07:55:55Z</time>
      </trkpt>
      <trkpt lat="42.87403" lon="-0.06847">
        <ele>2078</ele>
        <time>2017-02-26T07:55:56Z</time>
      </trkpt>
      <trkpt lat="42.87403" lon="-0.06847">
        <ele>2078</ele>
        <time>2017-02-26T07:55:57Z</time>
      </trkpt>
      <trkpt lat="42.87402" lon="-0.06848">
        <ele>2078</ele>
        <time>2017-02-26T07:55:58Z</time>
      </trkpt>
      <trkpt lat="42.87402" lon="-0.06848">
        <ele>2078</ele>
        <time>2017-02-26T07:55:59Z</time>
      </trkpt>
      <trkpt lat="42.87402" lon="-0.06849">
        <ele>2079</ele>
        <time>2017-02-26T07:56:00Z</time>
      </trkpt>
      <trkpt lat="42.87401" lon="-0.06849">
        <ele>2079</ele>
        <time>2017-02-26T07:56:01Z</time>
      </trkpt>
      <trkpt lat="42.874" lon="-0.0685">
        <ele>2079</ele>
        <time>2017-02-26T07:56:03Z</time>
      </trkpt>
      <trkpt lat="42.874" lon="-0.06851">
        <ele>2080</ele>
        <time>2017-02-26T07:56:04Z</time>
      </trkpt>
      <trkpt lat="42.874" lon="-0.06851">
        <ele>2080</ele>
        <time>2017-02-26T07:56:05Z</time>
      </trkpt>
      <trkpt lat="42.87399" lon="-0.06852">
        <ele>2080</ele>
        <time>2017-02-26T07:56:06Z</time>
      </trkpt>
      <trkpt lat="42.87399" lon="-0.0686">
        <ele>2080</ele>
        <time>2017-02-26T07:56:18Z</time>
      </trkpt>
      <trkpt lat="42.874" lon="-0.06859">
        <ele>2081</ele>
        <time>2017-02-26T07:56:26Z</time>
      </trkpt>
      <trkpt lat="42.87399" lon="-0.06854">
        <ele>2082</ele>
        <time>2017-02-26T07:56:33Z</time>
      </trkpt>
      <trkpt lat="42.87396" lon="-0.06846">
        <ele>2083</ele>
        <time>2017-02-26T07:56:46Z</time>
      </trkpt>
      <trkpt lat="42.87395" lon="-0.06847">
        <ele>2083</ele>
        <time>2017-02-26T07:56:47Z</time>
      </trkpt>
      <trkpt lat="42.87395" lon="-0.06847">
        <ele>2083</ele>
        <time>2017-02-26T07:56:48Z</time>
      </trkpt>
      <trkpt lat="42.87394" lon="-0.06848">
        <ele>2084</ele>
        <time>2017-02-26T07:56:49Z</time>
      </trkpt>
      <trkpt lat="42.87394" lon="-0.06848">
        <ele>2084</ele>
        <time>2017-02-26T07:56:50Z</time>
      </trkpt>
      <trkpt lat="42.87394" lon="-0.06848">
        <ele>2084</ele>
        <time>2017-02-26T07:56:51Z</time>
      </trkpt>
      <trkpt lat="42.87393" lon="-0.06849">
        <ele>2084</ele>
        <time>2017-02-26T07:56:52Z</time>
      </trkpt>
      <trkpt lat="42.87393" lon="-0.06849">
        <ele>2084</ele>
        <time>2017-02-26T07:56:53Z</time>
      </trkpt>
      <trkpt lat="42.87392" lon="-0.0685">
        <ele>2084</ele>
        <time>2017-02-26T07:56:54Z</time>
      </trkpt>
      <trkpt lat="42.87392" lon="-0.0685">
        <ele>2084</ele>
        <time>2017-02-26T07:56:55Z</time>
      </trkpt>
      <trkpt lat="42.87392" lon="-0.06851">
        <ele>2085</ele>
        <time>2017-02-26T07:56:56Z</time>
      </trkpt>
      <trkpt lat="42.87391" lon="-0.06851">
        <ele>2085</ele>
        <time>2017-02-26T07:56:57Z</time>
      </trkpt>
      <trkpt lat="42.87391" lon="-0.06852">
        <ele>2085</ele>
        <time>2017-02-26T07:56:58Z</time>
      </trkpt>
      <trkpt lat="42.8739" lon="-0.06852">
        <ele>2086</ele>
        <time>2017-02-26T07:56:59Z</time>
      </trkpt>
      <trkpt lat="42.8739" lon="-0.06852">
        <ele>2086</ele>
        <time>2017-02-26T07:57:00Z</time>
      </trkpt>
      <trkpt lat="42.8739" lon="-0.06853">
        <ele>2086</ele>
        <time>2017-02-26T07:57:01Z</time>
      </trkpt>
      <trkpt lat="42.87389" lon="-0.06853">
        <ele>2086</ele>
        <time>2017-02-26T07:57:02Z</time>
      </trkpt>
      <trkpt lat="42.87389" lon="-0.06854">
        <ele>2086</ele>
        <time>2017-02-26T07:57:03Z</time>
      </trkpt>
      <trkpt lat="42.87388" lon="-0.06854">
        <ele>2086</ele>
        <time>2017-02-26T07:57:04Z</time>
      </trkpt>
      <trkpt lat="42.87385" lon="-0.06866">
        <ele>2088</ele>
        <time>2017-02-26T07:57:15Z</time>
      </trkpt>
      <trkpt lat="42.87386" lon="-0.06869">
        <ele>2088</ele>
        <time>2017-02-26T07:57:19Z</time>
      </trkpt>
      <trkpt lat="42.87386" lon="-0.0687">
        <ele>2088</ele>
        <time>2017-02-26T07:57:20Z</time>
      </trkpt>
      <trkpt lat="42.87387" lon="-0.06875">
        <ele>2089</ele>
        <time>2017-02-26T07:57:27Z</time>
      </trkpt>
      <trkpt lat="42.87387" lon="-0.06876">
        <ele>2090</ele>
        <time>2017-02-26T07:57:28Z</time>
      </trkpt>
      <trkpt lat="42.87387" lon="-0.06879">
        <ele>2090</ele>
        <time>2017-02-26T07:57:32Z</time>
      </trkpt>
      <trkpt lat="42.87387" lon="-0.06871">
        <ele>2091</ele>
        <time>2017-02-26T07:57:47Z</time>
      </trkpt>
      <trkpt lat="42.87384" lon="-0.06866">
        <ele>2093</ele>
        <time>2017-02-26T07:57:51Z</time>
      </trkpt>
      <trkpt lat="42.87384" lon="-0.06866">
        <ele>2093</ele>
        <time>2017-02-26T07:57:52Z</time>
      </trkpt>
      <trkpt lat="42.87384" lon="-0.06866">
        <ele>2094</ele>
        <time>2017-02-26T07:57:53Z</time>
      </trkpt>
      <trkpt lat="42.87383" lon="-0.06867">
        <ele>2094</ele>
        <time>2017-02-26T07:57:55Z</time>
      </trkpt>
      <trkpt lat="42.87383" lon="-0.06867">
        <ele>2094</ele>
        <time>2017-02-26T07:57:56Z</time>
      </trkpt>
      <trkpt lat="42.87383" lon="-0.06868">
        <ele>2094</ele>
        <time>2017-02-26T07:57:58Z</time>
      </trkpt>
      <trkpt lat="42.87383" lon="-0.06868">
        <ele>2094</ele>
        <time>2017-02-26T07:57:59Z</time>
      </trkpt>
      <trkpt lat="42.87382" lon="-0.06869">
        <ele>2094</ele>
        <time>2017-02-26T07:58:01Z</time>
      </trkpt>
      <trkpt lat="42.87382" lon="-0.06869">
        <ele>2094</ele>
        <time>2017-02-26T07:58:02Z</time>
      </trkpt>
      <trkpt lat="42.87382" lon="-0.0687">
        <ele>2094</ele>
        <time>2017-02-26T07:58:04Z</time>
      </trkpt>
      <trkpt lat="42.87381" lon="-0.0687">
        <ele>2094</ele>
        <time>2017-02-26T07:58:05Z</time>
      </trkpt>
      <trkpt lat="42.87381" lon="-0.06871">
        <ele>2094</ele>
        <time>2017-02-26T07:58:06Z</time>
      </trkpt>
      <trkpt lat="42.87381" lon="-0.06871">
        <ele>2094</ele>
        <time>2017-02-26T07:58:07Z</time>
      </trkpt>
      <trkpt lat="42.87381" lon="-0.06872">
        <ele>2094</ele>
        <time>2017-02-26T07:58:09Z</time>
      </trkpt>
      <trkpt lat="42.8738" lon="-0.06872">
        <ele>2095</ele>
        <time>2017-02-26T07:58:10Z</time>
      </trkpt>
      <trkpt lat="42.8738" lon="-0.06873">
        <ele>2095</ele>
        <time>2017-02-26T07:58:12Z</time>
      </trkpt>
      <trkpt lat="42.8738" lon="-0.06873">
        <ele>2095</ele>
        <time>2017-02-26T07:58:13Z</time>
      </trkpt>
      <trkpt lat="42.8738" lon="-0.06873">
        <ele>2095</ele>
        <time>2017-02-26T07:58:14Z</time>
      </trkpt>
      <trkpt lat="42.8738" lon="-0.06874">
        <ele>2096</ele>
        <time>2017-02-26T07:58:15Z</time>
      </trkpt>
      <trkpt lat="42.87379" lon="-0.06874">
        <ele>2096</ele>
        <time>2017-02-26T07:58:16Z</time>
      </trkpt>
      <trkpt lat="42.87379" lon="-0.06875">
        <ele>2096</ele>
        <time>2017-02-26T07:58:18Z</time>
      </trkpt>
      <trkpt lat="42.87379" lon="-0.06875">
        <ele>2096</ele>
        <time>2017-02-26T07:58:19Z</time>
      </trkpt>
      <trkpt lat="42.87378" lon="-0.06876">
        <ele>2097</ele>
        <time>2017-02-26T07:58:21Z</time>
      </trkpt>
      <trkpt lat="42.87378" lon="-0.06876">
        <ele>2097</ele>
        <time>2017-02-26T07:58:22Z</time>
      </trkpt>
      <trkpt lat="42.87378" lon="-0.06876">
        <ele>2097</ele>
        <time>2017-02-26T07:58:23Z</time>
      </trkpt>
      <trkpt lat="42.87378" lon="-0.0689">
        <ele>2099</ele>
        <time>2017-02-26T07:58:36Z</time>
      </trkpt>
      <trkpt lat="42.87377" lon="-0.06895">
        <ele>2100</ele>
        <time>2017-02-26T07:58:41Z</time>
      </trkpt>
      <trkpt lat="42.87377" lon="-0.06896">
        <ele>2101</ele>
        <time>2017-02-26T07:58:42Z</time>
      </trkpt>
      <trkpt lat="42.87376" lon="-0.06901">
        <ele>2101</ele>
        <time>2017-02-26T07:58:48Z</time>
      </trkpt>
      <trkpt lat="42.87376" lon="-0.06902">
        <ele>2101</ele>
        <time>2017-02-26T07:58:49Z</time>
      </trkpt>
      <trkpt lat="42.87376" lon="-0.06903">
        <ele>2101</ele>
        <time>2017-02-26T07:58:50Z</time>
      </trkpt>
      <trkpt lat="42.87376" lon="-0.06903">
        <ele>2101</ele>
        <time>2017-02-26T07:58:51Z</time>
      </trkpt>
      <trkpt lat="42.87375" lon="-0.06904">
        <ele>2101</ele>
        <time>2017-02-26T07:58:52Z</time>
      </trkpt>
      <trkpt lat="42.87375" lon="-0.06905">
        <ele>2102</ele>
        <time>2017-02-26T07:58:53Z</time>
      </trkpt>
      <trkpt lat="42.87375" lon="-0.06906">
        <ele>2102</ele>
        <time>2017-02-26T07:58:54Z</time>
      </trkpt>
      <trkpt lat="42.87375" lon="-0.06906">
        <ele>2102</ele>
        <time>2017-02-26T07:58:55Z</time>
      </trkpt>
      <trkpt lat="42.87374" lon="-0.06907">
        <ele>2102</ele>
        <time>2017-02-26T07:58:56Z</time>
      </trkpt>
      <trkpt lat="42.87374" lon="-0.06908">
        <ele>2103</ele>
        <time>2017-02-26T07:58:58Z</time>
      </trkpt>
      <trkpt lat="42.87374" lon="-0.06909">
        <ele>2103</ele>
        <time>2017-02-26T07:58:59Z</time>
      </trkpt>
      <trkpt lat="42.87373" lon="-0.0691">
        <ele>2103</ele>
        <time>2017-02-26T07:59:00Z</time>
      </trkpt>
      <trkpt lat="42.87373" lon="-0.0691">
        <ele>2103</ele>
        <time>2017-02-26T07:59:01Z</time>
      </trkpt>
      <trkpt lat="42.87373" lon="-0.06911">
        <ele>2104</ele>
        <time>2017-02-26T07:59:02Z</time>
      </trkpt>
      <trkpt lat="42.87373" lon="-0.06912">
        <ele>2104</ele>
        <time>2017-02-26T07:59:03Z</time>
      </trkpt>
      <trkpt lat="42.87372" lon="-0.06912">
        <ele>2104</ele>
        <time>2017-02-26T07:59:04Z</time>
      </trkpt>
      <trkpt lat="42.87372" lon="-0.06913">
        <ele>2104</ele>
        <time>2017-02-26T07:59:05Z</time>
      </trkpt>
      <trkpt lat="42.87372" lon="-0.06914">
        <ele>2105</ele>
        <time>2017-02-26T07:59:06Z</time>
      </trkpt>
      <trkpt lat="42.8737" lon="-0.06919">
        <ele>2106</ele>
        <time>2017-02-26T07:59:12Z</time>
      </trkpt>
      <trkpt lat="42.8737" lon="-0.0692">
        <ele>2106</ele>
        <time>2017-02-26T07:59:13Z</time>
      </trkpt>
      <trkpt lat="42.87367" lon="-0.06927">
        <ele>2107</ele>
        <time>2017-02-26T07:59:21Z</time>
      </trkpt>
      <trkpt lat="42.87367" lon="-0.06927">
        <ele>2108</ele>
        <time>2017-02-26T07:59:22Z</time>
      </trkpt>
      <trkpt lat="42.87366" lon="-0.06929">
        <ele>2108</ele>
        <time>2017-02-26T07:59:25Z</time>
      </trkpt>
      <trkpt lat="42.87366" lon="-0.0693">
        <ele>2108</ele>
        <time>2017-02-26T07:59:26Z</time>
      </trkpt>
      <trkpt lat="42.87362" lon="-0.06942">
        <ele>2110</ele>
        <time>2017-02-26T07:59:42Z</time>
      </trkpt>
      <trkpt lat="42.87362" lon="-0.06944">
        <ele>2110</ele>
        <time>2017-02-26T07:59:44Z</time>
      </trkpt>
      <trkpt lat="42.87362" lon="-0.06945">
        <ele>2110</ele>
        <time>2017-02-26T07:59:45Z</time>
      </trkpt>
      <trkpt lat="42.87361" lon="-0.06947">
        <ele>2112</ele>
        <time>2017-02-26T07:59:48Z</time>
      </trkpt>
      <trkpt lat="42.8736" lon="-0.06948">
        <ele>2112</ele>
        <time>2017-02-26T07:59:49Z</time>
      </trkpt>
      <trkpt lat="42.8736" lon="-0.06949">
        <ele>2112</ele>
        <time>2017-02-26T07:59:50Z</time>
      </trkpt>
      <trkpt lat="42.87359" lon="-0.06978">
        <ele>2116</ele>
        <time>2017-02-26T08:00:17Z</time>
      </trkpt>
      <trkpt lat="42.87358" lon="-0.06978">
        <ele>2116</ele>
        <time>2017-02-26T08:00:18Z</time>
      </trkpt>
      <trkpt lat="42.87358" lon="-0.06984">
        <ele>2117</ele>
        <time>2017-02-26T08:00:25Z</time>
      </trkpt>
      <trkpt lat="42.87357" lon="-0.06984">
        <ele>2117</ele>
        <time>2017-02-26T08:00:26Z</time>
      </trkpt>
      <trkpt lat="42.87357" lon="-0.06987">
        <ele>2117</ele>
        <time>2017-02-26T08:00:29Z</time>
      </trkpt>
      <trkpt lat="42.87358" lon="-0.07011">
        <ele>2120</ele>
        <time>2017-02-26T08:00:51Z</time>
      </trkpt>
      <trkpt lat="42.87357" lon="-0.07024">
        <ele>2121</ele>
        <time>2017-02-26T08:01:01Z</time>
      </trkpt>
      <trkpt lat="42.87357" lon="-0.07025">
        <ele>2121</ele>
        <time>2017-02-26T08:01:02Z</time>
      </trkpt>
      <trkpt lat="42.87358" lon="-0.07026">
        <ele>2121</ele>
        <time>2017-02-26T08:01:03Z</time>
      </trkpt>
      <trkpt lat="42.87359" lon="-0.07029">
        <ele>2121</ele>
        <time>2017-02-26T08:01:06Z</time>
      </trkpt>
      <trkpt lat="42.87359" lon="-0.0703">
        <ele>2121</ele>
        <time>2017-02-26T08:01:07Z</time>
      </trkpt>
      <trkpt lat="42.8736" lon="-0.07033">
        <ele>2121</ele>
        <time>2017-02-26T08:01:10Z</time>
      </trkpt>
      <trkpt lat="42.8736" lon="-0.07034">
        <ele>2121</ele>
        <time>2017-02-26T08:01:11Z</time>
      </trkpt>
      <trkpt lat="42.87361" lon="-0.07035">
        <ele>2121</ele>
        <time>2017-02-26T08:01:12Z</time>
      </trkpt>
      <trkpt lat="42.87366" lon="-0.07045">
        <ele>2122</ele>
        <time>2017-02-26T08:01:22Z</time>
      </trkpt>
      <trkpt lat="42.87367" lon="-0.07047">
        <ele>2123</ele>
        <time>2017-02-26T08:01:24Z</time>
      </trkpt>
      <trkpt lat="42.87368" lon="-0.07048">
        <ele>2123</ele>
        <time>2017-02-26T08:01:25Z</time>
      </trkpt>
      <trkpt lat="42.87368" lon="-0.07049">
        <ele>2123</ele>
        <time>2017-02-26T08:01:26Z</time>
      </trkpt>
      <trkpt lat="42.87375" lon="-0.07067">
        <ele>2126</ele>
        <time>2017-02-26T08:01:47Z</time>
      </trkpt>
      <trkpt lat="42.87375" lon="-0.0707">
        <ele>2126</ele>
        <time>2017-02-26T08:01:49Z</time>
      </trkpt>
      <trkpt lat="42.87375" lon="-0.07073">
        <ele>2126</ele>
        <time>2017-02-26T08:01:52Z</time>
      </trkpt>
      <trkpt lat="42.87374" lon="-0.07076">
        <ele>2126</ele>
        <time>2017-02-26T08:01:54Z</time>
      </trkpt>
      <trkpt lat="42.87375" lon="-0.07082">
        <ele>2127</ele>
        <time>2017-02-26T08:01:58Z</time>
      </trkpt>
      <trkpt lat="42.87373" lon="-0.07103">
        <ele>2130</ele>
        <time>2017-02-26T08:02:19Z</time>
      </trkpt>
      <trkpt lat="42.87373" lon="-0.07115">
        <ele>2132</ele>
        <time>2017-02-26T08:02:32Z</time>
      </trkpt>
      <trkpt lat="42.87372" lon="-0.07118">
        <ele>2134</ele>
        <time>2017-02-26T08:02:35Z</time>
      </trkpt>
      <trkpt lat="42.87372" lon="-0.07121">
        <ele>2134</ele>
        <time>2017-02-26T08:02:38Z</time>
      </trkpt>
      <trkpt lat="42.87373" lon="-0.07136">
        <ele>2137</ele>
        <time>2017-02-26T08:02:54Z</time>
      </trkpt>
      <trkpt lat="42.87375" lon="-0.07138">
        <ele>2137</ele>
        <time>2017-02-26T08:02:57Z</time>
      </trkpt>
      <trkpt lat="42.87376" lon="-0.0714">
        <ele>2137</ele>
        <time>2017-02-26T08:03:00Z</time>
      </trkpt>
      <trkpt lat="42.87378" lon="-0.0714">
        <ele>2138</ele>
        <time>2017-02-26T08:03:03Z</time>
      </trkpt>
      <trkpt lat="42.8738" lon="-0.07141">
        <ele>2139</ele>
        <time>2017-02-26T08:03:07Z</time>
      </trkpt>
      <trkpt lat="42.87384" lon="-0.0715">
        <ele>2139</ele>
        <time>2017-02-26T08:03:13Z</time>
      </trkpt>
      <trkpt lat="42.87384" lon="-0.07152">
        <ele>2139</ele>
        <time>2017-02-26T08:03:14Z</time>
      </trkpt>
      <trkpt lat="42.87387" lon="-0.07161">
        <ele>2138</ele>
        <time>2017-02-26T08:03:17Z</time>
      </trkpt>
      <trkpt lat="42.87388" lon="-0.07163">
        <ele>2138</ele>
        <time>2017-02-26T08:03:18Z</time>
      </trkpt>
      <trkpt lat="42.87389" lon="-0.07165">
        <ele>2138</ele>
        <time>2017-02-26T08:03:19Z</time>
      </trkpt>
      <trkpt lat="42.87392" lon="-0.0717">
        <ele>2138</ele>
        <time>2017-02-26T08:03:23Z</time>
      </trkpt>
      <trkpt lat="42.87395" lon="-0.07178">
        <ele>2138</ele>
        <time>2017-02-26T08:03:29Z</time>
      </trkpt>
      <trkpt lat="42.87395" lon="-0.07182">
        <ele>2138</ele>
        <time>2017-02-26T08:03:33Z</time>
      </trkpt>
      <trkpt lat="42.87396" lon="-0.07185">
        <ele>2138</ele>
        <time>2017-02-26T08:03:36Z</time>
      </trkpt>
      <trkpt lat="42.87397" lon="-0.07188">
        <ele>2139</ele>
        <time>2017-02-26T08:03:39Z</time>
      </trkpt>
      <trkpt lat="42.87402" lon="-0.07218">
        <ele>2143</ele>
        <time>2017-02-26T08:04:08Z</time>
      </trkpt>
      <trkpt lat="42.87405" lon="-0.07225">
        <ele>2144</ele>
        <time>2017-02-26T08:04:16Z</time>
      </trkpt>
      <trkpt lat="42.87407" lon="-0.07227">
        <ele>2144</ele>
        <time>2017-02-26T08:04:20Z</time>
      </trkpt>
      <trkpt lat="42.87408" lon="-0.07229">
        <ele>2145</ele>
        <time>2017-02-26T08:04:24Z</time>
      </trkpt>
      <trkpt lat="42.87406" lon="-0.07234">
        <ele>2147</ele>
        <time>2017-02-26T08:04:32Z</time>
      </trkpt>
      <trkpt lat="42.87406" lon="-0.07237">
        <ele>2148</ele>
        <time>2017-02-26T08:04:35Z</time>
      </trkpt>
      <trkpt lat="42.87408" lon="-0.07242">
        <ele>2149</ele>
        <time>2017-02-26T08:04:42Z</time>
      </trkpt>
      <trkpt lat="42.87409" lon="-0.07244">
        <ele>2149</ele>
        <time>2017-02-26T08:04:45Z</time>
      </trkpt>
      <trkpt lat="42.87409" lon="-0.07256">
        <ele>2151</ele>
        <time>2017-02-26T08:04:59Z</time>
      </trkpt>
      <trkpt lat="42.87408" lon="-0.07259">
        <ele>2151</ele>
        <time>2017-02-26T08:05:03Z</time>
      </trkpt>
      <trkpt lat="42.87408" lon="-0.07262">
        <ele>2152</ele>
        <time>2017-02-26T08:05:06Z</time>
      </trkpt>
      <trkpt lat="42.87409" lon="-0.07264">
        <ele>2153</ele>
        <time>2017-02-26T08:05:14Z</time>
      </trkpt>
      <trkpt lat="42.8741" lon="-0.07267">
        <ele>2154</ele>
        <time>2017-02-26T08:05:17Z</time>
      </trkpt>
      <trkpt lat="42.8741" lon="-0.07271">
        <ele>2154</ele>
        <time>2017-02-26T08:05:21Z</time>
      </trkpt>
      <trkpt lat="42.87411" lon="-0.07274">
        <ele>2156</ele>
        <time>2017-02-26T08:05:24Z</time>
      </trkpt>
      <trkpt lat="42.87408" lon="-0.07292">
        <ele>2159</ele>
        <time>2017-02-26T08:05:42Z</time>
      </trkpt>
      <trkpt lat="42.87408" lon="-0.07298">
        <ele>2159</ele>
        <time>2017-02-26T08:05:48Z</time>
      </trkpt>
      <trkpt lat="42.87408" lon="-0.07307">
        <ele>2161</ele>
        <time>2017-02-26T08:05:59Z</time>
      </trkpt>
      <trkpt lat="42.87406" lon="-0.07316">
        <ele>2161</ele>
        <time>2017-02-26T08:06:14Z</time>
      </trkpt>
      <trkpt lat="42.87406" lon="-0.07319">
        <ele>2162</ele>
        <time>2017-02-26T08:06:21Z</time>
      </trkpt>
      <trkpt lat="42.87405" lon="-0.07325">
        <ele>2161</ele>
        <time>2017-02-26T08:06:27Z</time>
      </trkpt>
      <trkpt lat="42.87405" lon="-0.07329">
        <ele>2162</ele>
        <time>2017-02-26T08:06:29Z</time>
      </trkpt>
      <trkpt lat="42.87405" lon="-0.07332">
        <ele>2161</ele>
        <time>2017-02-26T08:06:31Z</time>
      </trkpt>
      <trkpt lat="42.87406" lon="-0.07341">
        <ele>2163</ele>
        <time>2017-02-26T08:06:39Z</time>
      </trkpt>
      <trkpt lat="42.87406" lon="-0.07344">
        <ele>2163</ele>
        <time>2017-02-26T08:06:41Z</time>
      </trkpt>
      <trkpt lat="42.87406" lon="-0.07346">
        <ele>2163</ele>
        <time>2017-02-26T08:06:43Z</time>
      </trkpt>
      <trkpt lat="42.87407" lon="-0.0735">
        <ele>2163</ele>
        <time>2017-02-26T08:06:45Z</time>
      </trkpt>
      <trkpt lat="42.87406" lon="-0.07357">
        <ele>2163</ele>
        <time>2017-02-26T08:06:49Z</time>
      </trkpt>
      <trkpt lat="42.87403" lon="-0.07368">
        <ele>2163</ele>
        <time>2017-02-26T08:06:58Z</time>
      </trkpt>
      <trkpt lat="42.87403" lon="-0.07371">
        <ele>2163</ele>
        <time>2017-02-26T08:07:01Z</time>
      </trkpt>
      <trkpt lat="42.87402" lon="-0.07378">
        <ele>2163</ele>
        <time>2017-02-26T08:07:07Z</time>
      </trkpt>
      <trkpt lat="42.87402" lon="-0.07381">
        <ele>2164</ele>
        <time>2017-02-26T08:07:09Z</time>
      </trkpt>
      <trkpt lat="42.87401" lon="-0.07384">
        <ele>2164</ele>
        <time>2017-02-26T08:07:12Z</time>
      </trkpt>
      <trkpt lat="42.87401" lon="-0.07385">
        <ele>2164</ele>
        <time>2017-02-26T08:07:13Z</time>
      </trkpt>
      <trkpt lat="42.874" lon="-0.07389">
        <ele>2165</ele>
        <time>2017-02-26T08:07:17Z</time>
      </trkpt>
      <trkpt lat="42.87401" lon="-0.07404">
        <ele>2167</ele>
        <time>2017-02-26T08:07:30Z</time>
      </trkpt>
      <trkpt lat="42.87402" lon="-0.07406">
        <ele>2167</ele>
        <time>2017-02-26T08:07:32Z</time>
      </trkpt>
      <trkpt lat="42.87403" lon="-0.07418">
        <ele>2169</ele>
        <time>2017-02-26T08:07:43Z</time>
      </trkpt>
      <trkpt lat="42.87403" lon="-0.07421">
        <ele>2169</ele>
        <time>2017-02-26T08:07:45Z</time>
      </trkpt>
      <trkpt lat="42.87404" lon="-0.0743">
        <ele>2170</ele>
        <time>2017-02-26T08:07:54Z</time>
      </trkpt>
      <trkpt lat="42.87403" lon="-0.07432">
        <ele>2170</ele>
        <time>2017-02-26T08:07:59Z</time>
      </trkpt>
      <trkpt lat="42.87403" lon="-0.07435">
        <ele>2171</ele>
        <time>2017-02-26T08:08:07Z</time>
      </trkpt>
      <trkpt lat="42.87404" lon="-0.07441">
        <ele>2173</ele>
        <time>2017-02-26T08:08:14Z</time>
      </trkpt>
      <trkpt lat="42.87405" lon="-0.07446">
        <ele>2174</ele>
        <time>2017-02-26T08:08:25Z</time>
      </trkpt>
      <trkpt lat="42.87405" lon="-0.07458">
        <ele>2177</ele>
        <time>2017-02-26T08:08:37Z</time>
      </trkpt>
      <trkpt lat="42.87407" lon="-0.0747">
        <ele>2178</ele>
        <time>2017-02-26T08:08:48Z</time>
      </trkpt>
      <trkpt lat="42.87407" lon="-0.07472">
        <ele>2178</ele>
        <time>2017-02-26T08:08:51Z</time>
      </trkpt>
      <trkpt lat="42.87406" lon="-0.07475">
        <ele>2180</ele>
        <time>2017-02-26T08:08:56Z</time>
      </trkpt>
      <trkpt lat="42.87405" lon="-0.07478">
        <ele>2180</ele>
        <time>2017-02-26T08:09:00Z</time>
      </trkpt>
      <trkpt lat="42.87404" lon="-0.0748">
        <ele>2181</ele>
        <time>2017-02-26T08:09:04Z</time>
      </trkpt>
      <trkpt lat="42.87402" lon="-0.07484">
        <ele>2182</ele>
        <time>2017-02-26T08:09:10Z</time>
      </trkpt>
      <trkpt lat="42.874" lon="-0.07487">
        <ele>2183</ele>
        <time>2017-02-26T08:09:13Z</time>
      </trkpt>
      <trkpt lat="42.87399" lon="-0.07493">
        <ele>2185</ele>
        <time>2017-02-26T08:09:19Z</time>
      </trkpt>
      <trkpt lat="42.87398" lon="-0.07499">
        <ele>2185</ele>
        <time>2017-02-26T08:09:24Z</time>
      </trkpt>
      <trkpt lat="42.87396" lon="-0.07504">
        <ele>2186</ele>
        <time>2017-02-26T08:09:30Z</time>
      </trkpt>
      <trkpt lat="42.87394" lon="-0.07506">
        <ele>2186</ele>
        <time>2017-02-26T08:09:33Z</time>
      </trkpt>
      <trkpt lat="42.87393" lon="-0.0751">
        <ele>2188</ele>
        <time>2017-02-26T08:09:36Z</time>
      </trkpt>
      <trkpt lat="42.87393" lon="-0.07541">
        <ele>2191</ele>
        <time>2017-02-26T08:10:05Z</time>
      </trkpt>
      <trkpt lat="42.87392" lon="-0.07553">
        <ele>2193</ele>
        <time>2017-02-26T08:10:18Z</time>
      </trkpt>
      <trkpt lat="42.87391" lon="-0.07561">
        <ele>2193</ele>
        <time>2017-02-26T08:10:42Z</time>
      </trkpt>
      <trkpt lat="42.87389" lon="-0.0758">
        <ele>2198</ele>
        <time>2017-02-26T08:11:11Z</time>
      </trkpt>
      <trkpt lat="42.87385" lon="-0.07591">
        <ele>2200</ele>
        <time>2017-02-26T08:11:23Z</time>
      </trkpt>
      <trkpt lat="42.87383" lon="-0.07595">
        <ele>2200</ele>
        <time>2017-02-26T08:11:27Z</time>
      </trkpt>
      <trkpt lat="42.87382" lon="-0.07598">
        <ele>2201</ele>
        <time>2017-02-26T08:11:29Z</time>
      </trkpt>
      <trkpt lat="42.87377" lon="-0.07609">
        <ele>2203</ele>
        <time>2017-02-26T08:11:39Z</time>
      </trkpt>
      <trkpt lat="42.87377" lon="-0.07613">
        <ele>2204</ele>
        <time>2017-02-26T08:11:42Z</time>
      </trkpt>
      <trkpt lat="42.87375" lon="-0.07618">
        <ele>2204</ele>
        <time>2017-02-26T08:11:46Z</time>
      </trkpt>
      <trkpt lat="42.87374" lon="-0.0762">
        <ele>2204</ele>
        <time>2017-02-26T08:11:49Z</time>
      </trkpt>
      <trkpt lat="42.87372" lon="-0.07622">
        <ele>2205</ele>
        <time>2017-02-26T08:11:54Z</time>
      </trkpt>
      <trkpt lat="42.87369" lon="-0.07629">
        <ele>2206</ele>
        <time>2017-02-26T08:12:01Z</time>
      </trkpt>
      <trkpt lat="42.87368" lon="-0.07631">
        <ele>2206</ele>
        <time>2017-02-26T08:12:04Z</time>
      </trkpt>
      <trkpt lat="42.87367" lon="-0.07631">
        <ele>2206</ele>
        <time>2017-02-26T08:12:05Z</time>
      </trkpt>
      <trkpt lat="42.87367" lon="-0.07631">
        <ele>2206</ele>
        <time>2017-02-26T08:12:06Z</time>
      </trkpt>
      <trkpt lat="42.87367" lon="-0.07631">
        <ele>2206</ele>
        <time>2017-02-26T08:12:07Z</time>
      </trkpt>
      <trkpt lat="42.87367" lon="-0.07631">
        <ele>2206</ele>
        <time>2017-02-26T08:12:09Z</time>
      </trkpt>
      <trkpt lat="42.87367" lon="-0.0763">
        <ele>2207</ele>
        <time>2017-02-26T08:12:10Z</time>
      </trkpt>
      <trkpt lat="42.87366" lon="-0.0763">
        <ele>2208</ele>
        <time>2017-02-26T08:12:13Z</time>
      </trkpt>
      <trkpt lat="42.87366" lon="-0.0763">
        <ele>2208</ele>
        <time>2017-02-26T08:12:14Z</time>
      </trkpt>
      <trkpt lat="42.87366" lon="-0.0763">
        <ele>2209</ele>
        <time>2017-02-26T08:12:15Z</time>
      </trkpt>
      <trkpt lat="42.87366" lon="-0.0763">
        <ele>2209</ele>
        <time>2017-02-26T08:12:17Z</time>
      </trkpt>
      <trkpt lat="42.87365" lon="-0.07629">
        <ele>2209</ele>
        <time>2017-02-26T08:12:20Z</time>
      </trkpt>
      <trkpt lat="42.87365" lon="-0.07629">
        <ele>2209</ele>
        <time>2017-02-26T08:12:21Z</time>
      </trkpt>
      <trkpt lat="42.87365" lon="-0.07629">
        <ele>2209</ele>
        <time>2017-02-26T08:12:23Z</time>
      </trkpt>
      <trkpt lat="42.87364" lon="-0.07629">
        <ele>2208</ele>
        <time>2017-02-26T08:12:24Z</time>
      </trkpt>
      <trkpt lat="42.87364" lon="-0.07628">
        <ele>2207</ele>
        <time>2017-02-26T08:12:25Z</time>
      </trkpt>
      <trkpt lat="42.87364" lon="-0.07628">
        <ele>2207</ele>
        <time>2017-02-26T08:12:26Z</time>
      </trkpt>
      <trkpt lat="42.87363" lon="-0.07632">
        <ele>2207</ele>
        <time>2017-02-26T08:12:29Z</time>
      </trkpt>
      <trkpt lat="42.87362" lon="-0.07635">
        <ele>2208</ele>
        <time>2017-02-26T08:12:31Z</time>
      </trkpt>
      <trkpt lat="42.87356" lon="-0.07644">
        <ele>2209</ele>
        <time>2017-02-26T08:12:40Z</time>
      </trkpt>
      <trkpt lat="42.87352" lon="-0.07648">
        <ele>2209</ele>
        <time>2017-02-26T08:12:44Z</time>
      </trkpt>
      <trkpt lat="42.8735" lon="-0.07651">
        <ele>2209</ele>
        <time>2017-02-26T08:12:46Z</time>
      </trkpt>
      <trkpt lat="42.87348" lon="-0.07653">
        <ele>2209</ele>
        <time>2017-02-26T08:12:48Z</time>
      </trkpt>
      <trkpt lat="42.87345" lon="-0.07657">
        <ele>2209</ele>
        <time>2017-02-26T08:12:52Z</time>
      </trkpt>
      <trkpt lat="42.8734" lon="-0.07664">
        <ele>2210</ele>
        <time>2017-02-26T08:12:59Z</time>
      </trkpt>
      <trkpt lat="42.87336" lon="-0.0767">
        <ele>2210</ele>
        <time>2017-02-26T08:13:05Z</time>
      </trkpt>
      <trkpt lat="42.87334" lon="-0.07675">
        <ele>2210</ele>
        <time>2017-02-26T08:13:10Z</time>
      </trkpt>
      <trkpt lat="42.87332" lon="-0.07683">
        <ele>2212</ele>
        <time>2017-02-26T08:13:17Z</time>
      </trkpt>
      <trkpt lat="42.87328" lon="-0.07693">
        <ele>2213</ele>
        <time>2017-02-26T08:13:25Z</time>
      </trkpt>
      <trkpt lat="42.87326" lon="-0.07696">
        <ele>2213</ele>
        <time>2017-02-26T08:13:27Z</time>
      </trkpt>
      <trkpt lat="42.87326" lon="-0.07698">
        <ele>2214</ele>
        <time>2017-02-26T08:13:29Z</time>
      </trkpt>
      <trkpt lat="42.87324" lon="-0.07704">
        <ele>2215</ele>
        <time>2017-02-26T08:13:34Z</time>
      </trkpt>
      <trkpt lat="42.87322" lon="-0.07709">
        <ele>2215</ele>
        <time>2017-02-26T08:13:38Z</time>
      </trkpt>
      <trkpt lat="42.87321" lon="-0.07717">
        <ele>2216</ele>
        <time>2017-02-26T08:13:44Z</time>
      </trkpt>
      <trkpt lat="42.87321" lon="-0.07721">
        <ele>2217</ele>
        <time>2017-02-26T08:13:47Z</time>
      </trkpt>
      <trkpt lat="42.8732" lon="-0.07728">
        <ele>2218</ele>
        <time>2017-02-26T08:13:53Z</time>
      </trkpt>
      <trkpt lat="42.87319" lon="-0.07731">
        <ele>2218</ele>
        <time>2017-02-26T08:13:56Z</time>
      </trkpt>
      <trkpt lat="42.87313" lon="-0.07739">
        <ele>2222</ele>
        <time>2017-02-26T08:14:09Z</time>
      </trkpt>
      <trkpt lat="42.87312" lon="-0.07741">
        <ele>2222</ele>
        <time>2017-02-26T08:14:12Z</time>
      </trkpt>
      <trkpt lat="42.8731" lon="-0.07743">
        <ele>2224</ele>
        <time>2017-02-26T08:14:16Z</time>
      </trkpt>
      <trkpt lat="42.87309" lon="-0.07746">
        <ele>2226</ele>
        <time>2017-02-26T08:14:20Z</time>
      </trkpt>
      <trkpt lat="42.87307" lon="-0.0775">
        <ele>2227</ele>
        <time>2017-02-26T08:14:31Z</time>
      </trkpt>
      <trkpt lat="42.87306" lon="-0.07753">
        <ele>2228</ele>
        <time>2017-02-26T08:14:34Z</time>
      </trkpt>
      <trkpt lat="42.87305" lon="-0.07755">
        <ele>2228</ele>
        <time>2017-02-26T08:14:37Z</time>
      </trkpt>
      <trkpt lat="42.87299" lon="-0.07768">
        <ele>2230</ele>
        <time>2017-02-26T08:14:50Z</time>
      </trkpt>
      <trkpt lat="42.87297" lon="-0.07772">
        <ele>2230</ele>
        <time>2017-02-26T08:14:54Z</time>
      </trkpt>
      <trkpt lat="42.87296" lon="-0.07779">
        <ele>2230</ele>
        <time>2017-02-26T08:15:00Z</time>
      </trkpt>
      <trkpt lat="42.8729" lon="-0.07792">
        <ele>2233</ele>
        <time>2017-02-26T08:15:12Z</time>
      </trkpt>
      <trkpt lat="42.8729" lon="-0.07795">
        <ele>2234</ele>
        <time>2017-02-26T08:15:17Z</time>
      </trkpt>
      <trkpt lat="42.87289" lon="-0.07798">
        <ele>2235</ele>
        <time>2017-02-26T08:15:21Z</time>
      </trkpt>
      <trkpt lat="42.87288" lon="-0.078">
        <ele>2236</ele>
        <time>2017-02-26T08:15:23Z</time>
      </trkpt>
      <trkpt lat="42.87287" lon="-0.07802">
        <ele>2236</ele>
        <time>2017-02-26T08:15:26Z</time>
      </trkpt>
      <trkpt lat="42.87286" lon="-0.07805">
        <ele>2237</ele>
        <time>2017-02-26T08:15:34Z</time>
      </trkpt>
      <trkpt lat="42.87286" lon="-0.07808">
        <ele>2237</ele>
        <time>2017-02-26T08:15:36Z</time>
      </trkpt>
      <trkpt lat="42.87286" lon="-0.07811">
        <ele>2238</ele>
        <time>2017-02-26T08:15:40Z</time>
      </trkpt>
      <trkpt lat="42.8728" lon="-0.07825">
        <ele>2241</ele>
        <time>2017-02-26T08:15:59Z</time>
      </trkpt>
      <trkpt lat="42.87277" lon="-0.07829">
        <ele>2242</ele>
        <time>2017-02-26T08:16:05Z</time>
      </trkpt>
      <trkpt lat="42.87276" lon="-0.07831">
        <ele>2242</ele>
        <time>2017-02-26T08:16:08Z</time>
      </trkpt>
      <trkpt lat="42.87275" lon="-0.07835">
        <ele>2243</ele>
        <time>2017-02-26T08:16:11Z</time>
      </trkpt>
      <trkpt lat="42.87276" lon="-0.07837">
        <ele>2244</ele>
        <time>2017-02-26T08:16:13Z</time>
      </trkpt>
      <trkpt lat="42.87275" lon="-0.0784">
        <ele>2245</ele>
        <time>2017-02-26T08:16:17Z</time>
      </trkpt>
      <trkpt lat="42.87273" lon="-0.07842">
        <ele>2245</ele>
        <time>2017-02-26T08:16:20Z</time>
      </trkpt>
      <trkpt lat="42.87268" lon="-0.07845">
        <ele>2245</ele>
        <time>2017-02-26T08:16:27Z</time>
      </trkpt>
      <trkpt lat="42.87266" lon="-0.07847">
        <ele>2246</ele>
        <time>2017-02-26T08:16:30Z</time>
      </trkpt>
      <trkpt lat="42.87264" lon="-0.07849">
        <ele>2246</ele>
        <time>2017-02-26T08:16:32Z</time>
      </trkpt>
      <trkpt lat="42.87259" lon="-0.07862">
        <ele>2248</ele>
        <time>2017-02-26T08:16:45Z</time>
      </trkpt>
      <trkpt lat="42.87254" lon="-0.07869">
        <ele>2250</ele>
        <time>2017-02-26T08:16:52Z</time>
      </trkpt>
      <trkpt lat="42.87252" lon="-0.0787">
        <ele>2250</ele>
        <time>2017-02-26T08:16:55Z</time>
      </trkpt>
      <trkpt lat="42.8725" lon="-0.07872">
        <ele>2250</ele>
        <time>2017-02-26T08:16:58Z</time>
      </trkpt>
      <trkpt lat="42.87249" lon="-0.07873">
        <ele>2251</ele>
        <time>2017-02-26T08:17:01Z</time>
      </trkpt>
      <trkpt lat="42.87245" lon="-0.07877">
        <ele>2251</ele>
        <time>2017-02-26T08:17:06Z</time>
      </trkpt>
      <trkpt lat="42.87239" lon="-0.07883">
        <ele>2253</ele>
        <time>2017-02-26T08:17:15Z</time>
      </trkpt>
      <trkpt lat="42.87237" lon="-0.07884">
        <ele>2253</ele>
        <time>2017-02-26T08:17:18Z</time>
      </trkpt>
      <trkpt lat="42.87217" lon="-0.079">
        <ele>2258</ele>
        <time>2017-02-26T08:17:48Z</time>
      </trkpt>
      <trkpt lat="42.87214" lon="-0.07904">
        <ele>2259</ele>
        <time>2017-02-26T08:17:54Z</time>
      </trkpt>
      <trkpt lat="42.87213" lon="-0.07906">
        <ele>2259</ele>
        <time>2017-02-26T08:17:58Z</time>
      </trkpt>
      <trkpt lat="42.87211" lon="-0.07908">
        <ele>2260</ele>
        <time>2017-02-26T08:18:01Z</time>
      </trkpt>
      <trkpt lat="42.8721" lon="-0.0791">
        <ele>2261</ele>
        <time>2017-02-26T08:18:04Z</time>
      </trkpt>
      <trkpt lat="42.87209" lon="-0.07912">
        <ele>2262</ele>
        <time>2017-02-26T08:18:07Z</time>
      </trkpt>
      <trkpt lat="42.87207" lon="-0.07915">
        <ele>2262</ele>
        <time>2017-02-26T08:18:10Z</time>
      </trkpt>
      <trkpt lat="42.87204" lon="-0.07918">
        <ele>2263</ele>
        <time>2017-02-26T08:18:17Z</time>
      </trkpt>
      <trkpt lat="42.87203" lon="-0.0792">
        <ele>2264</ele>
        <time>2017-02-26T08:18:21Z</time>
      </trkpt>
      <trkpt lat="42.87202" lon="-0.07922">
        <ele>2264</ele>
        <time>2017-02-26T08:18:24Z</time>
      </trkpt>
      <trkpt lat="42.872" lon="-0.07925">
        <ele>2264</ele>
        <time>2017-02-26T08:18:28Z</time>
      </trkpt>
      <trkpt lat="42.872" lon="-0.07927">
        <ele>2264</ele>
        <time>2017-02-26T08:18:31Z</time>
      </trkpt>
      <trkpt lat="42.87203" lon="-0.07931">
        <ele>2264</ele>
        <time>2017-02-26T08:18:50Z</time>
      </trkpt>
      <trkpt lat="42.87202" lon="-0.07934">
        <ele>2265</ele>
        <time>2017-02-26T08:18:53Z</time>
      </trkpt>
      <trkpt lat="42.87196" lon="-0.07937">
        <ele>2265</ele>
        <time>2017-02-26T08:18:59Z</time>
      </trkpt>
      <trkpt lat="42.87187" lon="-0.07943">
        <ele>2265</ele>
        <time>2017-02-26T08:19:09Z</time>
      </trkpt>
      <trkpt lat="42.87181" lon="-0.07946">
        <ele>2267</ele>
        <time>2017-02-26T08:19:16Z</time>
      </trkpt>
      <trkpt lat="42.8717" lon="-0.07948">
        <ele>2268</ele>
        <time>2017-02-26T08:19:28Z</time>
      </trkpt>
      <trkpt lat="42.87164" lon="-0.07948">
        <ele>2269</ele>
        <time>2017-02-26T08:19:35Z</time>
      </trkpt>
      <trkpt lat="42.87162" lon="-0.07948">
        <ele>2270</ele>
        <time>2017-02-26T08:19:37Z</time>
      </trkpt>
      <trkpt lat="42.87159" lon="-0.07947">
        <ele>2270</ele>
        <time>2017-02-26T08:19:40Z</time>
      </trkpt>
      <trkpt lat="42.87152" lon="-0.07946">
        <ele>2270</ele>
        <time>2017-02-26T08:19:48Z</time>
      </trkpt>
      <trkpt lat="42.8713" lon="-0.07934">
        <ele>2272</ele>
        <time>2017-02-26T08:20:15Z</time>
      </trkpt>
      <trkpt lat="42.87117" lon="-0.07924">
        <ele>2273</ele>
        <time>2017-02-26T08:20:27Z</time>
      </trkpt>
      <trkpt lat="42.8708" lon="-0.07891">
        <ele>2281</ele>
        <time>2017-02-26T08:21:20Z</time>
      </trkpt>
      <trkpt lat="42.87077" lon="-0.0789">
        <ele>2282</ele>
        <time>2017-02-26T08:21:23Z</time>
      </trkpt>
      <trkpt lat="42.8707" lon="-0.07883">
        <ele>2283</ele>
        <time>2017-02-26T08:21:33Z</time>
      </trkpt>
      <trkpt lat="42.87068" lon="-0.07882">
        <ele>2285</ele>
        <time>2017-02-26T08:21:38Z</time>
      </trkpt>
      <trkpt lat="42.87064" lon="-0.07879">
        <ele>2285</ele>
        <time>2017-02-26T08:21:44Z</time>
      </trkpt>
      <trkpt lat="42.87061" lon="-0.07879">
        <ele>2286</ele>
        <time>2017-02-26T08:21:47Z</time>
      </trkpt>
      <trkpt lat="42.87059" lon="-0.07878">
        <ele>2286</ele>
        <time>2017-02-26T08:21:50Z</time>
      </trkpt>
      <trkpt lat="42.87055" lon="-0.07879">
        <ele>2288</ele>
        <time>2017-02-26T08:22:04Z</time>
      </trkpt>
      <trkpt lat="42.87048" lon="-0.0788">
        <ele>2290</ele>
        <time>2017-02-26T08:22:16Z</time>
      </trkpt>
      <trkpt lat="42.87044" lon="-0.07881">
        <ele>2292</ele>
        <time>2017-02-26T08:22:23Z</time>
      </trkpt>
      <trkpt lat="42.87042" lon="-0.07881">
        <ele>2293</ele>
        <time>2017-02-26T08:22:27Z</time>
      </trkpt>
      <trkpt lat="42.87038" lon="-0.07879">
        <ele>2294</ele>
        <time>2017-02-26T08:22:32Z</time>
      </trkpt>
      <trkpt lat="42.87032" lon="-0.07867">
        <ele>2298</ele>
        <time>2017-02-26T08:22:51Z</time>
      </trkpt>
      <trkpt lat="42.87031" lon="-0.07863">
        <ele>2299</ele>
        <time>2017-02-26T08:22:58Z</time>
      </trkpt>
      <trkpt lat="42.87028" lon="-0.07858">
        <ele>2299</ele>
        <time>2017-02-26T08:23:04Z</time>
      </trkpt>
      <trkpt lat="42.87028" lon="-0.07858">
        <ele>2300</ele>
        <time>2017-02-26T08:23:05Z</time>
      </trkpt>
      <trkpt lat="42.87027" lon="-0.07857">
        <ele>2300</ele>
        <time>2017-02-26T08:23:06Z</time>
      </trkpt>
      <trkpt lat="42.87027" lon="-0.07856">
        <ele>2300</ele>
        <time>2017-02-26T08:23:08Z</time>
      </trkpt>
      <trkpt lat="42.87026" lon="-0.07855">
        <ele>2300</ele>
        <time>2017-02-26T08:23:09Z</time>
      </trkpt>
      <trkpt lat="42.87026" lon="-0.07854">
        <ele>2300</ele>
        <time>2017-02-26T08:23:11Z</time>
      </trkpt>
      <trkpt lat="42.87025" lon="-0.07853">
        <ele>2300</ele>
        <time>2017-02-26T08:23:12Z</time>
      </trkpt>
      <trkpt lat="42.87025" lon="-0.07852">
        <ele>2301</ele>
        <time>2017-02-26T08:23:14Z</time>
      </trkpt>
      <trkpt lat="42.87024" lon="-0.07852">
        <ele>2301</ele>
        <time>2017-02-26T08:23:15Z</time>
      </trkpt>
      <trkpt lat="42.87024" lon="-0.0785">
        <ele>2301</ele>
        <time>2017-02-26T08:23:17Z</time>
      </trkpt>
      <trkpt lat="42.87023" lon="-0.0785">
        <ele>2303</ele>
        <time>2017-02-26T08:23:18Z</time>
      </trkpt>
      <trkpt lat="42.87023" lon="-0.07849">
        <ele>2304</ele>
        <time>2017-02-26T08:23:19Z</time>
      </trkpt>
      <trkpt lat="42.87021" lon="-0.07848">
        <ele>2304</ele>
        <time>2017-02-26T08:23:23Z</time>
      </trkpt>
      <trkpt lat="42.87021" lon="-0.07848">
        <ele>2304</ele>
        <time>2017-02-26T08:23:24Z</time>
      </trkpt>
      <trkpt lat="42.87019" lon="-0.07849">
        <ele>2305</ele>
        <time>2017-02-26T08:23:28Z</time>
      </trkpt>
      <trkpt lat="42.87018" lon="-0.07849">
        <ele>2305</ele>
        <time>2017-02-26T08:23:29Z</time>
      </trkpt>
      <trkpt lat="42.87017" lon="-0.07849">
        <ele>2305</ele>
        <time>2017-02-26T08:23:31Z</time>
      </trkpt>
      <trkpt lat="42.87017" lon="-0.07849">
        <ele>2305</ele>
        <time>2017-02-26T08:23:32Z</time>
      </trkpt>
      <trkpt lat="42.87007" lon="-0.07849">
        <ele>2307</ele>
        <time>2017-02-26T08:23:49Z</time>
      </trkpt>
      <trkpt lat="42.87005" lon="-0.07852">
        <ele>2307</ele>
        <time>2017-02-26T08:23:53Z</time>
      </trkpt>
      <trkpt lat="42.87005" lon="-0.07852">
        <ele>2307</ele>
        <time>2017-02-26T08:23:54Z</time>
      </trkpt>
      <trkpt lat="42.87" lon="-0.07851">
        <ele>2310</ele>
        <time>2017-02-26T08:24:02Z</time>
      </trkpt>
      <trkpt lat="42.86998" lon="-0.0785">
        <ele>2311</ele>
        <time>2017-02-26T08:24:14Z</time>
      </trkpt>
      <trkpt lat="42.86994" lon="-0.07842">
        <ele>2314</ele>
        <time>2017-02-26T08:24:27Z</time>
      </trkpt>
      <trkpt lat="42.86992" lon="-0.07841">
        <ele>2316</ele>
        <time>2017-02-26T08:24:32Z</time>
      </trkpt>
      <trkpt lat="42.8699" lon="-0.07842">
        <ele>2316</ele>
        <time>2017-02-26T08:24:35Z</time>
      </trkpt>
      <trkpt lat="42.86986" lon="-0.07843">
        <ele>2316</ele>
        <time>2017-02-26T08:24:41Z</time>
      </trkpt>
      <trkpt lat="42.86985" lon="-0.07844">
        <ele>2317</ele>
        <time>2017-02-26T08:24:44Z</time>
      </trkpt>
      <trkpt lat="42.86981" lon="-0.07847">
        <ele>2318</ele>
        <time>2017-02-26T08:24:50Z</time>
      </trkpt>
      <trkpt lat="42.8698" lon="-0.07849">
        <ele>2318</ele>
        <time>2017-02-26T08:24:53Z</time>
      </trkpt>
      <trkpt lat="42.86978" lon="-0.0785">
        <ele>2319</ele>
        <time>2017-02-26T08:24:56Z</time>
      </trkpt>
      <trkpt lat="42.86974" lon="-0.07852">
        <ele>2321</ele>
        <time>2017-02-26T08:25:03Z</time>
      </trkpt>
      <trkpt lat="42.86972" lon="-0.07852">
        <ele>2322</ele>
        <time>2017-02-26T08:25:07Z</time>
      </trkpt>
      <trkpt lat="42.8697" lon="-0.0785">
        <ele>2323</ele>
        <time>2017-02-26T08:25:12Z</time>
      </trkpt>
      <trkpt lat="42.86969" lon="-0.07847">
        <ele>2323</ele>
        <time>2017-02-26T08:25:14Z</time>
      </trkpt>
      <trkpt lat="42.86968" lon="-0.07845">
        <ele>2324</ele>
        <time>2017-02-26T08:25:17Z</time>
      </trkpt>
      <trkpt lat="42.86966" lon="-0.07844">
        <ele>2325</ele>
        <time>2017-02-26T08:25:20Z</time>
      </trkpt>
      <trkpt lat="42.86964" lon="-0.07846">
        <ele>2326</ele>
        <time>2017-02-26T08:25:24Z</time>
      </trkpt>
      <trkpt lat="42.86962" lon="-0.07848">
        <ele>2327</ele>
        <time>2017-02-26T08:25:27Z</time>
      </trkpt>
      <trkpt lat="42.86961" lon="-0.07849">
        <ele>2327</ele>
        <time>2017-02-26T08:25:31Z</time>
      </trkpt>
      <trkpt lat="42.86959" lon="-0.07852">
        <ele>2327</ele>
        <time>2017-02-26T08:25:35Z</time>
      </trkpt>
      <trkpt lat="42.86958" lon="-0.07854">
        <ele>2329</ele>
        <time>2017-02-26T08:25:39Z</time>
      </trkpt>
      <trkpt lat="42.86957" lon="-0.07856">
        <ele>2330</ele>
        <time>2017-02-26T08:25:46Z</time>
      </trkpt>
      <trkpt lat="42.86956" lon="-0.07859">
        <ele>2330</ele>
        <time>2017-02-26T08:25:50Z</time>
      </trkpt>
      <trkpt lat="42.86955" lon="-0.07861">
        <ele>2331</ele>
        <time>2017-02-26T08:25:55Z</time>
      </trkpt>
      <trkpt lat="42.86953" lon="-0.07859">
        <ele>2332</ele>
        <time>2017-02-26T08:25:59Z</time>
      </trkpt>
      <trkpt lat="42.8695" lon="-0.07856">
        <ele>2332</ele>
        <time>2017-02-26T08:26:05Z</time>
      </trkpt>
      <trkpt lat="42.86947" lon="-0.07852">
        <ele>2334</ele>
        <time>2017-02-26T08:26:12Z</time>
      </trkpt>
      <trkpt lat="42.86945" lon="-0.07847">
        <ele>2335</ele>
        <time>2017-02-26T08:26:20Z</time>
      </trkpt>
      <trkpt lat="42.86943" lon="-0.07847">
        <ele>2336</ele>
        <time>2017-02-26T08:26:23Z</time>
      </trkpt>
      <trkpt lat="42.86942" lon="-0.07848">
        <ele>2336</ele>
        <time>2017-02-26T08:26:26Z</time>
      </trkpt>
      <trkpt lat="42.86938" lon="-0.07854">
        <ele>2338</ele>
        <time>2017-02-26T08:26:35Z</time>
      </trkpt>
      <trkpt lat="42.86936" lon="-0.07857">
        <ele>2338</ele>
        <time>2017-02-26T08:26:39Z</time>
      </trkpt>
      <trkpt lat="42.86935" lon="-0.07859">
        <ele>2339</ele>
        <time>2017-02-26T08:26:42Z</time>
      </trkpt>
      <trkpt lat="42.86934" lon="-0.07861">
        <ele>2339</ele>
        <time>2017-02-26T08:26:45Z</time>
      </trkpt>
      <trkpt lat="42.86932" lon="-0.07862">
        <ele>2340</ele>
        <time>2017-02-26T08:26:48Z</time>
      </trkpt>
      <trkpt lat="42.86931" lon="-0.07865">
        <ele>2340</ele>
        <time>2017-02-26T08:26:52Z</time>
      </trkpt>
      <trkpt lat="42.86931" lon="-0.07867">
        <ele>2341</ele>
        <time>2017-02-26T08:26:57Z</time>
      </trkpt>
      <trkpt lat="42.86929" lon="-0.0787">
        <ele>2342</ele>
        <time>2017-02-26T08:27:01Z</time>
      </trkpt>
      <trkpt lat="42.86922" lon="-0.07911">
        <ele>2351</ele>
        <time>2017-02-26T08:27:51Z</time>
      </trkpt>
      <trkpt lat="42.86921" lon="-0.07914">
        <ele>2352</ele>
        <time>2017-02-26T08:27:54Z</time>
      </trkpt>
      <trkpt lat="42.86921" lon="-0.07917">
        <ele>2352</ele>
        <time>2017-02-26T08:27:58Z</time>
      </trkpt>
      <trkpt lat="42.8692" lon="-0.0792">
        <ele>2353</ele>
        <time>2017-02-26T08:28:02Z</time>
      </trkpt>
      <trkpt lat="42.86919" lon="-0.0793">
        <ele>2357</ele>
        <time>2017-02-26T08:28:14Z</time>
      </trkpt>
      <trkpt lat="42.86919" lon="-0.07949">
        <ele>2359</ele>
        <time>2017-02-26T08:28:32Z</time>
      </trkpt>
      <trkpt lat="42.86919" lon="-0.07952">
        <ele>2360</ele>
        <time>2017-02-26T08:28:36Z</time>
      </trkpt>
      <trkpt lat="42.8692" lon="-0.07955">
        <ele>2360</ele>
        <time>2017-02-26T08:28:39Z</time>
      </trkpt>
      <trkpt lat="42.86919" lon="-0.07969">
        <ele>2363</ele>
        <time>2017-02-26T08:28:57Z</time>
      </trkpt>
      <trkpt lat="42.86918" lon="-0.07975">
        <ele>2365</ele>
        <time>2017-02-26T08:29:04Z</time>
      </trkpt>
      <trkpt lat="42.86918" lon="-0.07981">
        <ele>2365</ele>
        <time>2017-02-26T08:29:12Z</time>
      </trkpt>
      <trkpt lat="42.86912" lon="-0.08003">
        <ele>2371</ele>
        <time>2017-02-26T08:29:41Z</time>
      </trkpt>
      <trkpt lat="42.86911" lon="-0.08009">
        <ele>2372</ele>
        <time>2017-02-26T08:29:49Z</time>
      </trkpt>
      <trkpt lat="42.8691" lon="-0.08018">
        <ele>2374</ele>
        <time>2017-02-26T08:30:00Z</time>
      </trkpt>
      <trkpt lat="42.8691" lon="-0.08021">
        <ele>2374</ele>
        <time>2017-02-26T08:30:03Z</time>
      </trkpt>
      <trkpt lat="42.8691" lon="-0.08023">
        <ele>2375</ele>
        <time>2017-02-26T08:30:06Z</time>
      </trkpt>
      <trkpt lat="42.8691" lon="-0.08026">
        <ele>2375</ele>
        <time>2017-02-26T08:30:09Z</time>
      </trkpt>
      <trkpt lat="42.8691" lon="-0.08029">
        <ele>2376</ele>
        <time>2017-02-26T08:30:12Z</time>
      </trkpt>
      <trkpt lat="42.86911" lon="-0.08032">
        <ele>2377</ele>
        <time>2017-02-26T08:30:15Z</time>
      </trkpt>
      <trkpt lat="42.86911" lon="-0.08035">
        <ele>2377</ele>
        <time>2017-02-26T08:30:18Z</time>
      </trkpt>
      <trkpt lat="42.86911" lon="-0.08047">
        <ele>2378</ele>
        <time>2017-02-26T08:30:31Z</time>
      </trkpt>
      <trkpt lat="42.8691" lon="-0.08049">
        <ele>2378</ele>
        <time>2017-02-26T08:30:45Z</time>
      </trkpt>
      <trkpt lat="42.86908" lon="-0.08075">
        <ele>2383</ele>
        <time>2017-02-26T08:32:40Z</time>
      </trkpt>
      <trkpt lat="42.869" lon="-0.08102">
        <ele>2391</ele>
        <time>2017-02-26T08:33:15Z</time>
      </trkpt>
      <trkpt lat="42.86897" lon="-0.08113">
        <ele>2392</ele>
        <time>2017-02-26T08:33:28Z</time>
      </trkpt>
      <trkpt lat="42.86898" lon="-0.08119">
        <ele>2393</ele>
        <time>2017-02-26T08:33:41Z</time>
      </trkpt>
      <trkpt lat="42.86897" lon="-0.08121">
        <ele>2393</ele>
        <time>2017-02-26T08:33:45Z</time>
      </trkpt>
      <trkpt lat="42.86897" lon="-0.08119">
        <ele>2393</ele>
        <time>2017-02-26T08:34:49Z</time>
      </trkpt>
      <trkpt lat="42.86894" lon="-0.08119">
        <ele>2394</ele>
        <time>2017-02-26T08:35:15Z</time>
      </trkpt>
      <trkpt lat="42.86895" lon="-0.08117">
        <ele>2393</ele>
        <time>2017-02-26T08:35:56Z</time>
      </trkpt>
      <trkpt lat="42.86896" lon="-0.08119">
        <ele>2394</ele>
        <time>2017-02-26T08:36:07Z</time>
      </trkpt>
      <trkpt lat="42.86896" lon="-0.08116">
        <ele>2394</ele>
        <time>2017-02-26T08:36:35Z</time>
      </trkpt>
      <trkpt lat="42.86894" lon="-0.08117">
        <ele>2394</ele>
        <time>2017-02-26T08:37:10Z</time>
      </trkpt>
      <trkpt lat="42.86895" lon="-0.08114">
        <ele>2394</ele>
        <time>2017-02-26T08:37:19Z</time>
      </trkpt>
      <trkpt lat="42.86895" lon="-0.08111">
        <ele>2395</ele>
        <time>2017-02-26T08:37:31Z</time>
      </trkpt>
      <trkpt lat="42.86895" lon="-0.08111">
        <ele>2395</ele>
        <time>2017-02-26T08:37:33Z</time>
      </trkpt>
      <trkpt lat="42.86895" lon="-0.08111">
        <ele>2395</ele>
        <time>2017-02-26T08:37:34Z</time>
      </trkpt>
      <trkpt lat="42.86896" lon="-0.08113">
        <ele>2395</ele>
        <time>2017-02-26T08:37:36Z</time>
      </trkpt>
      <trkpt lat="42.86896" lon="-0.08113">
        <ele>2394</ele>
        <time>2017-02-26T08:37:37Z</time>
      </trkpt>
      <trkpt lat="42.86896" lon="-0.08114">
        <ele>2394</ele>
        <time>2017-02-26T08:37:39Z</time>
      </trkpt>
      <trkpt lat="42.86896" lon="-0.08115">
        <ele>2394</ele>
        <time>2017-02-26T08:37:40Z</time>
      </trkpt>
      <trkpt lat="42.86897" lon="-0.08115">
        <ele>2394</ele>
        <time>2017-02-26T08:37:41Z</time>
      </trkpt>
      <trkpt lat="42.86895" lon="-0.08116">
        <ele>2394</ele>
        <time>2017-02-26T08:37:48Z</time>
      </trkpt>
      <trkpt lat="42.86893" lon="-0.08116">
        <ele>2393</ele>
        <time>2017-02-26T08:37:56Z</time>
      </trkpt>
      <trkpt lat="42.86896" lon="-0.08117">
        <ele>2394</ele>
        <time>2017-02-26T08:38:05Z</time>
      </trkpt>
      <trkpt lat="42.86898" lon="-0.08119">
        <ele>2394</ele>
        <time>2017-02-26T08:38:07Z</time>
      </trkpt>
      <trkpt lat="42.86896" lon="-0.08118">
        <ele>2395</ele>
        <time>2017-02-26T08:38:19Z</time>
      </trkpt>
      <trkpt lat="42.86892" lon="-0.08115">
        <ele>2394</ele>
        <time>2017-02-26T08:38:34Z</time>
      </trkpt>
      <trkpt lat="42.8689" lon="-0.08115">
        <ele>2394</ele>
        <time>2017-02-26T08:38:38Z</time>
      </trkpt>
      <trkpt lat="42.86889" lon="-0.08117">
        <ele>2395</ele>
        <time>2017-02-26T08:38:43Z</time>
      </trkpt>
      <trkpt lat="42.86889" lon="-0.08114">
        <ele>2395</ele>
        <time>2017-02-26T08:38:48Z</time>
      </trkpt>
      <trkpt lat="42.86887" lon="-0.08113">
        <ele>2395</ele>
        <time>2017-02-26T08:39:08Z</time>
      </trkpt>
      <trkpt lat="42.86885" lon="-0.08112">
        <ele>2396</ele>
        <time>2017-02-26T08:39:13Z</time>
      </trkpt>
      <trkpt lat="42.86883" lon="-0.08107">
        <ele>2397</ele>
        <time>2017-02-26T08:39:36Z</time>
      </trkpt>
      <trkpt lat="42.86882" lon="-0.08106">
        <ele>2397</ele>
        <time>2017-02-26T08:39:49Z</time>
      </trkpt>
      <trkpt lat="42.8688" lon="-0.08105">
        <ele>2398</ele>
        <time>2017-02-26T08:39:54Z</time>
      </trkpt>
      <trkpt lat="42.86879" lon="-0.08102">
        <ele>2398</ele>
        <time>2017-02-26T08:41:20Z</time>
      </trkpt>
      <trkpt lat="42.86878" lon="-0.081">
        <ele>2398</ele>
        <time>2017-02-26T08:42:24Z</time>
      </trkpt>
      <trkpt lat="42.86877" lon="-0.08098">
        <ele>2398</ele>
        <time>2017-02-26T08:42:29Z</time>
      </trkpt>
      <trkpt lat="42.86876" lon="-0.081">
        <ele>2398</ele>
        <time>2017-02-26T08:42:39Z</time>
      </trkpt>
      <trkpt lat="42.86875" lon="-0.08103">
        <ele>2399</ele>
        <time>2017-02-26T08:42:52Z</time>
      </trkpt>
      <trkpt lat="42.86874" lon="-0.08105">
        <ele>2399</ele>
        <time>2017-02-26T08:42:55Z</time>
      </trkpt>
      <trkpt lat="42.86873" lon="-0.08102">
        <ele>2399</ele>
        <time>2017-02-26T08:43:10Z</time>
      </trkpt>
      <trkpt lat="42.86871" lon="-0.08101">
        <ele>2399</ele>
        <time>2017-02-26T08:43:19Z</time>
      </trkpt>
      <trkpt lat="42.86872" lon="-0.08099">
        <ele>2399</ele>
        <time>2017-02-26T08:44:05Z</time>
      </trkpt>
      <trkpt lat="42.86872" lon="-0.081">
        <ele>2398</ele>
        <time>2017-02-26T08:44:15Z</time>
      </trkpt>
      <trkpt lat="42.86872" lon="-0.08105">
        <ele>2399</ele>
        <time>2017-02-26T08:44:46Z</time>
      </trkpt>
      <trkpt lat="42.86872" lon="-0.08106">
        <ele>2400</ele>
        <time>2017-02-26T08:44:56Z</time>
      </trkpt>
      <trkpt lat="42.86874" lon="-0.0811">
        <ele>2400</ele>
        <time>2017-02-26T08:45:04Z</time>
      </trkpt>
      <trkpt lat="42.86874" lon="-0.08109">
        <ele>2399</ele>
        <time>2017-02-26T08:45:05Z</time>
      </trkpt>
      <trkpt lat="42.86873" lon="-0.08109">
        <ele>2399</ele>
        <time>2017-02-26T08:45:06Z</time>
      </trkpt>
      <trkpt lat="42.86873" lon="-0.08109">
        <ele>2399</ele>
        <time>2017-02-26T08:45:07Z</time>
      </trkpt>
      <trkpt lat="42.86873" lon="-0.08109">
        <ele>2399</ele>
        <time>2017-02-26T08:45:08Z</time>
      </trkpt>
      <trkpt lat="42.86873" lon="-0.08108">
        <ele>2399</ele>
        <time>2017-02-26T08:45:09Z</time>
      </trkpt>
      <trkpt lat="42.86873" lon="-0.08108">
        <ele>2399</ele>
        <time>2017-02-26T08:45:10Z</time>
      </trkpt>
      <trkpt lat="42.86873" lon="-0.08108">
        <ele>2399</ele>
        <time>2017-02-26T08:45:11Z</time>
      </trkpt>
      <trkpt lat="42.86873" lon="-0.08108">
        <ele>2399</ele>
        <time>2017-02-26T08:45:12Z</time>
      </trkpt>
      <trkpt lat="42.86873" lon="-0.08107">
        <ele>2399</ele>
        <time>2017-02-26T08:45:13Z</time>
      </trkpt>
      <trkpt lat="42.86873" lon="-0.08107">
        <ele>2399</ele>
        <time>2017-02-26T08:45:14Z</time>
      </trkpt>
      <trkpt lat="42.86873" lon="-0.08107">
        <ele>2399</ele>
        <time>2017-02-26T08:45:15Z</time>
      </trkpt>
      <trkpt lat="42.86872" lon="-0.08106">
        <ele>2399</ele>
        <time>2017-02-26T08:45:17Z</time>
      </trkpt>
      <trkpt lat="42.86872" lon="-0.08106">
        <ele>2399</ele>
        <time>2017-02-26T08:45:18Z</time>
      </trkpt>
      <trkpt lat="42.86872" lon="-0.08106">
        <ele>2399</ele>
        <time>2017-02-26T08:45:19Z</time>
      </trkpt>
      <trkpt lat="42.86872" lon="-0.08106">
        <ele>2399</ele>
        <time>2017-02-26T08:45:20Z</time>
      </trkpt>
      <trkpt lat="42.86872" lon="-0.08105">
        <ele>2399</ele>
        <time>2017-02-26T08:45:21Z</time>
      </trkpt>
      <trkpt lat="42.86872" lon="-0.08105">
        <ele>2400</ele>
        <time>2017-02-26T08:45:22Z</time>
      </trkpt>
      <trkpt lat="42.86872" lon="-0.08105">
        <ele>2400</ele>
        <time>2017-02-26T08:45:23Z</time>
      </trkpt>
      <trkpt lat="42.86872" lon="-0.08105">
        <ele>2400</ele>
        <time>2017-02-26T08:45:24Z</time>
      </trkpt>
      <trkpt lat="42.86872" lon="-0.08104">
        <ele>2400</ele>
        <time>2017-02-26T08:45:25Z</time>
      </trkpt>
      <trkpt lat="42.86872" lon="-0.08104">
        <ele>2400</ele>
        <time>2017-02-26T08:45:26Z</time>
      </trkpt>
      <trkpt lat="42.86871" lon="-0.08104">
        <ele>2400</ele>
        <time>2017-02-26T08:45:27Z</time>
      </trkpt>
      <trkpt lat="42.86873" lon="-0.08106">
        <ele>2401</ele>
        <time>2017-02-26T08:45:40Z</time>
      </trkpt>
      <trkpt lat="42.86873" lon="-0.08106">
        <ele>2401</ele>
        <time>2017-02-26T08:45:47Z</time>
      </trkpt>
      <trkpt lat="42.86874" lon="-0.08101">
        <ele>2401</ele>
        <time>2017-02-26T08:47:29Z</time>
      </trkpt>
      <trkpt lat="42.86872" lon="-0.08101">
        <ele>2403</ele>
        <time>2017-02-26T08:49:04Z</time>
      </trkpt>
      <trkpt lat="42.8687" lon="-0.08101">
        <ele>2405</ele>
        <time>2017-02-26T08:49:21Z</time>
      </trkpt>
      <trkpt lat="42.86868" lon="-0.081">
        <ele>2407</ele>
        <time>2017-02-26T08:51:12Z</time>
      </trkpt>
      <trkpt lat="42.86866" lon="-0.08099">
        <ele>2408</ele>
        <time>2017-02-26T08:52:19Z</time>
      </trkpt>
      <trkpt lat="42.86864" lon="-0.08097">
        <ele>2408</ele>
        <time>2017-02-26T08:53:41Z</time>
      </trkpt>
      <trkpt lat="42.86863" lon="-0.08095">
        <ele>2410</ele>
        <time>2017-02-26T08:54:04Z</time>
      </trkpt>
      <trkpt lat="42.86859" lon="-0.08089">
        <ele>2412</ele>
        <time>2017-02-26T08:54:35Z</time>
      </trkpt>
      <trkpt lat="42.86857" lon="-0.08088">
        <ele>2413</ele>
        <time>2017-02-26T08:54:58Z</time>
      </trkpt>
      <trkpt lat="42.86856" lon="-0.08086">
        <ele>2414</ele>
        <time>2017-02-26T08:56:03Z</time>
      </trkpt>
      <trkpt lat="42.86855" lon="-0.08084">
        <ele>2414</ele>
        <time>2017-02-26T08:56:08Z</time>
      </trkpt>
      <trkpt lat="42.86853" lon="-0.0808">
        <ele>2415</ele>
        <time>2017-02-26T08:58:22Z</time>
      </trkpt>
      <trkpt lat="42.86851" lon="-0.08078">
        <ele>2416</ele>
        <time>2017-02-26T08:58:29Z</time>
      </trkpt>
      <trkpt lat="42.86848" lon="-0.08074">
        <ele>2418</ele>
        <time>2017-02-26T08:59:11Z</time>
      </trkpt>
      <trkpt lat="42.86848" lon="-0.08071">
        <ele>2419</ele>
        <time>2017-02-26T08:59:41Z</time>
      </trkpt>
      <trkpt lat="42.86848" lon="-0.08068">
        <ele>2420</ele>
        <time>2017-02-26T09:01:07Z</time>
      </trkpt>
      <trkpt lat="42.86845" lon="-0.08064">
        <ele>2422</ele>
        <time>2017-02-26T09:01:19Z</time>
      </trkpt>
      <trkpt lat="42.8684" lon="-0.08061">
        <ele>2424</ele>
        <time>2017-02-26T09:02:26Z</time>
      </trkpt>
      <trkpt lat="42.86836" lon="-0.08062">
        <ele>2429</ele>
        <time>2017-02-26T09:07:13Z</time>
      </trkpt>
      <trkpt lat="42.86834" lon="-0.08062">
        <ele>2431</ele>
        <time>2017-02-26T09:07:41Z</time>
      </trkpt>
      <trkpt lat="42.8683" lon="-0.08061">
        <ele>2435</ele>
        <time>2017-02-26T09:08:51Z</time>
      </trkpt>
      <trkpt lat="42.86823" lon="-0.08061">
        <ele>2441</ele>
        <time>2017-02-26T09:11:20Z</time>
      </trkpt>
      <trkpt lat="42.86819" lon="-0.08061">
        <ele>2444</ele>
        <time>2017-02-26T09:12:08Z</time>
      </trkpt>
      <trkpt lat="42.8682" lon="-0.08059">
        <ele>2446</ele>
        <time>2017-02-26T09:12:53Z</time>
      </trkpt>
      <trkpt lat="42.8682" lon="-0.08056">
        <ele>2446</ele>
        <time>2017-02-26T09:13:07Z</time>
      </trkpt>
      <trkpt lat="42.8682" lon="-0.08059">
        <ele>2446</ele>
        <time>2017-02-26T09:13:49Z</time>
      </trkpt>
      <trkpt lat="42.86818" lon="-0.0806">
        <ele>2449</ele>
        <time>2017-02-26T09:14:16Z</time>
      </trkpt>
      <trkpt lat="42.86816" lon="-0.08059">
        <ele>2451</ele>
        <time>2017-02-26T09:14:27Z</time>
      </trkpt>
      <trkpt lat="42.86815" lon="-0.08058">
        <ele>2453</ele>
        <time>2017-02-26T09:16:12Z</time>
      </trkpt>
      <trkpt lat="42.86812" lon="-0.08057">
        <ele>2453</ele>
        <time>2017-02-26T09:16:26Z</time>
      </trkpt>
      <trkpt lat="42.8681" lon="-0.08055">
        <ele>2453</ele>
        <time>2017-02-26T09:16:32Z</time>
      </trkpt>
      <trkpt lat="42.86809" lon="-0.08056">
        <ele>2457</ele>
        <time>2017-02-26T09:18:34Z</time>
      </trkpt>
      <trkpt lat="42.86807" lon="-0.08057">
        <ele>2459</ele>
        <time>2017-02-26T09:18:47Z</time>
      </trkpt>
      <trkpt lat="42.86805" lon="-0.08057">
        <ele>2460</ele>
        <time>2017-02-26T09:19:12Z</time>
      </trkpt>
      <trkpt lat="42.86803" lon="-0.08058">
        <ele>2461</ele>
        <time>2017-02-26T09:19:52Z</time>
      </trkpt>
      <trkpt lat="42.86802" lon="-0.08059">
        <ele>2464</ele>
        <time>2017-02-26T09:20:18Z</time>
      </trkpt>
      <trkpt lat="42.868" lon="-0.08059">
        <ele>2464</ele>
        <time>2017-02-26T09:20:49Z</time>
      </trkpt>
      <trkpt lat="42.86798" lon="-0.08061">
        <ele>2466</ele>
        <time>2017-02-26T09:20:58Z</time>
      </trkpt>
      <trkpt lat="42.86797" lon="-0.0806">
        <ele>2467</ele>
        <time>2017-02-26T09:21:19Z</time>
      </trkpt>
      <trkpt lat="42.86795" lon="-0.08061">
        <ele>2471</ele>
        <time>2017-02-26T09:23:20Z</time>
      </trkpt>
      <trkpt lat="42.86793" lon="-0.08062">
        <ele>2473</ele>
        <time>2017-02-26T09:23:41Z</time>
      </trkpt>
      <trkpt lat="42.86791" lon="-0.08061">
        <ele>2475</ele>
        <time>2017-02-26T09:23:52Z</time>
      </trkpt>
      <trkpt lat="42.86791" lon="-0.08058">
        <ele>2475</ele>
        <time>2017-02-26T09:24:09Z</time>
      </trkpt>
      <trkpt lat="42.86789" lon="-0.08057">
        <ele>2477</ele>
        <time>2017-02-26T09:24:35Z</time>
      </trkpt>
      <trkpt lat="42.86789" lon="-0.08059">
        <ele>2478</ele>
        <time>2017-02-26T09:24:46Z</time>
      </trkpt>
      <trkpt lat="42.86787" lon="-0.08058">
        <ele>2479</ele>
        <time>2017-02-26T09:24:53Z</time>
      </trkpt>
      <trkpt lat="42.86786" lon="-0.08053">
        <ele>2479</ele>
        <time>2017-02-26T09:25:16Z</time>
      </trkpt>
      <trkpt lat="42.86784" lon="-0.08052">
        <ele>2479</ele>
        <time>2017-02-26T09:25:26Z</time>
      </trkpt>
      <trkpt lat="42.86782" lon="-0.08054">
        <ele>2480</ele>
        <time>2017-02-26T09:25:33Z</time>
      </trkpt>
      <trkpt lat="42.86781" lon="-0.08057">
        <ele>2481</ele>
        <time>2017-02-26T09:25:39Z</time>
      </trkpt>
      <trkpt lat="42.86781" lon="-0.0806">
        <ele>2481</ele>
        <time>2017-02-26T09:25:41Z</time>
      </trkpt>
      <trkpt lat="42.86783" lon="-0.08066">
        <ele>2481</ele>
        <time>2017-02-26T09:25:50Z</time>
      </trkpt>
      <trkpt lat="42.86782" lon="-0.08063">
        <ele>2481</ele>
        <time>2017-02-26T09:25:58Z</time>
      </trkpt>
      <trkpt lat="42.8678" lon="-0.08062">
        <ele>2482</ele>
        <time>2017-02-26T09:26:02Z</time>
      </trkpt>
      <trkpt lat="42.86779" lon="-0.08059">
        <ele>2483</ele>
        <time>2017-02-26T09:26:14Z</time>
      </trkpt>
      <trkpt lat="42.86778" lon="-0.08057">
        <ele>2483</ele>
        <time>2017-02-26T09:26:26Z</time>
      </trkpt>
      <trkpt lat="42.86778" lon="-0.08054">
        <ele>2484</ele>
        <time>2017-02-26T09:26:37Z</time>
      </trkpt>
      <trkpt lat="42.86778" lon="-0.08051">
        <ele>2484</ele>
        <time>2017-02-26T09:26:48Z</time>
      </trkpt>
      <trkpt lat="42.86777" lon="-0.08048">
        <ele>2484</ele>
        <time>2017-02-26T09:26:53Z</time>
      </trkpt>
      <trkpt lat="42.86775" lon="-0.0805">
        <ele>2485</ele>
        <time>2017-02-26T09:27:02Z</time>
      </trkpt>
      <trkpt lat="42.86776" lon="-0.08053">
        <ele>2485</ele>
        <time>2017-02-26T09:27:05Z</time>
      </trkpt>
      <trkpt lat="42.86777" lon="-0.08055">
        <ele>2485</ele>
        <time>2017-02-26T09:27:13Z</time>
      </trkpt>
      <trkpt lat="42.86776" lon="-0.08051">
        <ele>2485</ele>
        <time>2017-02-26T09:27:30Z</time>
      </trkpt>
      <trkpt lat="42.86777" lon="-0.08056">
        <ele>2485</ele>
        <time>2017-02-26T09:27:40Z</time>
      </trkpt>
      <trkpt lat="42.86775" lon="-0.08057">
        <ele>2488</ele>
        <time>2017-02-26T09:27:46Z</time>
      </trkpt>
      <trkpt lat="42.86775" lon="-0.0806">
        <ele>2488</ele>
        <time>2017-02-26T09:27:52Z</time>
      </trkpt>
      <trkpt lat="42.86774" lon="-0.08057">
        <ele>2489</ele>
        <time>2017-02-26T09:28:01Z</time>
      </trkpt>
      <trkpt lat="42.86773" lon="-0.08055">
        <ele>2489</ele>
        <time>2017-02-26T09:28:06Z</time>
      </trkpt>
      <trkpt lat="42.86771" lon="-0.08058">
        <ele>2490</ele>
        <time>2017-02-26T09:28:13Z</time>
      </trkpt>
      <trkpt lat="42.86771" lon="-0.08061">
        <ele>2491</ele>
        <time>2017-02-26T09:28:16Z</time>
      </trkpt>
      <trkpt lat="42.86769" lon="-0.0806">
        <ele>2491</ele>
        <time>2017-02-26T09:28:23Z</time>
      </trkpt>
      <trkpt lat="42.8677" lon="-0.08062">
        <ele>2492</ele>
        <time>2017-02-26T09:28:26Z</time>
      </trkpt>
      <trkpt lat="42.86767" lon="-0.08064">
        <ele>2494</ele>
        <time>2017-02-26T09:28:34Z</time>
      </trkpt>
      <trkpt lat="42.86769" lon="-0.08061">
        <ele>2495</ele>
        <time>2017-02-26T09:28:45Z</time>
      </trkpt>
      <trkpt lat="42.8677" lon="-0.08057">
        <ele>2497</ele>
        <time>2017-02-26T09:28:52Z</time>
      </trkpt>
      <trkpt lat="42.86772" lon="-0.08057">
        <ele>2497</ele>
        <time>2017-02-26T09:29:02Z</time>
      </trkpt>
      <trkpt lat="42.86771" lon="-0.08056">
        <ele>2500</ele>
        <time>2017-02-26T09:29:30Z</time>
      </trkpt>
      <trkpt lat="42.86769" lon="-0.08056">
        <ele>2502</ele>
        <time>2017-02-26T09:30:00Z</time>
      </trkpt>
      <trkpt lat="42.86767" lon="-0.08058">
        <ele>2503</ele>
        <time>2017-02-26T09:30:14Z</time>
      </trkpt>
      <trkpt lat="42.86766" lon="-0.08062">
        <ele>2503</ele>
        <time>2017-02-26T09:32:17Z</time>
      </trkpt>
      <trkpt lat="42.86767" lon="-0.0806">
        <ele>2501</ele>
        <time>2017-02-26T09:32:26Z</time>
      </trkpt>
      <trkpt lat="42.86768" lon="-0.08059">
        <ele>2505</ele>
        <time>2017-02-26T09:34:01Z</time>
      </trkpt>
      <trkpt lat="42.86767" lon="-0.08058">
        <ele>2505</ele>
        <time>2017-02-26T09:34:16Z</time>
      </trkpt>
      <trkpt lat="42.86769" lon="-0.08057">
        <ele>2507</ele>
        <time>2017-02-26T09:35:20Z</time>
      </trkpt>
      <trkpt lat="42.86767" lon="-0.08058">
        <ele>2507</ele>
        <time>2017-02-26T09:35:41Z</time>
      </trkpt>
      <trkpt lat="42.86765" lon="-0.0806">
        <ele>2509</ele>
        <time>2017-02-26T09:35:59Z</time>
      </trkpt>
      <trkpt lat="42.86762" lon="-0.08059">
        <ele>2511</ele>
        <time>2017-02-26T09:36:08Z</time>
      </trkpt>
      <trkpt lat="42.86762" lon="-0.08062">
        <ele>2512</ele>
        <time>2017-02-26T09:36:30Z</time>
      </trkpt>
      <trkpt lat="42.86761" lon="-0.08061">
        <ele>2513</ele>
        <time>2017-02-26T09:37:00Z</time>
      </trkpt>
      <trkpt lat="42.86759" lon="-0.08062">
        <ele>2515</ele>
        <time>2017-02-26T09:37:13Z</time>
      </trkpt>
      <trkpt lat="42.86757" lon="-0.08061">
        <ele>2516</ele>
        <time>2017-02-26T09:37:30Z</time>
      </trkpt>
      <trkpt lat="42.86755" lon="-0.0806">
        <ele>2518</ele>
        <time>2017-02-26T09:37:42Z</time>
      </trkpt>
      <trkpt lat="42.86754" lon="-0.08058">
        <ele>2519</ele>
        <time>2017-02-26T09:38:06Z</time>
      </trkpt>
      <trkpt lat="42.86753" lon="-0.08056">
        <ele>2521</ele>
        <time>2017-02-26T09:38:36Z</time>
      </trkpt>
      <trkpt lat="42.86753" lon="-0.08053">
        <ele>2523</ele>
        <time>2017-02-26T09:39:02Z</time>
      </trkpt>
      <trkpt lat="42.86752" lon="-0.08052">
        <ele>2526</ele>
        <time>2017-02-26T09:39:25Z</time>
      </trkpt>
      <trkpt lat="42.86751" lon="-0.0805">
        <ele>2527</ele>
        <time>2017-02-26T09:39:35Z</time>
      </trkpt>
      <trkpt lat="42.86749" lon="-0.08048">
        <ele>2527</ele>
        <time>2017-02-26T09:40:06Z</time>
      </trkpt>
      <trkpt lat="42.86747" lon="-0.08048">
        <ele>2528</ele>
        <time>2017-02-26T09:40:11Z</time>
      </trkpt>
      <trkpt lat="42.86745" lon="-0.08046">
        <ele>2529</ele>
        <time>2017-02-26T09:40:16Z</time>
      </trkpt>
      <trkpt lat="42.86747" lon="-0.08044">
        <ele>2530</ele>
        <time>2017-02-26T09:40:25Z</time>
      </trkpt>
      <trkpt lat="42.86747" lon="-0.08041">
        <ele>2531</ele>
        <time>2017-02-26T09:40:30Z</time>
      </trkpt>
      <trkpt lat="42.86746" lon="-0.08039">
        <ele>2532</ele>
        <time>2017-02-26T09:40:35Z</time>
      </trkpt>
      <trkpt lat="42.86745" lon="-0.08037">
        <ele>2532</ele>
        <time>2017-02-26T09:40:40Z</time>
      </trkpt>
      <trkpt lat="42.86743" lon="-0.08038">
        <ele>2533</ele>
        <time>2017-02-26T09:40:44Z</time>
      </trkpt>
      <trkpt lat="42.86741" lon="-0.08037">
        <ele>2534</ele>
        <time>2017-02-26T09:40:49Z</time>
      </trkpt>
      <trkpt lat="42.86738" lon="-0.08036">
        <ele>2534</ele>
        <time>2017-02-26T09:40:54Z</time>
      </trkpt>
      <trkpt lat="42.86736" lon="-0.08037">
        <ele>2535</ele>
        <time>2017-02-26T09:40:59Z</time>
      </trkpt>
      <trkpt lat="42.86733" lon="-0.08034">
        <ele>2537</ele>
        <time>2017-02-26T09:41:17Z</time>
      </trkpt>
      <trkpt lat="42.86731" lon="-0.08033">
        <ele>2537</ele>
        <time>2017-02-26T09:41:24Z</time>
      </trkpt>
      <trkpt lat="42.86729" lon="-0.08032">
        <ele>2539</ele>
        <time>2017-02-26T09:41:28Z</time>
      </trkpt>
      <trkpt lat="42.86727" lon="-0.08032">
        <ele>2539</ele>
        <time>2017-02-26T09:41:32Z</time>
      </trkpt>
      <trkpt lat="42.86725" lon="-0.08032">
        <ele>2541</ele>
        <time>2017-02-26T09:41:39Z</time>
      </trkpt>
      <trkpt lat="42.86723" lon="-0.08032">
        <ele>2541</ele>
        <time>2017-02-26T09:41:43Z</time>
      </trkpt>
      <trkpt lat="42.86721" lon="-0.08031">
        <ele>2542</ele>
        <time>2017-02-26T09:41:48Z</time>
      </trkpt>
      <trkpt lat="42.86719" lon="-0.08032">
        <ele>2543</ele>
        <time>2017-02-26T09:41:51Z</time>
      </trkpt>
      <trkpt lat="42.86718" lon="-0.08034">
        <ele>2544</ele>
        <time>2017-02-26T09:41:57Z</time>
      </trkpt>
      <trkpt lat="42.86716" lon="-0.08032">
        <ele>2544</ele>
        <time>2017-02-26T09:42:07Z</time>
      </trkpt>
      <trkpt lat="42.86715" lon="-0.0803">
        <ele>2544</ele>
        <time>2017-02-26T09:42:12Z</time>
      </trkpt>
      <trkpt lat="42.86714" lon="-0.08029">
        <ele>2546</ele>
        <time>2017-02-26T09:42:57Z</time>
      </trkpt>
      <trkpt lat="42.86712" lon="-0.08029">
        <ele>2546</ele>
        <time>2017-02-26T09:43:02Z</time>
      </trkpt>
      <trkpt lat="42.8671" lon="-0.08027">
        <ele>2545</ele>
        <time>2017-02-26T09:43:07Z</time>
      </trkpt>
      <trkpt lat="42.86709" lon="-0.08025">
        <ele>2545</ele>
        <time>2017-02-26T09:43:12Z</time>
      </trkpt>
      <trkpt lat="42.86706" lon="-0.08023">
        <ele>2545</ele>
        <time>2017-02-26T09:43:15Z</time>
      </trkpt>
      <trkpt lat="42.86704" lon="-0.08022">
        <ele>2545</ele>
        <time>2017-02-26T09:43:17Z</time>
      </trkpt>
      <trkpt lat="42.86702" lon="-0.08022">
        <ele>2546</ele>
        <time>2017-02-26T09:43:20Z</time>
      </trkpt>
      <trkpt lat="42.86695" lon="-0.08022">
        <ele>2548</ele>
        <time>2017-02-26T09:43:30Z</time>
      </trkpt>
      <trkpt lat="42.86693" lon="-0.08022">
        <ele>2549</ele>
        <time>2017-02-26T09:43:34Z</time>
      </trkpt>
      <trkpt lat="42.86691" lon="-0.08023">
        <ele>2550</ele>
        <time>2017-02-26T09:43:40Z</time>
      </trkpt>
      <trkpt lat="42.86689" lon="-0.08023">
        <ele>2551</ele>
        <time>2017-02-26T09:43:45Z</time>
      </trkpt>
      <trkpt lat="42.86687" lon="-0.08024">
        <ele>2552</ele>
        <time>2017-02-26T09:43:49Z</time>
      </trkpt>
      <trkpt lat="42.86686" lon="-0.08026">
        <ele>2554</ele>
        <time>2017-02-26T09:43:55Z</time>
      </trkpt>
      <trkpt lat="42.86684" lon="-0.08028">
        <ele>2554</ele>
        <time>2017-02-26T09:44:01Z</time>
      </trkpt>
      <trkpt lat="42.86682" lon="-0.08029">
        <ele>2557</ele>
        <time>2017-02-26T09:44:08Z</time>
      </trkpt>
      <trkpt lat="42.8668" lon="-0.0803">
        <ele>2556</ele>
        <time>2017-02-26T09:44:12Z</time>
      </trkpt>
      <trkpt lat="42.86678" lon="-0.0803">
        <ele>2557</ele>
        <time>2017-02-26T09:44:25Z</time>
      </trkpt>
      <trkpt lat="42.86676" lon="-0.08031">
        <ele>2557</ele>
        <time>2017-02-26T09:44:36Z</time>
      </trkpt>
      <trkpt lat="42.86674" lon="-0.0803">
        <ele>2557</ele>
        <time>2017-02-26T09:44:45Z</time>
      </trkpt>
      <trkpt lat="42.8667" lon="-0.0803">
        <ele>2556</ele>
        <time>2017-02-26T09:44:56Z</time>
      </trkpt>
      <trkpt lat="42.86668" lon="-0.08029">
        <ele>2557</ele>
        <time>2017-02-26T09:44:59Z</time>
      </trkpt>
      <trkpt lat="42.86666" lon="-0.08029">
        <ele>2556</ele>
        <time>2017-02-26T09:45:02Z</time>
      </trkpt>
      <trkpt lat="42.86663" lon="-0.0803">
        <ele>2556</ele>
        <time>2017-02-26T09:45:05Z</time>
      </trkpt>
      <trkpt lat="42.86661" lon="-0.08032">
        <ele>2556</ele>
        <time>2017-02-26T09:45:08Z</time>
      </trkpt>
      <trkpt lat="42.86659" lon="-0.08032">
        <ele>2556</ele>
        <time>2017-02-26T09:45:11Z</time>
      </trkpt>
      <trkpt lat="42.86657" lon="-0.08032">
        <ele>2555</ele>
        <time>2017-02-26T09:45:15Z</time>
      </trkpt>
      <trkpt lat="42.86654" lon="-0.08032">
        <ele>2555</ele>
        <time>2017-02-26T09:45:18Z</time>
      </trkpt>
      <trkpt lat="42.86653" lon="-0.08034">
        <ele>2555</ele>
        <time>2017-02-26T09:45:20Z</time>
      </trkpt>
      <trkpt lat="42.86651" lon="-0.08036">
        <ele>2554</ele>
        <time>2017-02-26T09:45:23Z</time>
      </trkpt>
      <trkpt lat="42.86649" lon="-0.08036">
        <ele>2554</ele>
        <time>2017-02-26T09:45:31Z</time>
      </trkpt>
      <trkpt lat="42.86647" lon="-0.08037">
        <ele>2555</ele>
        <time>2017-02-26T09:48:01Z</time>
      </trkpt>
      <trkpt lat="42.86638" lon="-0.08036">
        <ele>2554</ele>
        <time>2017-02-26T09:48:04Z</time>
      </trkpt>
      <trkpt lat="42.86632" lon="-0.08034">
        <ele>2552.4</ele>
        <time>2017-02-26T09:48:06Z</time>
      </trkpt>
      <trkpt lat="42.8663" lon="-0.08033">
        <ele>2552</ele>
        <time>2017-02-26T09:48:07Z</time>
      </trkpt>
      <trkpt lat="42.86629" lon="-0.08026">
        <ele>2545</ele>
        <time>2017-02-26T09:48:09Z</time>
      </trkpt>
      <trkpt lat="42.86628" lon="-0.08023">
        <ele>2542</ele>
        <time>2017-02-26T09:48:10Z</time>
      </trkpt>
      <trkpt lat="42.86625" lon="-0.08018">
        <ele>2542</ele>
        <time>2017-02-26T09:48:11Z</time>
      </trkpt>
      <trkpt lat="42.86622" lon="-0.08011">
        <ele>2540</ele>
        <time>2017-02-26T09:48:13Z</time>
      </trkpt>
      <trkpt lat="42.8662" lon="-0.08002">
        <ele>2535</ele>
        <time>2017-02-26T09:48:15Z</time>
      </trkpt>
      <trkpt lat="42.86618" lon="-0.07998">
        <ele>2532</ele>
        <time>2017-02-26T09:48:16Z</time>
      </trkpt>
      <trkpt lat="42.86617" lon="-0.07993">
        <ele>2530</ele>
        <time>2017-02-26T09:48:17Z</time>
      </trkpt>
      <trkpt lat="42.86617" lon="-0.07989">
        <ele>2529</ele>
        <time>2017-02-26T09:48:18Z</time>
      </trkpt>
      <trkpt lat="42.86616" lon="-0.07985">
        <ele>2526</ele>
        <time>2017-02-26T09:48:19Z</time>
      </trkpt>
      <trkpt lat="42.86614" lon="-0.07975">
        <ele>2520</ele>
        <time>2017-02-26T09:48:21Z</time>
      </trkpt>
      <trkpt lat="42.86609" lon="-0.0797">
        <ele>2517</ele>
        <time>2017-02-26T09:48:23Z</time>
      </trkpt>
      <trkpt lat="42.86581" lon="-0.07963">
        <ele>2512</ele>
        <time>2017-02-26T09:48:26Z</time>
      </trkpt>
      <trkpt lat="42.86573" lon="-0.0796">
        <ele>2507</ele>
        <time>2017-02-26T09:48:28Z</time>
      </trkpt>
      <trkpt lat="42.8656" lon="-0.07953">
        <ele>2504</ele>
        <time>2017-02-26T09:48:30Z</time>
      </trkpt>
      <trkpt lat="42.86549" lon="-0.07943">
        <ele>2499</ele>
        <time>2017-02-26T09:48:32Z</time>
      </trkpt>
      <trkpt lat="42.86534" lon="-0.07934">
        <ele>2496</ele>
        <time>2017-02-26T09:48:34Z</time>
      </trkpt>
      <trkpt lat="42.86525" lon="-0.07925">
        <ele>2493</ele>
        <time>2017-02-26T09:48:36Z</time>
      </trkpt>
      <trkpt lat="42.86512" lon="-0.07918">
        <ele>2491</ele>
        <time>2017-02-26T09:48:37Z</time>
      </trkpt>
      <trkpt lat="42.86506" lon="-0.07908">
        <ele>2484</ele>
        <time>2017-02-26T09:48:40Z</time>
      </trkpt>
      <trkpt lat="42.865" lon="-0.07894">
        <ele>2482</ele>
        <time>2017-02-26T09:48:41Z</time>
      </trkpt>
      <trkpt lat="42.86493" lon="-0.07887">
        <ele>2480</ele>
        <time>2017-02-26T09:48:42Z</time>
      </trkpt>
      <trkpt lat="42.86477" lon="-0.07874">
        <ele>2475</ele>
        <time>2017-02-26T09:48:44Z</time>
      </trkpt>
      <trkpt lat="42.86472" lon="-0.07868">
        <ele>2472</ele>
        <time>2017-02-26T09:48:46Z</time>
      </trkpt>
      <trkpt lat="42.86464" lon="-0.07854">
        <ele>2471</ele>
        <time>2017-02-26T09:48:47Z</time>
      </trkpt>
      <trkpt lat="42.86459" lon="-0.07848">
        <ele>2470</ele>
        <time>2017-02-26T09:48:48Z</time>
      </trkpt>
      <trkpt lat="42.86442" lon="-0.07834">
        <ele>2465</ele>
        <time>2017-02-26T09:48:51Z</time>
      </trkpt>
      <trkpt lat="42.86436" lon="-0.07824">
        <ele>2461</ele>
        <time>2017-02-26T09:48:52Z</time>
      </trkpt>
      <trkpt lat="42.86434" lon="-0.07811">
        <ele>2461</ele>
        <time>2017-02-26T09:48:53Z</time>
      </trkpt>
      <trkpt lat="42.86431" lon="-0.07783">
        <ele>2457</ele>
        <time>2017-02-26T09:48:55Z</time>
      </trkpt>
      <trkpt lat="42.86438" lon="-0.07735">
        <ele>2453</ele>
        <time>2017-02-26T09:48:59Z</time>
      </trkpt>
      <trkpt lat="42.86436" lon="-0.07716">
        <ele>2452</ele>
        <time>2017-02-26T09:49:00Z</time>
      </trkpt>
      <trkpt lat="42.86437" lon="-0.07702">
        <ele>2452</ele>
        <time>2017-02-26T09:49:02Z</time>
      </trkpt>
      <trkpt lat="42.86428" lon="-0.07686">
        <ele>2451</ele>
        <time>2017-02-26T09:49:05Z</time>
      </trkpt>
      <trkpt lat="42.86425" lon="-0.07676">
        <ele>2450</ele>
        <time>2017-02-26T09:49:07Z</time>
      </trkpt>
      <trkpt lat="42.86427" lon="-0.07672">
        <ele>2448</ele>
        <time>2017-02-26T09:49:08Z</time>
      </trkpt>
      <trkpt lat="42.8643" lon="-0.07666">
        <ele>2447</ele>
        <time>2017-02-26T09:49:09Z</time>
      </trkpt>
      <trkpt lat="42.8643" lon="-0.07661">
        <ele>2445</ele>
        <time>2017-02-26T09:49:10Z</time>
      </trkpt>
      <trkpt lat="42.86432" lon="-0.07656">
        <ele>2443</ele>
        <time>2017-02-26T09:49:11Z</time>
      </trkpt>
      <trkpt lat="42.86434" lon="-0.0765">
        <ele>2442</ele>
        <time>2017-02-26T09:49:12Z</time>
      </trkpt>
      <trkpt lat="42.86435" lon="-0.07645">
        <ele>2440</ele>
        <time>2017-02-26T09:49:13Z</time>
      </trkpt>
      <trkpt lat="42.86449" lon="-0.07602">
        <ele>2426</ele>
        <time>2017-02-26T09:49:23Z</time>
      </trkpt>
      <trkpt lat="42.86454" lon="-0.07594">
        <ele>2421</ele>
        <time>2017-02-26T09:49:25Z</time>
      </trkpt>
      <trkpt lat="42.86469" lon="-0.07579">
        <ele>2415</ele>
        <time>2017-02-26T09:49:28Z</time>
      </trkpt>
      <trkpt lat="42.86472" lon="-0.07574">
        <ele>2413</ele>
        <time>2017-02-26T09:49:29Z</time>
      </trkpt>
      <trkpt lat="42.86487" lon="-0.07562">
        <ele>2405</ele>
        <time>2017-02-26T09:49:33Z</time>
      </trkpt>
      <trkpt lat="42.86496" lon="-0.07556">
        <ele>2398</ele>
        <time>2017-02-26T09:49:36Z</time>
      </trkpt>
      <trkpt lat="42.86498" lon="-0.07542">
        <ele>2388</ele>
        <time>2017-02-26T09:49:39Z</time>
      </trkpt>
      <trkpt lat="42.86512" lon="-0.07521">
        <ele>2384</ele>
        <time>2017-02-26T09:49:41Z</time>
      </trkpt>
      <trkpt lat="42.8652" lon="-0.07498">
        <ele>2381</ele>
        <time>2017-02-26T09:49:42Z</time>
      </trkpt>
      <trkpt lat="42.86527" lon="-0.07484">
        <ele>2381</ele>
        <time>2017-02-26T09:49:43Z</time>
      </trkpt>
      <trkpt lat="42.86537" lon="-0.07453">
        <ele>2375</ele>
        <time>2017-02-26T09:49:45Z</time>
      </trkpt>
      <trkpt lat="42.8654" lon="-0.07439">
        <ele>2374</ele>
        <time>2017-02-26T09:49:47Z</time>
      </trkpt>
      <trkpt lat="42.86541" lon="-0.07419">
        <ele>2373</ele>
        <time>2017-02-26T09:49:48Z</time>
      </trkpt>
      <trkpt lat="42.86549" lon="-0.07405">
        <ele>2369</ele>
        <time>2017-02-26T09:49:51Z</time>
      </trkpt>
      <trkpt lat="42.86573" lon="-0.07389">
        <ele>2358</ele>
        <time>2017-02-26T09:49:56Z</time>
      </trkpt>
      <trkpt lat="42.86581" lon="-0.07381">
        <ele>2351</ele>
        <time>2017-02-26T09:49:59Z</time>
      </trkpt>
      <trkpt lat="42.8659" lon="-0.07363">
        <ele>2350</ele>
        <time>2017-02-26T09:50:00Z</time>
      </trkpt>
      <trkpt lat="42.8659" lon="-0.07352">
        <ele>2348</ele>
        <time>2017-02-26T09:50:02Z</time>
      </trkpt>
      <trkpt lat="42.86586" lon="-0.07335">
        <ele>2347</ele>
        <time>2017-02-26T09:50:03Z</time>
      </trkpt>
      <trkpt lat="42.86583" lon="-0.073">
        <ele>2346</ele>
        <time>2017-02-26T09:50:08Z</time>
      </trkpt>
      <trkpt lat="42.86571" lon="-0.07258">
        <ele>2342</ele>
        <time>2017-02-26T09:50:16Z</time>
      </trkpt>
      <trkpt lat="42.86567" lon="-0.07246">
        <ele>2340</ele>
        <time>2017-02-26T09:50:18Z</time>
      </trkpt>
      <trkpt lat="42.8657" lon="-0.0718">
        <ele>2320</ele>
        <time>2017-02-26T09:50:26Z</time>
      </trkpt>
      <trkpt lat="42.86575" lon="-0.07154">
        <ele>2313</ele>
        <time>2017-02-26T09:50:29Z</time>
      </trkpt>
      <trkpt lat="42.86593" lon="-0.07098">
        <ele>2305</ele>
        <time>2017-02-26T09:50:34Z</time>
      </trkpt>
      <trkpt lat="42.86599" lon="-0.07087">
        <ele>2304</ele>
        <time>2017-02-26T09:50:35Z</time>
      </trkpt>
      <trkpt lat="42.86594" lon="-0.07072">
        <ele>2300</ele>
        <time>2017-02-26T09:50:39Z</time>
      </trkpt>
      <trkpt lat="42.86595" lon="-0.07062">
        <ele>2300</ele>
        <time>2017-02-26T09:50:40Z</time>
      </trkpt>
      <trkpt lat="42.86599" lon="-0.07021">
        <ele>2297</ele>
        <time>2017-02-26T09:50:45Z</time>
      </trkpt>
      <trkpt lat="42.86598" lon="-0.07002">
        <ele>2296</ele>
        <time>2017-02-26T09:50:47Z</time>
      </trkpt>
      <trkpt lat="42.86595" lon="-0.06983">
        <ele>2296</ele>
        <time>2017-02-26T09:50:48Z</time>
      </trkpt>
      <trkpt lat="42.8658" lon="-0.06923">
        <ele>2289</ele>
        <time>2017-02-26T09:50:54Z</time>
      </trkpt>
      <trkpt lat="42.86577" lon="-0.06915">
        <ele>2288</ele>
        <time>2017-02-26T09:50:55Z</time>
      </trkpt>
      <trkpt lat="42.86573" lon="-0.06907">
        <ele>2285</ele>
        <time>2017-02-26T09:50:57Z</time>
      </trkpt>
      <trkpt lat="42.86564" lon="-0.06896">
        <ele>2284</ele>
        <time>2017-02-26T09:50:59Z</time>
      </trkpt>
      <trkpt lat="42.86528" lon="-0.06866">
        <ele>2280</ele>
        <time>2017-02-26T09:51:04Z</time>
      </trkpt>
      <trkpt lat="42.86523" lon="-0.06863">
        <ele>2280</ele>
        <time>2017-02-26T09:51:05Z</time>
      </trkpt>
      <trkpt lat="42.8652" lon="-0.06859">
        <ele>2280</ele>
        <time>2017-02-26T09:51:06Z</time>
      </trkpt>
      <trkpt lat="42.86501" lon="-0.06824">
        <ele>2275</ele>
        <time>2017-02-26T09:51:13Z</time>
      </trkpt>
      <trkpt lat="42.86493" lon="-0.06812">
        <ele>2272</ele>
        <time>2017-02-26T09:51:15Z</time>
      </trkpt>
      <trkpt lat="42.8648" lon="-0.06807">
        <ele>2270</ele>
        <time>2017-02-26T09:51:17Z</time>
      </trkpt>
      <trkpt lat="42.86458" lon="-0.06787">
        <ele>2264</ele>
        <time>2017-02-26T09:51:22Z</time>
      </trkpt>
      <trkpt lat="42.86452" lon="-0.06785">
        <ele>2263</ele>
        <time>2017-02-26T09:51:23Z</time>
      </trkpt>
      <trkpt lat="42.86446" lon="-0.06784">
        <ele>2263</ele>
        <time>2017-02-26T09:51:24Z</time>
      </trkpt>
      <trkpt lat="42.86433" lon="-0.06783">
        <ele>2262</ele>
        <time>2017-02-26T09:51:25Z</time>
      </trkpt>
      <trkpt lat="42.86425" lon="-0.0678">
        <ele>2262</ele>
        <time>2017-02-26T09:51:27Z</time>
      </trkpt>
      <trkpt lat="42.86431" lon="-0.06769">
        <ele>2254</ele>
        <time>2017-02-26T09:51:32Z</time>
      </trkpt>
      <trkpt lat="42.86435" lon="-0.06741">
        <ele>2238</ele>
        <time>2017-02-26T09:51:38Z</time>
      </trkpt>
      <trkpt lat="42.86428" lon="-0.06725">
        <ele>2232</ele>
        <time>2017-02-26T09:51:41Z</time>
      </trkpt>
      <trkpt lat="42.86419" lon="-0.06698">
        <ele>2221</ele>
        <time>2017-02-26T09:51:46Z</time>
      </trkpt>
      <trkpt lat="42.86406" lon="-0.06695">
        <ele>2217</ele>
        <time>2017-02-26T09:51:48Z</time>
      </trkpt>
      <trkpt lat="42.86399" lon="-0.06685">
        <ele>2212</ele>
        <time>2017-02-26T09:51:50Z</time>
      </trkpt>
      <trkpt lat="42.86382" lon="-0.06648">
        <ele>2209</ele>
        <time>2017-02-26T09:51:54Z</time>
      </trkpt>
      <trkpt lat="42.86374" lon="-0.06636">
        <ele>2207</ele>
        <time>2017-02-26T09:51:56Z</time>
      </trkpt>
      <trkpt lat="42.86363" lon="-0.06628">
        <ele>2206</ele>
        <time>2017-02-26T09:51:57Z</time>
      </trkpt>
      <trkpt lat="42.86359" lon="-0.06626">
        <ele>2206</ele>
        <time>2017-02-26T09:51:58Z</time>
      </trkpt>
      <trkpt lat="42.86345" lon="-0.06623">
        <ele>2203</ele>
        <time>2017-02-26T09:52:01Z</time>
      </trkpt>
      <trkpt lat="42.86336" lon="-0.06617">
        <ele>2199</ele>
        <time>2017-02-26T09:52:04Z</time>
      </trkpt>
      <trkpt lat="42.86334" lon="-0.06602">
        <ele>2194</ele>
        <time>2017-02-26T09:52:06Z</time>
      </trkpt>
      <trkpt lat="42.8633" lon="-0.06589">
        <ele>2193</ele>
        <time>2017-02-26T09:52:07Z</time>
      </trkpt>
      <trkpt lat="42.86323" lon="-0.0658">
        <ele>2190</ele>
        <time>2017-02-26T09:52:09Z</time>
      </trkpt>
      <trkpt lat="42.86317" lon="-0.0657">
        <ele>2187</ele>
        <time>2017-02-26T09:52:11Z</time>
      </trkpt>
      <trkpt lat="42.86312" lon="-0.06555">
        <ele>2181</ele>
        <time>2017-02-26T09:52:15Z</time>
      </trkpt>
      <trkpt lat="42.86297" lon="-0.06531">
        <ele>2178</ele>
        <time>2017-02-26T09:52:19Z</time>
      </trkpt>
      <trkpt lat="42.86289" lon="-0.0652">
        <ele>2178</ele>
        <time>2017-02-26T09:52:20Z</time>
      </trkpt>
      <trkpt lat="42.86281" lon="-0.06512">
        <ele>2176</ele>
        <time>2017-02-26T09:52:23Z</time>
      </trkpt>
      <trkpt lat="42.86274" lon="-0.06501">
        <ele>2176</ele>
        <time>2017-02-26T09:52:24Z</time>
      </trkpt>
      <trkpt lat="42.86264" lon="-0.06457">
        <ele>2164</ele>
        <time>2017-02-26T09:52:31Z</time>
      </trkpt>
      <trkpt lat="42.86278" lon="-0.06405">
        <ele>2158</ele>
        <time>2017-02-26T09:52:36Z</time>
      </trkpt>
      <trkpt lat="42.8628" lon="-0.06393">
        <ele>2157</ele>
        <time>2017-02-26T09:52:38Z</time>
      </trkpt>
      <trkpt lat="42.86281" lon="-0.06361">
        <ele>2151</ele>
        <time>2017-02-26T09:52:43Z</time>
      </trkpt>
      <trkpt lat="42.86279" lon="-0.06344">
        <ele>2148</ele>
        <time>2017-02-26T09:52:45Z</time>
      </trkpt>
      <trkpt lat="42.86281" lon="-0.06325">
        <ele>2146</ele>
        <time>2017-02-26T09:52:47Z</time>
      </trkpt>
      <trkpt lat="42.86291" lon="-0.06315">
        <ele>2143</ele>
        <time>2017-02-26T09:52:49Z</time>
      </trkpt>
      <trkpt lat="42.86308" lon="-0.0631">
        <ele>2142.4</ele>
        <time>2017-02-26T09:52:50Z</time>
      </trkpt>
      <trkpt lat="42.86314" lon="-0.06301">
        <ele>2141</ele>
        <time>2017-02-26T09:52:52Z</time>
      </trkpt>
      <trkpt lat="42.86319" lon="-0.06277">
        <ele>2140</ele>
        <time>2017-02-26T09:53:06Z</time>
      </trkpt>
      <trkpt lat="42.86319" lon="-0.06275">
        <ele>2140</ele>
        <time>2017-02-26T09:53:07Z</time>
      </trkpt>
      <trkpt lat="42.86314" lon="-0.06264">
        <ele>2141</ele>
        <time>2017-02-26T09:53:14Z</time>
      </trkpt>
      <trkpt lat="42.86309" lon="-0.06251">
        <ele>2140</ele>
        <time>2017-02-26T09:53:19Z</time>
      </trkpt>
      <trkpt lat="42.86298" lon="-0.06232">
        <ele>2138</ele>
        <time>2017-02-26T09:53:23Z</time>
      </trkpt>
      <trkpt lat="42.86294" lon="-0.06215">
        <ele>2134</ele>
        <time>2017-02-26T09:53:26Z</time>
      </trkpt>
      <trkpt lat="42.86289" lon="-0.062">
        <ele>2133</ele>
        <time>2017-02-26T09:53:27Z</time>
      </trkpt>
      <trkpt lat="42.86284" lon="-0.0618">
        <ele>2131</ele>
        <time>2017-02-26T09:53:30Z</time>
      </trkpt>
      <trkpt lat="42.86274" lon="-0.06171">
        <ele>2131</ele>
        <time>2017-02-26T09:53:33Z</time>
      </trkpt>
      <trkpt lat="42.86271" lon="-0.06168">
        <ele>2130</ele>
        <time>2017-02-26T09:53:34Z</time>
      </trkpt>
      <trkpt lat="42.86268" lon="-0.06165">
        <ele>2129</ele>
        <time>2017-02-26T09:53:35Z</time>
      </trkpt>
      <trkpt lat="42.86261" lon="-0.06141">
        <ele>2122</ele>
        <time>2017-02-26T09:53:39Z</time>
      </trkpt>
      <trkpt lat="42.86252" lon="-0.06128">
        <ele>2120</ele>
        <time>2017-02-26T09:53:40Z</time>
      </trkpt>
      <trkpt lat="42.86249" lon="-0.06121">
        <ele>2119</ele>
        <time>2017-02-26T09:53:41Z</time>
      </trkpt>
      <trkpt lat="42.8624" lon="-0.0611">
        <ele>2118</ele>
        <time>2017-02-26T09:53:44Z</time>
      </trkpt>
      <trkpt lat="42.86238" lon="-0.06106">
        <ele>2117</ele>
        <time>2017-02-26T09:53:46Z</time>
      </trkpt>
      <trkpt lat="42.86239" lon="-0.06103">
        <ele>2116</ele>
        <time>2017-02-26T09:53:47Z</time>
      </trkpt>
      <trkpt lat="42.86245" lon="-0.06095">
        <ele>2115</ele>
        <time>2017-02-26T09:53:49Z</time>
      </trkpt>
      <trkpt lat="42.86266" lon="-0.06075">
        <ele>2109</ele>
        <time>2017-02-26T09:53:54Z</time>
      </trkpt>
      <trkpt lat="42.86269" lon="-0.0607">
        <ele>2108</ele>
        <time>2017-02-26T09:53:55Z</time>
      </trkpt>
      <trkpt lat="42.86272" lon="-0.06064">
        <ele>2106</ele>
        <time>2017-02-26T09:53:56Z</time>
      </trkpt>
      <trkpt lat="42.86265" lon="-0.06053">
        <ele>2101</ele>
        <time>2017-02-26T09:53:59Z</time>
      </trkpt>
      <trkpt lat="42.86255" lon="-0.06047">
        <ele>2092</ele>
        <time>2017-02-26T09:54:03Z</time>
      </trkpt>
      <trkpt lat="42.86244" lon="-0.06044">
        <ele>2090</ele>
        <time>2017-02-26T09:54:04Z</time>
      </trkpt>
      <trkpt lat="42.86234" lon="-0.06043">
        <ele>2087</ele>
        <time>2017-02-26T09:54:07Z</time>
      </trkpt>
      <trkpt lat="42.86231" lon="-0.06028">
        <ele>2081</ele>
        <time>2017-02-26T09:54:10Z</time>
      </trkpt>
      <trkpt lat="42.86224" lon="-0.06016">
        <ele>2075</ele>
        <time>2017-02-26T09:54:14Z</time>
      </trkpt>
      <trkpt lat="42.86213" lon="-0.06018">
        <ele>2074</ele>
        <time>2017-02-26T09:54:15Z</time>
      </trkpt>
      <trkpt lat="42.86208" lon="-0.06018">
        <ele>2072</ele>
        <time>2017-02-26T09:54:16Z</time>
      </trkpt>
      <trkpt lat="42.86197" lon="-0.06021">
        <ele>2070</ele>
        <time>2017-02-26T09:54:18Z</time>
      </trkpt>
      <trkpt lat="42.86191" lon="-0.06023">
        <ele>2069</ele>
        <time>2017-02-26T09:54:19Z</time>
      </trkpt>
      <trkpt lat="42.86184" lon="-0.06024">
        <ele>2068</ele>
        <time>2017-02-26T09:54:20Z</time>
      </trkpt>
      <trkpt lat="42.86178" lon="-0.06025">
        <ele>2067</ele>
        <time>2017-02-26T09:54:21Z</time>
      </trkpt>
      <trkpt lat="42.86167" lon="-0.06021">
        <ele>2066</ele>
        <time>2017-02-26T09:54:23Z</time>
      </trkpt>
      <trkpt lat="42.8615" lon="-0.05999">
        <ele>2062</ele>
        <time>2017-02-26T09:54:27Z</time>
      </trkpt>
      <trkpt lat="42.86138" lon="-0.05992">
        <ele>2056</ele>
        <time>2017-02-26T09:54:29Z</time>
      </trkpt>
      <trkpt lat="42.86129" lon="-0.05978">
        <ele>2055</ele>
        <time>2017-02-26T09:54:30Z</time>
      </trkpt>
      <trkpt lat="42.86126" lon="-0.05924">
        <ele>2049</ele>
        <time>2017-02-26T09:54:35Z</time>
      </trkpt>
      <trkpt lat="42.86116" lon="-0.05904">
        <ele>2047</ele>
        <time>2017-02-26T09:54:37Z</time>
      </trkpt>
      <trkpt lat="42.86106" lon="-0.05889">
        <ele>2046</ele>
        <time>2017-02-26T09:54:38Z</time>
      </trkpt>
      <trkpt lat="42.86098" lon="-0.05882">
        <ele>2046</ele>
        <time>2017-02-26T09:54:40Z</time>
      </trkpt>
      <trkpt lat="42.86091" lon="-0.05878">
        <ele>2046</ele>
        <time>2017-02-26T09:54:42Z</time>
      </trkpt>
      <trkpt lat="42.86088" lon="-0.05875">
        <ele>2045</ele>
        <time>2017-02-26T09:54:43Z</time>
      </trkpt>
      <trkpt lat="42.86086" lon="-0.05868">
        <ele>2044.4</ele>
        <time>2017-02-26T09:54:44Z</time>
      </trkpt>
      <trkpt lat="42.86089" lon="-0.05846">
        <ele>2042</ele>
        <time>2017-02-26T09:54:46Z</time>
      </trkpt>
      <trkpt lat="42.86089" lon="-0.05835">
        <ele>2040</ele>
        <time>2017-02-26T09:54:47Z</time>
      </trkpt>
      <trkpt lat="42.86083" lon="-0.05825">
        <ele>2040</ele>
        <time>2017-02-26T09:54:49Z</time>
      </trkpt>
      <trkpt lat="42.86081" lon="-0.05823">
        <ele>2039</ele>
        <time>2017-02-26T09:54:50Z</time>
      </trkpt>
      <trkpt lat="42.86079" lon="-0.05816">
        <ele>2038</ele>
        <time>2017-02-26T09:54:53Z</time>
      </trkpt>
      <trkpt lat="42.86079" lon="-0.05812">
        <ele>2037</ele>
        <time>2017-02-26T09:54:55Z</time>
      </trkpt>
      <trkpt lat="42.8608" lon="-0.05809">
        <ele>2036</ele>
        <time>2017-02-26T09:55:04Z</time>
      </trkpt>
      <trkpt lat="42.86078" lon="-0.05808">
        <ele>2037</ele>
        <time>2017-02-26T09:55:09Z</time>
      </trkpt>
      <trkpt lat="42.86076" lon="-0.05807">
        <ele>2036</ele>
        <time>2017-02-26T09:55:17Z</time>
      </trkpt>
      <trkpt lat="42.86081" lon="-0.05807">
        <ele>2036</ele>
        <time>2017-02-26T09:55:27Z</time>
      </trkpt>
      <trkpt lat="42.86082" lon="-0.0581">
        <ele>2036</ele>
        <time>2017-02-26T09:55:39Z</time>
      </trkpt>
      <trkpt lat="42.8608" lon="-0.05808">
        <ele>2036</ele>
        <time>2017-02-26T09:55:57Z</time>
      </trkpt>
      <trkpt lat="42.86079" lon="-0.0581">
        <ele>2037</ele>
        <time>2017-02-26T09:56:06Z</time>
      </trkpt>
      <trkpt lat="42.86081" lon="-0.05811">
        <ele>2038</ele>
        <time>2017-02-26T09:56:13Z</time>
      </trkpt>
      <trkpt lat="42.86083" lon="-0.05813">
        <ele>2037</ele>
        <time>2017-02-26T09:56:37Z</time>
      </trkpt>
      <trkpt lat="42.86085" lon="-0.05811">
        <ele>2037</ele>
        <time>2017-02-26T09:57:01Z</time>
      </trkpt>
      <trkpt lat="42.86084" lon="-0.05814">
        <ele>2037</ele>
        <time>2017-02-26T09:57:06Z</time>
      </trkpt>
      <trkpt lat="42.86081" lon="-0.05812">
        <ele>2037</ele>
        <time>2017-02-26T09:57:24Z</time>
      </trkpt>
      <trkpt lat="42.8608" lon="-0.05809">
        <ele>2036</ele>
        <time>2017-02-26T09:57:32Z</time>
      </trkpt>
      <trkpt lat="42.86082" lon="-0.05806">
        <ele>2036</ele>
        <time>2017-02-26T09:57:36Z</time>
      </trkpt>
      <trkpt lat="42.86083" lon="-0.05809">
        <ele>2036</ele>
        <time>2017-02-26T09:57:41Z</time>
      </trkpt>
      <trkpt lat="42.86083" lon="-0.05811">
        <ele>2036</ele>
        <time>2017-02-26T09:57:45Z</time>
      </trkpt>
      <trkpt lat="42.86084" lon="-0.05814">
        <ele>2037</ele>
        <time>2017-02-26T09:58:02Z</time>
      </trkpt>
      <trkpt lat="42.86086" lon="-0.05815">
        <ele>2037</ele>
        <time>2017-02-26T09:58:04Z</time>
      </trkpt>
      <trkpt lat="42.86092" lon="-0.05815">
        <ele>2037</ele>
        <time>2017-02-26T09:58:07Z</time>
      </trkpt>
      <trkpt lat="42.86094" lon="-0.05815">
        <ele>2037</ele>
        <time>2017-02-26T09:58:08Z</time>
      </trkpt>
      <trkpt lat="42.861" lon="-0.05816">
        <ele>2037</ele>
        <time>2017-02-26T09:58:11Z</time>
      </trkpt>
      <trkpt lat="42.86102" lon="-0.05817">
        <ele>2037</ele>
        <time>2017-02-26T09:58:12Z</time>
      </trkpt>
      <trkpt lat="42.86104" lon="-0.05817">
        <ele>2037</ele>
        <time>2017-02-26T09:58:14Z</time>
      </trkpt>
      <trkpt lat="42.86109" lon="-0.05818">
        <ele>2037</ele>
        <time>2017-02-26T09:58:18Z</time>
      </trkpt>
      <trkpt lat="42.86112" lon="-0.05819">
        <ele>2038</ele>
        <time>2017-02-26T09:58:20Z</time>
      </trkpt>
      <trkpt lat="42.86115" lon="-0.0582">
        <ele>2038</ele>
        <time>2017-02-26T09:58:22Z</time>
      </trkpt>
      <trkpt lat="42.86117" lon="-0.0582">
        <ele>2038</ele>
        <time>2017-02-26T09:58:24Z</time>
      </trkpt>
      <trkpt lat="42.8612" lon="-0.05821">
        <ele>2038</ele>
        <time>2017-02-26T09:58:26Z</time>
      </trkpt>
      <trkpt lat="42.86122" lon="-0.05822">
        <ele>2038</ele>
        <time>2017-02-26T09:58:29Z</time>
      </trkpt>
      <trkpt lat="42.86126" lon="-0.05822">
        <ele>2038</ele>
        <time>2017-02-26T09:58:34Z</time>
      </trkpt>
      <trkpt lat="42.86128" lon="-0.05822">
        <ele>2038</ele>
        <time>2017-02-26T09:58:36Z</time>
      </trkpt>
      <trkpt lat="42.8613" lon="-0.05823">
        <ele>2038</ele>
        <time>2017-02-26T09:58:38Z</time>
      </trkpt>
      <trkpt lat="42.86132" lon="-0.05824">
        <ele>2038</ele>
        <time>2017-02-26T09:58:40Z</time>
      </trkpt>
      <trkpt lat="42.86141" lon="-0.05827">
        <ele>2038</ele>
        <time>2017-02-26T09:58:48Z</time>
      </trkpt>
      <trkpt lat="42.86147" lon="-0.05831">
        <ele>2036</ele>
        <time>2017-02-26T09:58:51Z</time>
      </trkpt>
      <trkpt lat="42.86149" lon="-0.05833">
        <ele>2036</ele>
        <time>2017-02-26T09:58:52Z</time>
      </trkpt>
      <trkpt lat="42.86154" lon="-0.05835">
        <ele>2036</ele>
        <time>2017-02-26T09:58:54Z</time>
      </trkpt>
      <trkpt lat="42.86156" lon="-0.05835">
        <ele>2036</ele>
        <time>2017-02-26T09:58:55Z</time>
      </trkpt>
      <trkpt lat="42.86169" lon="-0.05842">
        <ele>2035</ele>
        <time>2017-02-26T09:59:04Z</time>
      </trkpt>
      <trkpt lat="42.86175" lon="-0.05846">
        <ele>2035</ele>
        <time>2017-02-26T09:59:11Z</time>
      </trkpt>
      <trkpt lat="42.86181" lon="-0.05849">
        <ele>2035</ele>
        <time>2017-02-26T09:59:18Z</time>
      </trkpt>
      <trkpt lat="42.86183" lon="-0.0585">
        <ele>2035</ele>
        <time>2017-02-26T09:59:20Z</time>
      </trkpt>
      <trkpt lat="42.86187" lon="-0.05852">
        <ele>2037</ele>
        <time>2017-02-26T09:59:24Z</time>
      </trkpt>
      <trkpt lat="42.86191" lon="-0.05855">
        <ele>2037</ele>
        <time>2017-02-26T09:59:28Z</time>
      </trkpt>
      <trkpt lat="42.86194" lon="-0.05857">
        <ele>2038</ele>
        <time>2017-02-26T09:59:30Z</time>
      </trkpt>
      <trkpt lat="42.86198" lon="-0.05859">
        <ele>2038</ele>
        <time>2017-02-26T09:59:35Z</time>
      </trkpt>
      <trkpt lat="42.86196" lon="-0.05859">
        <ele>2038</ele>
        <time>2017-02-26T09:59:52Z</time>
      </trkpt>
      <trkpt lat="42.86198" lon="-0.05861">
        <ele>2038</ele>
        <time>2017-02-26T09:59:57Z</time>
      </trkpt>
      <trkpt lat="42.862" lon="-0.05862">
        <ele>2038</ele>
        <time>2017-02-26T09:59:59Z</time>
      </trkpt>
      <trkpt lat="42.86203" lon="-0.05863">
        <ele>2038</ele>
        <time>2017-02-26T10:00:01Z</time>
      </trkpt>
      <trkpt lat="42.86211" lon="-0.05868">
        <ele>2039</ele>
        <time>2017-02-26T10:00:11Z</time>
      </trkpt>
      <trkpt lat="42.86214" lon="-0.05869">
        <ele>2039</ele>
        <time>2017-02-26T10:00:14Z</time>
      </trkpt>
      <trkpt lat="42.86219" lon="-0.05871">
        <ele>2040</ele>
        <time>2017-02-26T10:00:20Z</time>
      </trkpt>
      <trkpt lat="42.86222" lon="-0.05873">
        <ele>2041</ele>
        <time>2017-02-26T10:00:24Z</time>
      </trkpt>
      <trkpt lat="42.86224" lon="-0.05875">
        <ele>2041</ele>
        <time>2017-02-26T10:00:26Z</time>
      </trkpt>
      <trkpt lat="42.86226" lon="-0.05877">
        <ele>2041</ele>
        <time>2017-02-26T10:00:29Z</time>
      </trkpt>
      <trkpt lat="42.86228" lon="-0.05885">
        <ele>2043</ele>
        <time>2017-02-26T10:00:35Z</time>
      </trkpt>
      <trkpt lat="42.86233" lon="-0.05894">
        <ele>2044</ele>
        <time>2017-02-26T10:00:44Z</time>
      </trkpt>
      <trkpt lat="42.86236" lon="-0.05896">
        <ele>2045</ele>
        <time>2017-02-26T10:00:48Z</time>
      </trkpt>
      <trkpt lat="42.8624" lon="-0.059">
        <ele>2046</ele>
        <time>2017-02-26T10:00:54Z</time>
      </trkpt>
      <trkpt lat="42.86245" lon="-0.05904">
        <ele>2046</ele>
        <time>2017-02-26T10:01:00Z</time>
      </trkpt>
      <trkpt lat="42.8625" lon="-0.05909">
        <ele>2048</ele>
        <time>2017-02-26T10:01:08Z</time>
      </trkpt>
      <trkpt lat="42.86252" lon="-0.05911">
        <ele>2049</ele>
        <time>2017-02-26T10:01:10Z</time>
      </trkpt>
      <trkpt lat="42.86254" lon="-0.05912">
        <ele>2049</ele>
        <time>2017-02-26T10:01:12Z</time>
      </trkpt>
      <trkpt lat="42.86256" lon="-0.05912">
        <ele>2049</ele>
        <time>2017-02-26T10:01:15Z</time>
      </trkpt>
      <trkpt lat="42.86259" lon="-0.05911">
        <ele>2050</ele>
        <time>2017-02-26T10:01:18Z</time>
      </trkpt>
      <trkpt lat="42.86263" lon="-0.05912">
        <ele>2051</ele>
        <time>2017-02-26T10:01:26Z</time>
      </trkpt>
      <trkpt lat="42.86265" lon="-0.05912">
        <ele>2052</ele>
        <time>2017-02-26T10:01:29Z</time>
      </trkpt>
      <trkpt lat="42.86273" lon="-0.05913">
        <ele>2055</ele>
        <time>2017-02-26T10:01:40Z</time>
      </trkpt>
      <trkpt lat="42.86275" lon="-0.05914">
        <ele>2055</ele>
        <time>2017-02-26T10:01:43Z</time>
      </trkpt>
      <trkpt lat="42.86281" lon="-0.05916">
        <ele>2057</ele>
        <time>2017-02-26T10:01:56Z</time>
      </trkpt>
      <trkpt lat="42.86285" lon="-0.05919">
        <ele>2060</ele>
        <time>2017-02-26T10:02:02Z</time>
      </trkpt>
      <trkpt lat="42.86286" lon="-0.0592">
        <ele>2060</ele>
        <time>2017-02-26T10:02:04Z</time>
      </trkpt>
      <trkpt lat="42.8629" lon="-0.05922">
        <ele>2061</ele>
        <time>2017-02-26T10:02:08Z</time>
      </trkpt>
      <trkpt lat="42.86295" lon="-0.05924">
        <ele>2061</ele>
        <time>2017-02-26T10:02:13Z</time>
      </trkpt>
      <trkpt lat="42.86301" lon="-0.05928">
        <ele>2062</ele>
        <time>2017-02-26T10:02:21Z</time>
      </trkpt>
      <trkpt lat="42.86305" lon="-0.0593">
        <ele>2063</ele>
        <time>2017-02-26T10:02:25Z</time>
      </trkpt>
      <trkpt lat="42.86309" lon="-0.05933">
        <ele>2063</ele>
        <time>2017-02-26T10:02:29Z</time>
      </trkpt>
      <trkpt lat="42.86311" lon="-0.05934">
        <ele>2063</ele>
        <time>2017-02-26T10:02:31Z</time>
      </trkpt>
      <trkpt lat="42.86315" lon="-0.05938">
        <ele>2064</ele>
        <time>2017-02-26T10:02:36Z</time>
      </trkpt>
      <trkpt lat="42.8632" lon="-0.0594">
        <ele>2066</ele>
        <time>2017-02-26T10:02:42Z</time>
      </trkpt>
      <trkpt lat="42.86327" lon="-0.05947">
        <ele>2067</ele>
        <time>2017-02-26T10:02:52Z</time>
      </trkpt>
      <trkpt lat="42.86329" lon="-0.05948">
        <ele>2067</ele>
        <time>2017-02-26T10:02:54Z</time>
      </trkpt>
      <trkpt lat="42.8634" lon="-0.05957">
        <ele>2067</ele>
        <time>2017-02-26T10:03:04Z</time>
      </trkpt>
      <trkpt lat="42.86342" lon="-0.05959">
        <ele>2067</ele>
        <time>2017-02-26T10:03:06Z</time>
      </trkpt>
      <trkpt lat="42.86344" lon="-0.05961">
        <ele>2067</ele>
        <time>2017-02-26T10:03:08Z</time>
      </trkpt>
      <trkpt lat="42.8635" lon="-0.05966">
        <ele>2068</ele>
        <time>2017-02-26T10:03:13Z</time>
      </trkpt>
      <trkpt lat="42.86362" lon="-0.05973">
        <ele>2067</ele>
        <time>2017-02-26T10:03:22Z</time>
      </trkpt>
      <trkpt lat="42.86375" lon="-0.05987">
        <ele>2067</ele>
        <time>2017-02-26T10:03:31Z</time>
      </trkpt>
      <trkpt lat="42.86389" lon="-0.05998">
        <ele>2064</ele>
        <time>2017-02-26T10:03:39Z</time>
      </trkpt>
      <trkpt lat="42.86404" lon="-0.06021">
        <ele>2064</ele>
        <time>2017-02-26T10:03:53Z</time>
      </trkpt>
      <trkpt lat="42.86406" lon="-0.06023">
        <ele>2064</ele>
        <time>2017-02-26T10:03:55Z</time>
      </trkpt>
      <trkpt lat="42.86409" lon="-0.06025">
        <ele>2064</ele>
        <time>2017-02-26T10:03:57Z</time>
      </trkpt>
      <trkpt lat="42.86411" lon="-0.06026">
        <ele>2064</ele>
        <time>2017-02-26T10:03:58Z</time>
      </trkpt>
      <trkpt lat="42.86416" lon="-0.06031">
        <ele>2064</ele>
        <time>2017-02-26T10:04:02Z</time>
      </trkpt>
      <trkpt lat="42.86421" lon="-0.06034">
        <ele>2064</ele>
        <time>2017-02-26T10:04:05Z</time>
      </trkpt>
      <trkpt lat="42.86424" lon="-0.06037">
        <ele>2064</ele>
        <time>2017-02-26T10:04:07Z</time>
      </trkpt>
      <trkpt lat="42.86426" lon="-0.06038">
        <ele>2064</ele>
        <time>2017-02-26T10:04:09Z</time>
      </trkpt>
      <trkpt lat="42.86428" lon="-0.0604">
        <ele>2064</ele>
        <time>2017-02-26T10:04:12Z</time>
      </trkpt>
      <trkpt lat="42.86429" lon="-0.06043">
        <ele>2064</ele>
        <time>2017-02-26T10:04:15Z</time>
      </trkpt>
      <trkpt lat="42.86445" lon="-0.06054">
        <ele>2065</ele>
        <time>2017-02-26T10:04:35Z</time>
      </trkpt>
      <trkpt lat="42.86451" lon="-0.06056">
        <ele>2067</ele>
        <time>2017-02-26T10:04:44Z</time>
      </trkpt>
      <trkpt lat="42.86453" lon="-0.06058">
        <ele>2068</ele>
        <time>2017-02-26T10:04:48Z</time>
      </trkpt>
      <trkpt lat="42.86454" lon="-0.0606">
        <ele>2069</ele>
        <time>2017-02-26T10:04:51Z</time>
      </trkpt>
      <trkpt lat="42.86455" lon="-0.06063">
        <ele>2069</ele>
        <time>2017-02-26T10:04:53Z</time>
      </trkpt>
      <trkpt lat="42.86455" lon="-0.06066">
        <ele>2069</ele>
        <time>2017-02-26T10:04:55Z</time>
      </trkpt>
      <trkpt lat="42.86456" lon="-0.06073">
        <ele>2069</ele>
        <time>2017-02-26T10:04:58Z</time>
      </trkpt>
      <trkpt lat="42.86466" lon="-0.06097">
        <ele>2070</ele>
        <time>2017-02-26T10:05:14Z</time>
      </trkpt>
      <trkpt lat="42.86466" lon="-0.061">
        <ele>2070</ele>
        <time>2017-02-26T10:05:16Z</time>
      </trkpt>
      <trkpt lat="42.86467" lon="-0.06102">
        <ele>2071</ele>
        <time>2017-02-26T10:05:18Z</time>
      </trkpt>
      <trkpt lat="42.86468" lon="-0.06105">
        <ele>2071</ele>
        <time>2017-02-26T10:05:20Z</time>
      </trkpt>
      <trkpt lat="42.86469" lon="-0.06109">
        <ele>2071</ele>
        <time>2017-02-26T10:05:22Z</time>
      </trkpt>
      <trkpt lat="42.86473" lon="-0.06116">
        <ele>2071</ele>
        <time>2017-02-26T10:05:26Z</time>
      </trkpt>
      <trkpt lat="42.86475" lon="-0.06118">
        <ele>2071</ele>
        <time>2017-02-26T10:05:28Z</time>
      </trkpt>
      <trkpt lat="42.86477" lon="-0.0612">
        <ele>2071</ele>
        <time>2017-02-26T10:05:30Z</time>
      </trkpt>
      <trkpt lat="42.8648" lon="-0.06121">
        <ele>2072</ele>
        <time>2017-02-26T10:05:32Z</time>
      </trkpt>
      <trkpt lat="42.86482" lon="-0.06122">
        <ele>2072</ele>
        <time>2017-02-26T10:05:34Z</time>
      </trkpt>
      <trkpt lat="42.86491" lon="-0.06126">
        <ele>2073</ele>
        <time>2017-02-26T10:05:42Z</time>
      </trkpt>
      <trkpt lat="42.86496" lon="-0.06128">
        <ele>2074</ele>
        <time>2017-02-26T10:05:46Z</time>
      </trkpt>
      <trkpt lat="42.865" lon="-0.0613">
        <ele>2074</ele>
        <time>2017-02-26T10:05:50Z</time>
      </trkpt>
      <trkpt lat="42.86503" lon="-0.0613">
        <ele>2076</ele>
        <time>2017-02-26T10:05:53Z</time>
      </trkpt>
      <trkpt lat="42.86505" lon="-0.0613">
        <ele>2076</ele>
        <time>2017-02-26T10:05:55Z</time>
      </trkpt>
      <trkpt lat="42.86507" lon="-0.0613">
        <ele>2076</ele>
        <time>2017-02-26T10:05:57Z</time>
      </trkpt>
      <trkpt lat="42.86509" lon="-0.06129">
        <ele>2076</ele>
        <time>2017-02-26T10:06:00Z</time>
      </trkpt>
      <trkpt lat="42.8651" lon="-0.06131">
        <ele>2078</ele>
        <time>2017-02-26T10:06:06Z</time>
      </trkpt>
      <trkpt lat="42.86513" lon="-0.0614">
        <ele>2080</ele>
        <time>2017-02-26T10:06:16Z</time>
      </trkpt>
      <trkpt lat="42.86513" lon="-0.06143">
        <ele>2081</ele>
        <time>2017-02-26T10:06:20Z</time>
      </trkpt>
      <trkpt lat="42.86513" lon="-0.06146">
        <ele>2081</ele>
        <time>2017-02-26T10:06:23Z</time>
      </trkpt>
      <trkpt lat="42.86513" lon="-0.06149">
        <ele>2082</ele>
        <time>2017-02-26T10:06:26Z</time>
      </trkpt>
      <trkpt lat="42.86513" lon="-0.06152">
        <ele>2082</ele>
        <time>2017-02-26T10:06:29Z</time>
      </trkpt>
      <trkpt lat="42.86513" lon="-0.06155">
        <ele>2082</ele>
        <time>2017-02-26T10:06:32Z</time>
      </trkpt>
      <trkpt lat="42.86513" lon="-0.06158">
        <ele>2083</ele>
        <time>2017-02-26T10:06:35Z</time>
      </trkpt>
      <trkpt lat="42.86515" lon="-0.06171">
        <ele>2086</ele>
        <time>2017-02-26T10:06:49Z</time>
      </trkpt>
      <trkpt lat="42.86514" lon="-0.06177">
        <ele>2088</ele>
        <time>2017-02-26T10:06:55Z</time>
      </trkpt>
      <trkpt lat="42.86512" lon="-0.06182">
        <ele>2089</ele>
        <time>2017-02-26T10:06:59Z</time>
      </trkpt>
      <trkpt lat="42.86511" lon="-0.06188">
        <ele>2090</ele>
        <time>2017-02-26T10:07:04Z</time>
      </trkpt>
      <trkpt lat="42.86511" lon="-0.06191">
        <ele>2090</ele>
        <time>2017-02-26T10:07:07Z</time>
      </trkpt>
      <trkpt lat="42.86512" lon="-0.06193">
        <ele>2091</ele>
        <time>2017-02-26T10:07:10Z</time>
      </trkpt>
      <trkpt lat="42.86514" lon="-0.06196">
        <ele>2092</ele>
        <time>2017-02-26T10:07:13Z</time>
      </trkpt>
      <trkpt lat="42.86516" lon="-0.06198">
        <ele>2093</ele>
        <time>2017-02-26T10:07:17Z</time>
      </trkpt>
      <trkpt lat="42.86518" lon="-0.062">
        <ele>2093</ele>
        <time>2017-02-26T10:07:20Z</time>
      </trkpt>
      <trkpt lat="42.86522" lon="-0.06202">
        <ele>2095</ele>
        <time>2017-02-26T10:07:27Z</time>
      </trkpt>
      <trkpt lat="42.86524" lon="-0.06204">
        <ele>2095</ele>
        <time>2017-02-26T10:07:31Z</time>
      </trkpt>
      <trkpt lat="42.86527" lon="-0.0621">
        <ele>2096</ele>
        <time>2017-02-26T10:07:36Z</time>
      </trkpt>
      <trkpt lat="42.86529" lon="-0.06218">
        <ele>2098</ele>
        <time>2017-02-26T10:07:43Z</time>
      </trkpt>
      <trkpt lat="42.86529" lon="-0.06221">
        <ele>2099</ele>
        <time>2017-02-26T10:07:46Z</time>
      </trkpt>
      <trkpt lat="42.86531" lon="-0.06226">
        <ele>2100</ele>
        <time>2017-02-26T10:07:51Z</time>
      </trkpt>
      <trkpt lat="42.86532" lon="-0.06228">
        <ele>2100</ele>
        <time>2017-02-26T10:07:53Z</time>
      </trkpt>
      <trkpt lat="42.86534" lon="-0.06237">
        <ele>2101</ele>
        <time>2017-02-26T10:08:02Z</time>
      </trkpt>
      <trkpt lat="42.86535" lon="-0.06249">
        <ele>2103</ele>
        <time>2017-02-26T10:08:13Z</time>
      </trkpt>
      <trkpt lat="42.86534" lon="-0.06255">
        <ele>2103</ele>
        <time>2017-02-26T10:08:18Z</time>
      </trkpt>
      <trkpt lat="42.86533" lon="-0.06261">
        <ele>2103</ele>
        <time>2017-02-26T10:08:22Z</time>
      </trkpt>
      <trkpt lat="42.86528" lon="-0.06273">
        <ele>2105</ele>
        <time>2017-02-26T10:08:32Z</time>
      </trkpt>
      <trkpt lat="42.86523" lon="-0.06281">
        <ele>2105</ele>
        <time>2017-02-26T10:08:38Z</time>
      </trkpt>
      <trkpt lat="42.86521" lon="-0.06284">
        <ele>2105</ele>
        <time>2017-02-26T10:08:40Z</time>
      </trkpt>
      <trkpt lat="42.86517" lon="-0.06288">
        <ele>2106</ele>
        <time>2017-02-26T10:08:43Z</time>
      </trkpt>
      <trkpt lat="42.86511" lon="-0.06292">
        <ele>2107</ele>
        <time>2017-02-26T10:08:49Z</time>
      </trkpt>
      <trkpt lat="42.86508" lon="-0.06294">
        <ele>2107</ele>
        <time>2017-02-26T10:08:51Z</time>
      </trkpt>
      <trkpt lat="42.86506" lon="-0.06295">
        <ele>2107</ele>
        <time>2017-02-26T10:08:53Z</time>
      </trkpt>
      <trkpt lat="42.86502" lon="-0.06295">
        <ele>2109</ele>
        <time>2017-02-26T10:08:57Z</time>
      </trkpt>
      <trkpt lat="42.86498" lon="-0.06295">
        <ele>2109</ele>
        <time>2017-02-26T10:09:01Z</time>
      </trkpt>
      <trkpt lat="42.86496" lon="-0.06295">
        <ele>2109</ele>
        <time>2017-02-26T10:09:03Z</time>
      </trkpt>
      <trkpt lat="42.86492" lon="-0.06296">
        <ele>2110</ele>
        <time>2017-02-26T10:09:07Z</time>
      </trkpt>
      <trkpt lat="42.86486" lon="-0.063">
        <ele>2112</ele>
        <time>2017-02-26T10:09:13Z</time>
      </trkpt>
      <trkpt lat="42.86476" lon="-0.06312">
        <ele>2116</ele>
        <time>2017-02-26T10:09:28Z</time>
      </trkpt>
      <trkpt lat="42.86474" lon="-0.06314">
        <ele>2117</ele>
        <time>2017-02-26T10:09:30Z</time>
      </trkpt>
      <trkpt lat="42.86472" lon="-0.06315">
        <ele>2117</ele>
        <time>2017-02-26T10:09:32Z</time>
      </trkpt>
      <trkpt lat="42.86469" lon="-0.06316">
        <ele>2118</ele>
        <time>2017-02-26T10:09:34Z</time>
      </trkpt>
      <trkpt lat="42.86468" lon="-0.06317">
        <ele>2118</ele>
        <time>2017-02-26T10:09:36Z</time>
      </trkpt>
      <trkpt lat="42.86467" lon="-0.0632">
        <ele>2118</ele>
        <time>2017-02-26T10:09:38Z</time>
      </trkpt>
      <trkpt lat="42.86469" lon="-0.06323">
        <ele>2119</ele>
        <time>2017-02-26T10:09:40Z</time>
      </trkpt>
      <trkpt lat="42.86476" lon="-0.06334">
        <ele>2120</ele>
        <time>2017-02-26T10:09:48Z</time>
      </trkpt>
      <trkpt lat="42.86479" lon="-0.06338">
        <ele>2122</ele>
        <time>2017-02-26T10:09:53Z</time>
      </trkpt>
      <trkpt lat="42.86481" lon="-0.06338">
        <ele>2122</ele>
        <time>2017-02-26T10:10:24Z</time>
      </trkpt>
      <trkpt lat="42.86485" lon="-0.06341">
        <ele>2123</ele>
        <time>2017-02-26T10:10:30Z</time>
      </trkpt>
      <trkpt lat="42.86487" lon="-0.06341">
        <ele>2123</ele>
        <time>2017-02-26T10:10:35Z</time>
      </trkpt>
      <trkpt lat="42.86489" lon="-0.06342">
        <ele>2124</ele>
        <time>2017-02-26T10:10:39Z</time>
      </trkpt>
      <trkpt lat="42.86491" lon="-0.06344">
        <ele>2125</ele>
        <time>2017-02-26T10:10:42Z</time>
      </trkpt>
      <trkpt lat="42.86497" lon="-0.06345">
        <ele>2127</ele>
        <time>2017-02-26T10:10:52Z</time>
      </trkpt>
      <trkpt lat="42.86499" lon="-0.06345">
        <ele>2128</ele>
        <time>2017-02-26T10:10:55Z</time>
      </trkpt>
      <trkpt lat="42.86501" lon="-0.06345">
        <ele>2128</ele>
        <time>2017-02-26T10:10:58Z</time>
      </trkpt>
      <trkpt lat="42.86504" lon="-0.06346">
        <ele>2128</ele>
        <time>2017-02-26T10:11:02Z</time>
      </trkpt>
      <trkpt lat="42.86506" lon="-0.06346">
        <ele>2129</ele>
        <time>2017-02-26T10:11:05Z</time>
      </trkpt>
      <trkpt lat="42.86508" lon="-0.06346">
        <ele>2130</ele>
        <time>2017-02-26T10:11:08Z</time>
      </trkpt>
      <trkpt lat="42.8651" lon="-0.06347">
        <ele>2131</ele>
        <time>2017-02-26T10:11:13Z</time>
      </trkpt>
      <trkpt lat="42.86513" lon="-0.06348">
        <ele>2132</ele>
        <time>2017-02-26T10:11:16Z</time>
      </trkpt>
      <trkpt lat="42.86514" lon="-0.06349">
        <ele>2132</ele>
        <time>2017-02-26T10:11:19Z</time>
      </trkpt>
      <trkpt lat="42.86516" lon="-0.06351">
        <ele>2133</ele>
        <time>2017-02-26T10:11:22Z</time>
      </trkpt>
      <trkpt lat="42.8652" lon="-0.06363">
        <ele>2134</ele>
        <time>2017-02-26T10:11:34Z</time>
      </trkpt>
      <trkpt lat="42.86525" lon="-0.06384">
        <ele>2137</ele>
        <time>2017-02-26T10:11:51Z</time>
      </trkpt>
      <trkpt lat="42.86528" lon="-0.06393">
        <ele>2136</ele>
        <time>2017-02-26T10:11:57Z</time>
      </trkpt>
      <trkpt lat="42.86528" lon="-0.06396">
        <ele>2136</ele>
        <time>2017-02-26T10:11:59Z</time>
      </trkpt>
      <trkpt lat="42.86529" lon="-0.06399">
        <ele>2136</ele>
        <time>2017-02-26T10:12:01Z</time>
      </trkpt>
      <trkpt lat="42.86531" lon="-0.06402">
        <ele>2136</ele>
        <time>2017-02-26T10:12:03Z</time>
      </trkpt>
      <trkpt lat="42.86534" lon="-0.0641">
        <ele>2136</ele>
        <time>2017-02-26T10:12:07Z</time>
      </trkpt>
      <trkpt lat="42.86538" lon="-0.06417">
        <ele>2137</ele>
        <time>2017-02-26T10:12:13Z</time>
      </trkpt>
      <trkpt lat="42.86548" lon="-0.0643">
        <ele>2141</ele>
        <time>2017-02-26T10:12:29Z</time>
      </trkpt>
      <trkpt lat="42.86557" lon="-0.06442">
        <ele>2142</ele>
        <time>2017-02-26T10:12:43Z</time>
      </trkpt>
      <trkpt lat="42.86561" lon="-0.06446">
        <ele>2143</ele>
        <time>2017-02-26T10:12:49Z</time>
      </trkpt>
      <trkpt lat="42.86563" lon="-0.06447">
        <ele>2144</ele>
        <time>2017-02-26T10:12:51Z</time>
      </trkpt>
      <trkpt lat="42.86565" lon="-0.06448">
        <ele>2144</ele>
        <time>2017-02-26T10:12:53Z</time>
      </trkpt>
      <trkpt lat="42.86567" lon="-0.06449">
        <ele>2144</ele>
        <time>2017-02-26T10:12:56Z</time>
      </trkpt>
      <trkpt lat="42.86584" lon="-0.06461">
        <ele>2148</ele>
        <time>2017-02-26T10:13:20Z</time>
      </trkpt>
      <trkpt lat="42.86586" lon="-0.06463">
        <ele>2149</ele>
        <time>2017-02-26T10:13:23Z</time>
      </trkpt>
      <trkpt lat="42.86587" lon="-0.06465">
        <ele>2149</ele>
        <time>2017-02-26T10:13:27Z</time>
      </trkpt>
      <trkpt lat="42.86588" lon="-0.06468">
        <ele>2150</ele>
        <time>2017-02-26T10:13:30Z</time>
      </trkpt>
      <trkpt lat="42.86589" lon="-0.0647">
        <ele>2150</ele>
        <time>2017-02-26T10:13:33Z</time>
      </trkpt>
      <trkpt lat="42.8659" lon="-0.06473">
        <ele>2151</ele>
        <time>2017-02-26T10:13:37Z</time>
      </trkpt>
      <trkpt lat="42.86588" lon="-0.06472">
        <ele>2150</ele>
        <time>2017-02-26T10:14:21Z</time>
      </trkpt>
      <trkpt lat="42.86589" lon="-0.06476">
        <ele>2151</ele>
        <time>2017-02-26T10:14:36Z</time>
      </trkpt>
      <trkpt lat="42.86602" lon="-0.06503">
        <ele>2156</ele>
        <time>2017-02-26T10:15:08Z</time>
      </trkpt>
      <trkpt lat="42.86603" lon="-0.06505">
        <ele>2156</ele>
        <time>2017-02-26T10:15:10Z</time>
      </trkpt>
      <trkpt lat="42.86604" lon="-0.06508">
        <ele>2157</ele>
        <time>2017-02-26T10:15:12Z</time>
      </trkpt>
      <trkpt lat="42.86605" lon="-0.06511">
        <ele>2157</ele>
        <time>2017-02-26T10:15:15Z</time>
      </trkpt>
      <trkpt lat="42.86605" lon="-0.06515">
        <ele>2157</ele>
        <time>2017-02-26T10:15:18Z</time>
      </trkpt>
      <trkpt lat="42.86605" lon="-0.06518">
        <ele>2158</ele>
        <time>2017-02-26T10:15:21Z</time>
      </trkpt>
      <trkpt lat="42.86604" lon="-0.06523">
        <ele>2159</ele>
        <time>2017-02-26T10:15:26Z</time>
      </trkpt>
      <trkpt lat="42.86604" lon="-0.06527">
        <ele>2160</ele>
        <time>2017-02-26T10:15:30Z</time>
      </trkpt>
      <trkpt lat="42.86602" lon="-0.06533">
        <ele>2162</ele>
        <time>2017-02-26T10:15:37Z</time>
      </trkpt>
      <trkpt lat="42.86602" lon="-0.06536">
        <ele>2164</ele>
        <time>2017-02-26T10:15:41Z</time>
      </trkpt>
      <trkpt lat="42.86602" lon="-0.06539">
        <ele>2164</ele>
        <time>2017-02-26T10:15:45Z</time>
      </trkpt>
      <trkpt lat="42.86601" lon="-0.06541">
        <ele>2165</ele>
        <time>2017-02-26T10:15:50Z</time>
      </trkpt>
      <trkpt lat="42.86599" lon="-0.0654">
        <ele>2166</ele>
        <time>2017-02-26T10:15:54Z</time>
      </trkpt>
      <trkpt lat="42.86597" lon="-0.06539">
        <ele>2167</ele>
        <time>2017-02-26T10:15:57Z</time>
      </trkpt>
      <trkpt lat="42.86595" lon="-0.06539">
        <ele>2167</ele>
        <time>2017-02-26T10:16:00Z</time>
      </trkpt>
      <trkpt lat="42.86594" lon="-0.06542">
        <ele>2169</ele>
        <time>2017-02-26T10:16:04Z</time>
      </trkpt>
      <trkpt lat="42.86594" lon="-0.06545">
        <ele>2170</ele>
        <time>2017-02-26T10:16:08Z</time>
      </trkpt>
      <trkpt lat="42.86593" lon="-0.0655">
        <ele>2171</ele>
        <time>2017-02-26T10:16:13Z</time>
      </trkpt>
      <trkpt lat="42.86591" lon="-0.06553">
        <ele>2170</ele>
        <time>2017-02-26T10:16:16Z</time>
      </trkpt>
      <trkpt lat="42.86588" lon="-0.06557">
        <ele>2172</ele>
        <time>2017-02-26T10:16:22Z</time>
      </trkpt>
      <trkpt lat="42.86586" lon="-0.06559">
        <ele>2172</ele>
        <time>2017-02-26T10:16:25Z</time>
      </trkpt>
      <trkpt lat="42.86585" lon="-0.06565">
        <ele>2174</ele>
        <time>2017-02-26T10:16:31Z</time>
      </trkpt>
      <trkpt lat="42.86582" lon="-0.06579">
        <ele>2177</ele>
        <time>2017-02-26T10:16:46Z</time>
      </trkpt>
      <trkpt lat="42.86581" lon="-0.06581">
        <ele>2177</ele>
        <time>2017-02-26T10:16:50Z</time>
      </trkpt>
      <trkpt lat="42.8658" lon="-0.06587">
        <ele>2178</ele>
        <time>2017-02-26T10:16:57Z</time>
      </trkpt>
      <trkpt lat="42.86579" lon="-0.06591">
        <ele>2179</ele>
        <time>2017-02-26T10:17:00Z</time>
      </trkpt>
      <trkpt lat="42.8658" lon="-0.06596">
        <ele>2180</ele>
        <time>2017-02-26T10:17:06Z</time>
      </trkpt>
      <trkpt lat="42.8658" lon="-0.066">
        <ele>2179</ele>
        <time>2017-02-26T10:17:09Z</time>
      </trkpt>
      <trkpt lat="42.86585" lon="-0.06607">
        <ele>2182</ele>
        <time>2017-02-26T10:17:18Z</time>
      </trkpt>
      <trkpt lat="42.86586" lon="-0.0661">
        <ele>2182</ele>
        <time>2017-02-26T10:17:20Z</time>
      </trkpt>
      <trkpt lat="42.86589" lon="-0.06615">
        <ele>2183</ele>
        <time>2017-02-26T10:17:26Z</time>
      </trkpt>
      <trkpt lat="42.8659" lon="-0.06617">
        <ele>2184</ele>
        <time>2017-02-26T10:17:29Z</time>
      </trkpt>
      <trkpt lat="42.86591" lon="-0.06619">
        <ele>2185</ele>
        <time>2017-02-26T10:17:32Z</time>
      </trkpt>
      <trkpt lat="42.86601" lon="-0.06637">
        <ele>2189</ele>
        <time>2017-02-26T10:17:57Z</time>
      </trkpt>
      <trkpt lat="42.86602" lon="-0.06639">
        <ele>2189</ele>
        <time>2017-02-26T10:18:00Z</time>
      </trkpt>
      <trkpt lat="42.86603" lon="-0.06642">
        <ele>2190</ele>
        <time>2017-02-26T10:18:04Z</time>
      </trkpt>
      <trkpt lat="42.86606" lon="-0.06646">
        <ele>2191</ele>
        <time>2017-02-26T10:18:18Z</time>
      </trkpt>
      <trkpt lat="42.86608" lon="-0.06648">
        <ele>2192</ele>
        <time>2017-02-26T10:18:21Z</time>
      </trkpt>
      <trkpt lat="42.8661" lon="-0.0665">
        <ele>2192</ele>
        <time>2017-02-26T10:18:24Z</time>
      </trkpt>
      <trkpt lat="42.86622" lon="-0.06667">
        <ele>2197</ele>
        <time>2017-02-26T10:18:48Z</time>
      </trkpt>
      <trkpt lat="42.86624" lon="-0.0667">
        <ele>2197</ele>
        <time>2017-02-26T10:18:51Z</time>
      </trkpt>
      <trkpt lat="42.86627" lon="-0.06674">
        <ele>2199</ele>
        <time>2017-02-26T10:18:57Z</time>
      </trkpt>
      <trkpt lat="42.86629" lon="-0.06679">
        <ele>2199</ele>
        <time>2017-02-26T10:19:03Z</time>
      </trkpt>
      <trkpt lat="42.8663" lon="-0.06682">
        <ele>2200</ele>
        <time>2017-02-26T10:19:06Z</time>
      </trkpt>
      <trkpt lat="42.86631" lon="-0.06691">
        <ele>2201</ele>
        <time>2017-02-26T10:19:16Z</time>
      </trkpt>
      <trkpt lat="42.86631" lon="-0.06696">
        <ele>2204</ele>
        <time>2017-02-26T10:19:24Z</time>
      </trkpt>
      <trkpt lat="42.86628" lon="-0.06697">
        <ele>2205</ele>
        <time>2017-02-26T10:19:28Z</time>
      </trkpt>
      <trkpt lat="42.86626" lon="-0.06697">
        <ele>2205</ele>
        <time>2017-02-26T10:19:31Z</time>
      </trkpt>
      <trkpt lat="42.86622" lon="-0.06696">
        <ele>2205</ele>
        <time>2017-02-26T10:19:37Z</time>
      </trkpt>
      <trkpt lat="42.8662" lon="-0.06697">
        <ele>2206</ele>
        <time>2017-02-26T10:19:40Z</time>
      </trkpt>
      <trkpt lat="42.86623" lon="-0.06702">
        <ele>2207</ele>
        <time>2017-02-26T10:19:46Z</time>
      </trkpt>
      <trkpt lat="42.86624" lon="-0.06705">
        <ele>2210</ele>
        <time>2017-02-26T10:19:49Z</time>
      </trkpt>
      <trkpt lat="42.8663" lon="-0.06724">
        <ele>2213</ele>
        <time>2017-02-26T10:20:10Z</time>
      </trkpt>
      <trkpt lat="42.86632" lon="-0.06726">
        <ele>2214</ele>
        <time>2017-02-26T10:20:13Z</time>
      </trkpt>
      <trkpt lat="42.86633" lon="-0.06728">
        <ele>2214</ele>
        <time>2017-02-26T10:20:16Z</time>
      </trkpt>
      <trkpt lat="42.86636" lon="-0.06742">
        <ele>2217</ele>
        <time>2017-02-26T10:20:35Z</time>
      </trkpt>
      <trkpt lat="42.86636" lon="-0.06745">
        <ele>2218</ele>
        <time>2017-02-26T10:20:38Z</time>
      </trkpt>
      <trkpt lat="42.86637" lon="-0.06747">
        <ele>2218</ele>
        <time>2017-02-26T10:20:41Z</time>
      </trkpt>
      <trkpt lat="42.86637" lon="-0.0675">
        <ele>2219</ele>
        <time>2017-02-26T10:20:44Z</time>
      </trkpt>
      <trkpt lat="42.86636" lon="-0.06767">
        <ele>2223</ele>
        <time>2017-02-26T10:21:05Z</time>
      </trkpt>
      <trkpt lat="42.86634" lon="-0.06767">
        <ele>2224</ele>
        <time>2017-02-26T10:21:09Z</time>
      </trkpt>
      <trkpt lat="42.86632" lon="-0.06767">
        <ele>2224</ele>
        <time>2017-02-26T10:21:12Z</time>
      </trkpt>
      <trkpt lat="42.8663" lon="-0.06766">
        <ele>2224</ele>
        <time>2017-02-26T10:21:15Z</time>
      </trkpt>
      <trkpt lat="42.86627" lon="-0.06765">
        <ele>2225</ele>
        <time>2017-02-26T10:21:23Z</time>
      </trkpt>
      <trkpt lat="42.86625" lon="-0.06766">
        <ele>2225</ele>
        <time>2017-02-26T10:21:26Z</time>
      </trkpt>
      <trkpt lat="42.86624" lon="-0.06768">
        <ele>2227</ele>
        <time>2017-02-26T10:21:30Z</time>
      </trkpt>
      <trkpt lat="42.86624" lon="-0.06771">
        <ele>2228</ele>
        <time>2017-02-26T10:21:33Z</time>
      </trkpt>
      <trkpt lat="42.86626" lon="-0.0678">
        <ele>2229</ele>
        <time>2017-02-26T10:21:42Z</time>
      </trkpt>
      <trkpt lat="42.86625" lon="-0.06782">
        <ele>2230</ele>
        <time>2017-02-26T10:21:48Z</time>
      </trkpt>
      <trkpt lat="42.86622" lon="-0.06782">
        <ele>2231</ele>
        <time>2017-02-26T10:21:51Z</time>
      </trkpt>
      <trkpt lat="42.8662" lon="-0.06781">
        <ele>2231</ele>
        <time>2017-02-26T10:21:54Z</time>
      </trkpt>
      <trkpt lat="42.86614" lon="-0.06778">
        <ele>2232</ele>
        <time>2017-02-26T10:22:02Z</time>
      </trkpt>
      <trkpt lat="42.86612" lon="-0.06777">
        <ele>2232</ele>
        <time>2017-02-26T10:22:05Z</time>
      </trkpt>
      <trkpt lat="42.86607" lon="-0.06775">
        <ele>2233</ele>
        <time>2017-02-26T10:22:10Z</time>
      </trkpt>
      <trkpt lat="42.86605" lon="-0.06775">
        <ele>2234</ele>
        <time>2017-02-26T10:22:13Z</time>
      </trkpt>
      <trkpt lat="42.86603" lon="-0.06774">
        <ele>2236</ele>
        <time>2017-02-26T10:22:27Z</time>
      </trkpt>
      <trkpt lat="42.86599" lon="-0.06775">
        <ele>2236</ele>
        <time>2017-02-26T10:22:34Z</time>
      </trkpt>
      <trkpt lat="42.86588" lon="-0.06779">
        <ele>2239</ele>
        <time>2017-02-26T10:22:49Z</time>
      </trkpt>
      <trkpt lat="42.86583" lon="-0.06783">
        <ele>2240</ele>
        <time>2017-02-26T10:22:58Z</time>
      </trkpt>
      <trkpt lat="42.86587" lon="-0.06798">
        <ele>2245</ele>
        <time>2017-02-26T10:23:15Z</time>
      </trkpt>
      <trkpt lat="42.86589" lon="-0.068">
        <ele>2245</ele>
        <time>2017-02-26T10:23:19Z</time>
      </trkpt>
      <trkpt lat="42.8659" lon="-0.06803">
        <ele>2246</ele>
        <time>2017-02-26T10:23:23Z</time>
      </trkpt>
      <trkpt lat="42.86591" lon="-0.06805">
        <ele>2246</ele>
        <time>2017-02-26T10:23:26Z</time>
      </trkpt>
      <trkpt lat="42.86594" lon="-0.0681">
        <ele>2248</ele>
        <time>2017-02-26T10:23:32Z</time>
      </trkpt>
      <trkpt lat="42.86595" lon="-0.06812">
        <ele>2249</ele>
        <time>2017-02-26T10:23:35Z</time>
      </trkpt>
      <trkpt lat="42.86599" lon="-0.06816">
        <ele>2250</ele>
        <time>2017-02-26T10:23:41Z</time>
      </trkpt>
      <trkpt lat="42.866" lon="-0.06818">
        <ele>2250</ele>
        <time>2017-02-26T10:23:45Z</time>
      </trkpt>
      <trkpt lat="42.86603" lon="-0.06823">
        <ele>2251</ele>
        <time>2017-02-26T10:23:51Z</time>
      </trkpt>
      <trkpt lat="42.86604" lon="-0.06825">
        <ele>2252</ele>
        <time>2017-02-26T10:23:55Z</time>
      </trkpt>
      <trkpt lat="42.86613" lon="-0.06844">
        <ele>2256</ele>
        <time>2017-02-26T10:24:19Z</time>
      </trkpt>
      <trkpt lat="42.86614" lon="-0.06847">
        <ele>2257</ele>
        <time>2017-02-26T10:24:22Z</time>
      </trkpt>
      <trkpt lat="42.86616" lon="-0.06849">
        <ele>2257</ele>
        <time>2017-02-26T10:24:25Z</time>
      </trkpt>
      <trkpt lat="42.86616" lon="-0.06851">
        <ele>2257</ele>
        <time>2017-02-26T10:24:28Z</time>
      </trkpt>
      <trkpt lat="42.86617" lon="-0.06853">
        <ele>2258</ele>
        <time>2017-02-26T10:24:31Z</time>
      </trkpt>
      <trkpt lat="42.86628" lon="-0.06917">
        <ele>2270</ele>
        <time>2017-02-26T10:25:40Z</time>
      </trkpt>
      <trkpt lat="42.86626" lon="-0.06931">
        <ele>2273</ele>
        <time>2017-02-26T10:25:56Z</time>
      </trkpt>
      <trkpt lat="42.86626" lon="-0.06933">
        <ele>2273</ele>
        <time>2017-02-26T10:25:59Z</time>
      </trkpt>
      <trkpt lat="42.86626" lon="-0.06955">
        <ele>2278</ele>
        <time>2017-02-26T10:26:25Z</time>
      </trkpt>
      <trkpt lat="42.86625" lon="-0.06963">
        <ele>2279</ele>
        <time>2017-02-26T10:26:35Z</time>
      </trkpt>
      <trkpt lat="42.86624" lon="-0.06965">
        <ele>2279</ele>
        <time>2017-02-26T10:26:38Z</time>
      </trkpt>
      <trkpt lat="42.86623" lon="-0.06968">
        <ele>2279.6</ele>
        <time>2017-02-26T10:26:41Z</time>
      </trkpt>
      <trkpt lat="42.86625" lon="-0.06983">
        <ele>2281</ele>
        <time>2017-02-26T10:26:54Z</time>
      </trkpt>
      <trkpt lat="42.86625" lon="-0.07007">
        <ele>2281</ele>
        <time>2017-02-26T10:27:06Z</time>
      </trkpt>
      <trkpt lat="42.86625" lon="-0.07014">
        <ele>2281</ele>
        <time>2017-02-26T10:27:09Z</time>
      </trkpt>
      <trkpt lat="42.86627" lon="-0.07018">
        <ele>2282</ele>
        <time>2017-02-26T10:27:11Z</time>
      </trkpt>
      <trkpt lat="42.86628" lon="-0.07021">
        <ele>2281</ele>
        <time>2017-02-26T10:27:12Z</time>
      </trkpt>
      <trkpt lat="42.86628" lon="-0.07028">
        <ele>2281</ele>
        <time>2017-02-26T10:27:15Z</time>
      </trkpt>
      <trkpt lat="42.8663" lon="-0.07032">
        <ele>2281</ele>
        <time>2017-02-26T10:27:17Z</time>
      </trkpt>
      <trkpt lat="42.86632" lon="-0.07036">
        <ele>2281</ele>
        <time>2017-02-26T10:27:19Z</time>
      </trkpt>
      <trkpt lat="42.86635" lon="-0.07042">
        <ele>2281</ele>
        <time>2017-02-26T10:27:23Z</time>
      </trkpt>
      <trkpt lat="42.86641" lon="-0.07047">
        <ele>2281</ele>
        <time>2017-02-26T10:27:29Z</time>
      </trkpt>
      <trkpt lat="42.86643" lon="-0.07048">
        <ele>2282</ele>
        <time>2017-02-26T10:27:32Z</time>
      </trkpt>
      <trkpt lat="42.86645" lon="-0.07049">
        <ele>2283</ele>
        <time>2017-02-26T10:27:35Z</time>
      </trkpt>
      <trkpt lat="42.86646" lon="-0.07051">
        <ele>2283</ele>
        <time>2017-02-26T10:27:39Z</time>
      </trkpt>
      <trkpt lat="42.86647" lon="-0.07053">
        <ele>2284</ele>
        <time>2017-02-26T10:27:43Z</time>
      </trkpt>
      <trkpt lat="42.86648" lon="-0.07057">
        <ele>2285</ele>
        <time>2017-02-26T10:27:46Z</time>
      </trkpt>
      <trkpt lat="42.86648" lon="-0.07059">
        <ele>2285</ele>
        <time>2017-02-26T10:27:48Z</time>
      </trkpt>
      <trkpt lat="42.86646" lon="-0.07069">
        <ele>2288</ele>
        <time>2017-02-26T10:27:56Z</time>
      </trkpt>
      <trkpt lat="42.86645" lon="-0.07072">
        <ele>2288</ele>
        <time>2017-02-26T10:27:58Z</time>
      </trkpt>
      <trkpt lat="42.86644" lon="-0.07076">
        <ele>2288</ele>
        <time>2017-02-26T10:28:00Z</time>
      </trkpt>
      <trkpt lat="42.86644" lon="-0.07079">
        <ele>2289</ele>
        <time>2017-02-26T10:28:02Z</time>
      </trkpt>
      <trkpt lat="42.86644" lon="-0.07085">
        <ele>2289</ele>
        <time>2017-02-26T10:28:05Z</time>
      </trkpt>
      <trkpt lat="42.86646" lon="-0.07114">
        <ele>2289</ele>
        <time>2017-02-26T10:28:23Z</time>
      </trkpt>
      <trkpt lat="42.86648" lon="-0.07124">
        <ele>2291</ele>
        <time>2017-02-26T10:28:32Z</time>
      </trkpt>
      <trkpt lat="42.86651" lon="-0.07128">
        <ele>2292</ele>
        <time>2017-02-26T10:28:36Z</time>
      </trkpt>
      <trkpt lat="42.86653" lon="-0.07131">
        <ele>2293</ele>
        <time>2017-02-26T10:28:39Z</time>
      </trkpt>
      <trkpt lat="42.86655" lon="-0.07132">
        <ele>2293</ele>
        <time>2017-02-26T10:28:42Z</time>
      </trkpt>
      <trkpt lat="42.86657" lon="-0.07132">
        <ele>2293</ele>
        <time>2017-02-26T10:28:45Z</time>
      </trkpt>
      <trkpt lat="42.86657" lon="-0.07129">
        <ele>2293</ele>
        <time>2017-02-26T10:28:49Z</time>
      </trkpt>
      <trkpt lat="42.86656" lon="-0.07127">
        <ele>2293</ele>
        <time>2017-02-26T10:29:25Z</time>
      </trkpt>
      <trkpt lat="42.86657" lon="-0.07128">
        <ele>2293</ele>
        <time>2017-02-26T10:29:31Z</time>
      </trkpt>
      <trkpt lat="42.86659" lon="-0.07131">
        <ele>2294</ele>
        <time>2017-02-26T10:29:36Z</time>
      </trkpt>
      <trkpt lat="42.86662" lon="-0.07136">
        <ele>2294</ele>
        <time>2017-02-26T10:29:41Z</time>
      </trkpt>
      <trkpt lat="42.86672" lon="-0.0715">
        <ele>2294</ele>
        <time>2017-02-26T10:29:56Z</time>
      </trkpt>
      <trkpt lat="42.86676" lon="-0.07154">
        <ele>2295</ele>
        <time>2017-02-26T10:30:01Z</time>
      </trkpt>
      <trkpt lat="42.86678" lon="-0.07155">
        <ele>2295</ele>
        <time>2017-02-26T10:30:04Z</time>
      </trkpt>
      <trkpt lat="42.86683" lon="-0.07157">
        <ele>2296</ele>
        <time>2017-02-26T10:30:10Z</time>
      </trkpt>
      <trkpt lat="42.86691" lon="-0.07163">
        <ele>2297</ele>
        <time>2017-02-26T10:30:22Z</time>
      </trkpt>
      <trkpt lat="42.86693" lon="-0.07165">
        <ele>2297</ele>
        <time>2017-02-26T10:30:24Z</time>
      </trkpt>
      <trkpt lat="42.86695" lon="-0.07167">
        <ele>2297</ele>
        <time>2017-02-26T10:30:28Z</time>
      </trkpt>
      <trkpt lat="42.86724" lon="-0.07187">
        <ele>2301</ele>
        <time>2017-02-26T10:31:02Z</time>
      </trkpt>
      <trkpt lat="42.86731" lon="-0.07191">
        <ele>2302</ele>
        <time>2017-02-26T10:31:11Z</time>
      </trkpt>
      <trkpt lat="42.86733" lon="-0.07191">
        <ele>2303</ele>
        <time>2017-02-26T10:31:14Z</time>
      </trkpt>
      <trkpt lat="42.86736" lon="-0.07192">
        <ele>2303</ele>
        <time>2017-02-26T10:31:17Z</time>
      </trkpt>
      <trkpt lat="42.86738" lon="-0.07192">
        <ele>2303</ele>
        <time>2017-02-26T10:31:20Z</time>
      </trkpt>
      <trkpt lat="42.86743" lon="-0.07194">
        <ele>2304</ele>
        <time>2017-02-26T10:31:25Z</time>
      </trkpt>
      <trkpt lat="42.86744" lon="-0.07195">
        <ele>2305</ele>
        <time>2017-02-26T10:31:28Z</time>
      </trkpt>
      <trkpt lat="42.86746" lon="-0.07197">
        <ele>2305</ele>
        <time>2017-02-26T10:31:31Z</time>
      </trkpt>
      <trkpt lat="42.86747" lon="-0.07199">
        <ele>2306</ele>
        <time>2017-02-26T10:31:34Z</time>
      </trkpt>
      <trkpt lat="42.86749" lon="-0.07206">
        <ele>2307</ele>
        <time>2017-02-26T10:31:40Z</time>
      </trkpt>
      <trkpt lat="42.86751" lon="-0.07215">
        <ele>2308</ele>
        <time>2017-02-26T10:31:48Z</time>
      </trkpt>
      <trkpt lat="42.86752" lon="-0.07218">
        <ele>2309</ele>
        <time>2017-02-26T10:31:51Z</time>
      </trkpt>
      <trkpt lat="42.86751" lon="-0.07226">
        <ele>2309</ele>
        <time>2017-02-26T10:32:00Z</time>
      </trkpt>
      <trkpt lat="42.86751" lon="-0.07228">
        <ele>2310</ele>
        <time>2017-02-26T10:32:03Z</time>
      </trkpt>
      <trkpt lat="42.86749" lon="-0.07231">
        <ele>2311</ele>
        <time>2017-02-26T10:32:06Z</time>
      </trkpt>
      <trkpt lat="42.86748" lon="-0.07233">
        <ele>2311</ele>
        <time>2017-02-26T10:32:09Z</time>
      </trkpt>
      <trkpt lat="42.86747" lon="-0.07234">
        <ele>2311</ele>
        <time>2017-02-26T10:32:12Z</time>
      </trkpt>
      <trkpt lat="42.86744" lon="-0.07236">
        <ele>2312</ele>
        <time>2017-02-26T10:32:15Z</time>
      </trkpt>
      <trkpt lat="42.86735" lon="-0.07239">
        <ele>2314</ele>
        <time>2017-02-26T10:32:25Z</time>
      </trkpt>
      <trkpt lat="42.86734" lon="-0.07239">
        <ele>2314</ele>
        <time>2017-02-26T10:32:36Z</time>
      </trkpt>
      <trkpt lat="42.86732" lon="-0.0724">
        <ele>2315</ele>
        <time>2017-02-26T10:32:40Z</time>
      </trkpt>
      <trkpt lat="42.8673" lon="-0.07242">
        <ele>2316</ele>
        <time>2017-02-26T10:32:43Z</time>
      </trkpt>
      <trkpt lat="42.86729" lon="-0.07244">
        <ele>2316</ele>
        <time>2017-02-26T10:32:46Z</time>
      </trkpt>
      <trkpt lat="42.86727" lon="-0.07245">
        <ele>2316</ele>
        <time>2017-02-26T10:32:50Z</time>
      </trkpt>
      <trkpt lat="42.86726" lon="-0.07248">
        <ele>2317</ele>
        <time>2017-02-26T10:32:54Z</time>
      </trkpt>
      <trkpt lat="42.86725" lon="-0.07251">
        <ele>2318</ele>
        <time>2017-02-26T10:32:58Z</time>
      </trkpt>
      <trkpt lat="42.86724" lon="-0.07253">
        <ele>2319</ele>
        <time>2017-02-26T10:33:02Z</time>
      </trkpt>
      <trkpt lat="42.86724" lon="-0.07256">
        <ele>2320</ele>
        <time>2017-02-26T10:33:05Z</time>
      </trkpt>
      <trkpt lat="42.86722" lon="-0.07258">
        <ele>2320</ele>
        <time>2017-02-26T10:33:08Z</time>
      </trkpt>
      <trkpt lat="42.86721" lon="-0.07261">
        <ele>2321</ele>
        <time>2017-02-26T10:33:11Z</time>
      </trkpt>
      <trkpt lat="42.8672" lon="-0.07268">
        <ele>2321</ele>
        <time>2017-02-26T10:33:17Z</time>
      </trkpt>
      <trkpt lat="42.86719" lon="-0.07271">
        <ele>2321</ele>
        <time>2017-02-26T10:33:20Z</time>
      </trkpt>
      <trkpt lat="42.86718" lon="-0.07274">
        <ele>2322</ele>
        <time>2017-02-26T10:33:23Z</time>
      </trkpt>
      <trkpt lat="42.86717" lon="-0.07278">
        <ele>2322</ele>
        <time>2017-02-26T10:33:26Z</time>
      </trkpt>
      <trkpt lat="42.86717" lon="-0.07281">
        <ele>2322</ele>
        <time>2017-02-26T10:33:29Z</time>
      </trkpt>
      <trkpt lat="42.86717" lon="-0.07284">
        <ele>2323</ele>
        <time>2017-02-26T10:33:32Z</time>
      </trkpt>
      <trkpt lat="42.86718" lon="-0.0729">
        <ele>2324</ele>
        <time>2017-02-26T10:33:38Z</time>
      </trkpt>
      <trkpt lat="42.8672" lon="-0.07293">
        <ele>2324</ele>
        <time>2017-02-26T10:33:41Z</time>
      </trkpt>
      <trkpt lat="42.86718" lon="-0.07293">
        <ele>2325</ele>
        <time>2017-02-26T10:33:48Z</time>
      </trkpt>
      <trkpt lat="42.86713" lon="-0.07292">
        <ele>2326</ele>
        <time>2017-02-26T10:33:54Z</time>
      </trkpt>
      <trkpt lat="42.86711" lon="-0.07292">
        <ele>2326</ele>
        <time>2017-02-26T10:33:57Z</time>
      </trkpt>
      <trkpt lat="42.86709" lon="-0.07293">
        <ele>2327</ele>
        <time>2017-02-26T10:34:00Z</time>
      </trkpt>
      <trkpt lat="42.8671" lon="-0.07296">
        <ele>2328</ele>
        <time>2017-02-26T10:34:03Z</time>
      </trkpt>
      <trkpt lat="42.86711" lon="-0.07303">
        <ele>2329</ele>
        <time>2017-02-26T10:34:10Z</time>
      </trkpt>
      <trkpt lat="42.86711" lon="-0.07306">
        <ele>2330</ele>
        <time>2017-02-26T10:34:13Z</time>
      </trkpt>
      <trkpt lat="42.86712" lon="-0.07309">
        <ele>2330</ele>
        <time>2017-02-26T10:34:16Z</time>
      </trkpt>
      <trkpt lat="42.86712" lon="-0.07312">
        <ele>2331</ele>
        <time>2017-02-26T10:34:19Z</time>
      </trkpt>
      <trkpt lat="42.86711" lon="-0.07315">
        <ele>2332</ele>
        <time>2017-02-26T10:34:22Z</time>
      </trkpt>
      <trkpt lat="42.8671" lon="-0.07318">
        <ele>2332</ele>
        <time>2017-02-26T10:34:25Z</time>
      </trkpt>
      <trkpt lat="42.86708" lon="-0.0732">
        <ele>2333</ele>
        <time>2017-02-26T10:34:28Z</time>
      </trkpt>
      <trkpt lat="42.86701" lon="-0.07325">
        <ele>2334</ele>
        <time>2017-02-26T10:34:37Z</time>
      </trkpt>
      <trkpt lat="42.86688" lon="-0.07336">
        <ele>2335</ele>
        <time>2017-02-26T10:34:52Z</time>
      </trkpt>
      <trkpt lat="42.86683" lon="-0.07341">
        <ele>2337</ele>
        <time>2017-02-26T10:35:00Z</time>
      </trkpt>
      <trkpt lat="42.86681" lon="-0.07344">
        <ele>2337</ele>
        <time>2017-02-26T10:35:03Z</time>
      </trkpt>
      <trkpt lat="42.86677" lon="-0.0735">
        <ele>2338</ele>
        <time>2017-02-26T10:35:12Z</time>
      </trkpt>
      <trkpt lat="42.86673" lon="-0.07358">
        <ele>2340</ele>
        <time>2017-02-26T10:35:21Z</time>
      </trkpt>
      <trkpt lat="42.86672" lon="-0.07366">
        <ele>2341</ele>
        <time>2017-02-26T10:35:30Z</time>
      </trkpt>
      <trkpt lat="42.86672" lon="-0.07369">
        <ele>2343</ele>
        <time>2017-02-26T10:35:33Z</time>
      </trkpt>
      <trkpt lat="42.8667" lon="-0.07377">
        <ele>2344</ele>
        <time>2017-02-26T10:35:42Z</time>
      </trkpt>
      <trkpt lat="42.86669" lon="-0.07386">
        <ele>2346</ele>
        <time>2017-02-26T10:35:51Z</time>
      </trkpt>
      <trkpt lat="42.86669" lon="-0.07389">
        <ele>2346</ele>
        <time>2017-02-26T10:35:53Z</time>
      </trkpt>
      <trkpt lat="42.86671" lon="-0.07391">
        <ele>2346</ele>
        <time>2017-02-26T10:35:55Z</time>
      </trkpt>
      <trkpt lat="42.86673" lon="-0.07392">
        <ele>2348</ele>
        <time>2017-02-26T10:35:58Z</time>
      </trkpt>
      <trkpt lat="42.86681" lon="-0.07393">
        <ele>2351</ele>
        <time>2017-02-26T10:36:13Z</time>
      </trkpt>
      <trkpt lat="42.86683" lon="-0.07394">
        <ele>2351</ele>
        <time>2017-02-26T10:36:16Z</time>
      </trkpt>
      <trkpt lat="42.86684" lon="-0.07397">
        <ele>2351</ele>
        <time>2017-02-26T10:36:19Z</time>
      </trkpt>
      <trkpt lat="42.86684" lon="-0.07402">
        <ele>2352</ele>
        <time>2017-02-26T10:36:25Z</time>
      </trkpt>
      <trkpt lat="42.86683" lon="-0.07405">
        <ele>2352</ele>
        <time>2017-02-26T10:36:28Z</time>
      </trkpt>
      <trkpt lat="42.86682" lon="-0.07407">
        <ele>2353</ele>
        <time>2017-02-26T10:36:31Z</time>
      </trkpt>
      <trkpt lat="42.86681" lon="-0.0741">
        <ele>2354</ele>
        <time>2017-02-26T10:36:35Z</time>
      </trkpt>
      <trkpt lat="42.8668" lon="-0.07413">
        <ele>2354</ele>
        <time>2017-02-26T10:36:39Z</time>
      </trkpt>
      <trkpt lat="42.8668" lon="-0.07416">
        <ele>2355</ele>
        <time>2017-02-26T10:36:42Z</time>
      </trkpt>
      <trkpt lat="42.86681" lon="-0.07429">
        <ele>2357</ele>
        <time>2017-02-26T10:36:59Z</time>
      </trkpt>
      <trkpt lat="42.86682" lon="-0.07434">
        <ele>2359</ele>
        <time>2017-02-26T10:37:05Z</time>
      </trkpt>
      <trkpt lat="42.86684" lon="-0.07437">
        <ele>2360</ele>
        <time>2017-02-26T10:37:08Z</time>
      </trkpt>
      <trkpt lat="42.86686" lon="-0.0744">
        <ele>2361</ele>
        <time>2017-02-26T10:37:20Z</time>
      </trkpt>
      <trkpt lat="42.86688" lon="-0.07442">
        <ele>2362</ele>
        <time>2017-02-26T10:37:24Z</time>
      </trkpt>
      <trkpt lat="42.86695" lon="-0.0745">
        <ele>2363</ele>
        <time>2017-02-26T10:37:39Z</time>
      </trkpt>
      <trkpt lat="42.86696" lon="-0.07451">
        <ele>2363</ele>
        <time>2017-02-26T10:37:42Z</time>
      </trkpt>
      <trkpt lat="42.86698" lon="-0.07454">
        <ele>2364</ele>
        <time>2017-02-26T10:37:45Z</time>
      </trkpt>
      <trkpt lat="42.867" lon="-0.07455">
        <ele>2364</ele>
        <time>2017-02-26T10:37:48Z</time>
      </trkpt>
      <trkpt lat="42.86702" lon="-0.07457">
        <ele>2365</ele>
        <time>2017-02-26T10:37:51Z</time>
      </trkpt>
      <trkpt lat="42.86705" lon="-0.0746">
        <ele>2366</ele>
        <time>2017-02-26T10:37:59Z</time>
      </trkpt>
      <trkpt lat="42.86703" lon="-0.0746">
        <ele>2366</ele>
        <time>2017-02-26T10:38:07Z</time>
      </trkpt>
      <trkpt lat="42.86703" lon="-0.07464">
        <ele>2367</ele>
        <time>2017-02-26T10:38:13Z</time>
      </trkpt>
      <trkpt lat="42.86705" lon="-0.07466">
        <ele>2367</ele>
        <time>2017-02-26T10:38:16Z</time>
      </trkpt>
      <trkpt lat="42.86707" lon="-0.07468">
        <ele>2368</ele>
        <time>2017-02-26T10:38:20Z</time>
      </trkpt>
      <trkpt lat="42.86708" lon="-0.0747">
        <ele>2369</ele>
        <time>2017-02-26T10:38:23Z</time>
      </trkpt>
      <trkpt lat="42.86709" lon="-0.07472">
        <ele>2370</ele>
        <time>2017-02-26T10:38:25Z</time>
      </trkpt>
      <trkpt lat="42.8671" lon="-0.07474">
        <ele>2371</ele>
        <time>2017-02-26T10:38:28Z</time>
      </trkpt>
      <trkpt lat="42.86711" lon="-0.07477">
        <ele>2371</ele>
        <time>2017-02-26T10:38:32Z</time>
      </trkpt>
      <trkpt lat="42.8671" lon="-0.07483">
        <ele>2372</ele>
        <time>2017-02-26T10:38:38Z</time>
      </trkpt>
      <trkpt lat="42.86708" lon="-0.07486">
        <ele>2373</ele>
        <time>2017-02-26T10:38:41Z</time>
      </trkpt>
      <trkpt lat="42.86707" lon="-0.07488">
        <ele>2373</ele>
        <time>2017-02-26T10:38:44Z</time>
      </trkpt>
      <trkpt lat="42.86706" lon="-0.0749">
        <ele>2374</ele>
        <time>2017-02-26T10:38:48Z</time>
      </trkpt>
      <trkpt lat="42.86703" lon="-0.07494">
        <ele>2375</ele>
        <time>2017-02-26T10:38:55Z</time>
      </trkpt>
      <trkpt lat="42.86702" lon="-0.07496">
        <ele>2376</ele>
        <time>2017-02-26T10:38:59Z</time>
      </trkpt>
      <trkpt lat="42.86701" lon="-0.07499">
        <ele>2377</ele>
        <time>2017-02-26T10:39:02Z</time>
      </trkpt>
      <trkpt lat="42.86703" lon="-0.07504">
        <ele>2378</ele>
        <time>2017-02-26T10:39:09Z</time>
      </trkpt>
      <trkpt lat="42.86704" lon="-0.07507">
        <ele>2379</ele>
        <time>2017-02-26T10:39:12Z</time>
      </trkpt>
      <trkpt lat="42.86705" lon="-0.0751">
        <ele>2381</ele>
        <time>2017-02-26T10:39:15Z</time>
      </trkpt>
      <trkpt lat="42.86704" lon="-0.07513">
        <ele>2381</ele>
        <time>2017-02-26T10:39:18Z</time>
      </trkpt>
      <trkpt lat="42.86702" lon="-0.07513">
        <ele>2381</ele>
        <time>2017-02-26T10:39:21Z</time>
      </trkpt>
      <trkpt lat="42.86699" lon="-0.07513">
        <ele>2382</ele>
        <time>2017-02-26T10:39:24Z</time>
      </trkpt>
      <trkpt lat="42.86695" lon="-0.07514">
        <ele>2383</ele>
        <time>2017-02-26T10:39:30Z</time>
      </trkpt>
      <trkpt lat="42.86693" lon="-0.07517">
        <ele>2384</ele>
        <time>2017-02-26T10:39:33Z</time>
      </trkpt>
      <trkpt lat="42.86684" lon="-0.07533">
        <ele>2387</ele>
        <time>2017-02-26T10:39:51Z</time>
      </trkpt>
      <trkpt lat="42.86682" lon="-0.07538">
        <ele>2388</ele>
        <time>2017-02-26T10:39:57Z</time>
      </trkpt>
      <trkpt lat="42.86681" lon="-0.07544">
        <ele>2388</ele>
        <time>2017-02-26T10:40:02Z</time>
      </trkpt>
      <trkpt lat="42.8668" lon="-0.07546">
        <ele>2387</ele>
        <time>2017-02-26T10:40:04Z</time>
      </trkpt>
      <trkpt lat="42.86681" lon="-0.07549">
        <ele>2387</ele>
        <time>2017-02-26T10:40:11Z</time>
      </trkpt>
      <trkpt lat="42.86681" lon="-0.07553">
        <ele>2387</ele>
        <time>2017-02-26T10:40:14Z</time>
      </trkpt>
      <trkpt lat="42.86682" lon="-0.07555">
        <ele>2387</ele>
        <time>2017-02-26T10:40:16Z</time>
      </trkpt>
      <trkpt lat="42.86684" lon="-0.07558">
        <ele>2387</ele>
        <time>2017-02-26T10:40:18Z</time>
      </trkpt>
      <trkpt lat="42.8669" lon="-0.07565">
        <ele>2387</ele>
        <time>2017-02-26T10:40:24Z</time>
      </trkpt>
      <trkpt lat="42.86698" lon="-0.07576">
        <ele>2386</ele>
        <time>2017-02-26T10:40:29Z</time>
      </trkpt>
      <trkpt lat="42.86702" lon="-0.07581">
        <ele>2385</ele>
        <time>2017-02-26T10:40:31Z</time>
      </trkpt>
      <trkpt lat="42.86717" lon="-0.07593">
        <ele>2385</ele>
        <time>2017-02-26T10:40:41Z</time>
      </trkpt>
      <trkpt lat="42.86721" lon="-0.07595">
        <ele>2385</ele>
        <time>2017-02-26T10:40:45Z</time>
      </trkpt>
      <trkpt lat="42.86723" lon="-0.07597">
        <ele>2385</ele>
        <time>2017-02-26T10:40:47Z</time>
      </trkpt>
      <trkpt lat="42.86727" lon="-0.076">
        <ele>2386</ele>
        <time>2017-02-26T10:40:51Z</time>
      </trkpt>
      <trkpt lat="42.86729" lon="-0.07602">
        <ele>2387</ele>
        <time>2017-02-26T10:40:53Z</time>
      </trkpt>
      <trkpt lat="42.86732" lon="-0.07605">
        <ele>2387</ele>
        <time>2017-02-26T10:40:58Z</time>
      </trkpt>
      <trkpt lat="42.86734" lon="-0.07607">
        <ele>2387</ele>
        <time>2017-02-26T10:41:00Z</time>
      </trkpt>
      <trkpt lat="42.86736" lon="-0.07608">
        <ele>2387</ele>
        <time>2017-02-26T10:41:02Z</time>
      </trkpt>
      <trkpt lat="42.86739" lon="-0.07608">
        <ele>2389</ele>
        <time>2017-02-26T10:41:05Z</time>
      </trkpt>
      <trkpt lat="42.8674" lon="-0.07607">
        <ele>2390</ele>
        <time>2017-02-26T10:41:08Z</time>
      </trkpt>
      <trkpt lat="42.86743" lon="-0.07606">
        <ele>2391</ele>
        <time>2017-02-26T10:41:11Z</time>
      </trkpt>
      <trkpt lat="42.86749" lon="-0.07605">
        <ele>2393</ele>
        <time>2017-02-26T10:41:19Z</time>
      </trkpt>
      <trkpt lat="42.86753" lon="-0.07605">
        <ele>2394</ele>
        <time>2017-02-26T10:41:25Z</time>
      </trkpt>
      <trkpt lat="42.86756" lon="-0.07605">
        <ele>2395</ele>
        <time>2017-02-26T10:41:28Z</time>
      </trkpt>
      <trkpt lat="42.8676" lon="-0.07607">
        <ele>2396</ele>
        <time>2017-02-26T10:41:34Z</time>
      </trkpt>
      <trkpt lat="42.86762" lon="-0.07608">
        <ele>2396</ele>
        <time>2017-02-26T10:41:37Z</time>
      </trkpt>
      <trkpt lat="42.86764" lon="-0.0761">
        <ele>2397</ele>
        <time>2017-02-26T10:41:40Z</time>
      </trkpt>
      <trkpt lat="42.86765" lon="-0.07613">
        <ele>2398</ele>
        <time>2017-02-26T10:41:43Z</time>
      </trkpt>
      <trkpt lat="42.86766" lon="-0.07615">
        <ele>2398</ele>
        <time>2017-02-26T10:41:46Z</time>
      </trkpt>
      <trkpt lat="42.86766" lon="-0.07618">
        <ele>2399</ele>
        <time>2017-02-26T10:41:49Z</time>
      </trkpt>
      <trkpt lat="42.86766" lon="-0.07621">
        <ele>2400</ele>
        <time>2017-02-26T10:41:52Z</time>
      </trkpt>
      <trkpt lat="42.86766" lon="-0.07627">
        <ele>2400</ele>
        <time>2017-02-26T10:41:57Z</time>
      </trkpt>
      <trkpt lat="42.86767" lon="-0.07629">
        <ele>2400</ele>
        <time>2017-02-26T10:41:59Z</time>
      </trkpt>
      <trkpt lat="42.86767" lon="-0.07632">
        <ele>2401</ele>
        <time>2017-02-26T10:42:02Z</time>
      </trkpt>
      <trkpt lat="42.86765" lon="-0.07632">
        <ele>2402</ele>
        <time>2017-02-26T10:42:28Z</time>
      </trkpt>
      <trkpt lat="42.86763" lon="-0.07632">
        <ele>2402</ele>
        <time>2017-02-26T10:44:53Z</time>
      </trkpt>
      <trkpt lat="42.86763" lon="-0.07634">
        <ele>2402</ele>
        <time>2017-02-26T10:45:05Z</time>
      </trkpt>
      <trkpt lat="42.86761" lon="-0.07638">
        <ele>2401</ele>
        <time>2017-02-26T10:45:09Z</time>
      </trkpt>
      <trkpt lat="42.86761" lon="-0.07642">
        <ele>2402</ele>
        <time>2017-02-26T10:45:12Z</time>
      </trkpt>
      <trkpt lat="42.86761" lon="-0.07644">
        <ele>2403</ele>
        <time>2017-02-26T10:45:15Z</time>
      </trkpt>
      <trkpt lat="42.86763" lon="-0.0765">
        <ele>2404</ele>
        <time>2017-02-26T10:45:22Z</time>
      </trkpt>
      <trkpt lat="42.86763" lon="-0.07653">
        <ele>2405</ele>
        <time>2017-02-26T10:45:25Z</time>
      </trkpt>
      <trkpt lat="42.86763" lon="-0.07658">
        <ele>2408</ele>
        <time>2017-02-26T10:45:34Z</time>
      </trkpt>
      <trkpt lat="42.86764" lon="-0.0766">
        <ele>2409</ele>
        <time>2017-02-26T10:45:38Z</time>
      </trkpt>
      <trkpt lat="42.86764" lon="-0.07663">
        <ele>2411</ele>
        <time>2017-02-26T10:45:44Z</time>
      </trkpt>
      <trkpt lat="42.86766" lon="-0.07665">
        <ele>2412</ele>
        <time>2017-02-26T10:45:48Z</time>
      </trkpt>
      <trkpt lat="42.86766" lon="-0.0767">
        <ele>2413</ele>
        <time>2017-02-26T10:45:57Z</time>
      </trkpt>
      <trkpt lat="42.86766" lon="-0.07676">
        <ele>2415</ele>
        <time>2017-02-26T10:46:05Z</time>
      </trkpt>
      <trkpt lat="42.86769" lon="-0.07685">
        <ele>2422</ele>
        <time>2017-02-26T10:46:33Z</time>
      </trkpt>
      <trkpt lat="42.86771" lon="-0.07687">
        <ele>2423</ele>
        <time>2017-02-26T10:46:39Z</time>
      </trkpt>
      <trkpt lat="42.86771" lon="-0.0769">
        <ele>2424</ele>
        <time>2017-02-26T10:46:44Z</time>
      </trkpt>
      <trkpt lat="42.86772" lon="-0.07692">
        <ele>2427</ele>
        <time>2017-02-26T10:46:56Z</time>
      </trkpt>
      <trkpt lat="42.86774" lon="-0.07696">
        <ele>2429</ele>
        <time>2017-02-26T10:47:14Z</time>
      </trkpt>
      <trkpt lat="42.86776" lon="-0.07698">
        <ele>2431</ele>
        <time>2017-02-26T10:47:20Z</time>
      </trkpt>
      <trkpt lat="42.86777" lon="-0.07701">
        <ele>2434</ele>
        <time>2017-02-26T10:47:25Z</time>
      </trkpt>
      <trkpt lat="42.86779" lon="-0.07703">
        <ele>2434</ele>
        <time>2017-02-26T10:47:30Z</time>
      </trkpt>
      <trkpt lat="42.8678" lon="-0.07705">
        <ele>2436</ele>
        <time>2017-02-26T10:47:34Z</time>
      </trkpt>
      <trkpt lat="42.86782" lon="-0.07707">
        <ele>2436</ele>
        <time>2017-02-26T10:47:38Z</time>
      </trkpt>
      <trkpt lat="42.86783" lon="-0.07708">
        <ele>2438</ele>
        <time>2017-02-26T10:47:43Z</time>
      </trkpt>
      <trkpt lat="42.86785" lon="-0.0771">
        <ele>2439</ele>
        <time>2017-02-26T10:47:47Z</time>
      </trkpt>
      <trkpt lat="42.86787" lon="-0.0771">
        <ele>2440</ele>
        <time>2017-02-26T10:47:52Z</time>
      </trkpt>
      <trkpt lat="42.86789" lon="-0.0771">
        <ele>2442</ele>
        <time>2017-02-26T10:47:59Z</time>
      </trkpt>
      <trkpt lat="42.86791" lon="-0.07711">
        <ele>2444</ele>
        <time>2017-02-26T10:48:06Z</time>
      </trkpt>
      <trkpt lat="42.86793" lon="-0.07712">
        <ele>2445</ele>
        <time>2017-02-26T10:48:14Z</time>
      </trkpt>
      <trkpt lat="42.86792" lon="-0.07715">
        <ele>2445</ele>
        <time>2017-02-26T10:48:16Z</time>
      </trkpt>
      <trkpt lat="42.86791" lon="-0.07717">
        <ele>2445</ele>
        <time>2017-02-26T10:48:19Z</time>
      </trkpt>
      <trkpt lat="42.86787" lon="-0.0772">
        <ele>2445</ele>
        <time>2017-02-26T10:48:24Z</time>
      </trkpt>
      <trkpt lat="42.86786" lon="-0.07722">
        <ele>2445</ele>
        <time>2017-02-26T10:48:27Z</time>
      </trkpt>
      <trkpt lat="42.86785" lon="-0.07724">
        <ele>2445</ele>
        <time>2017-02-26T10:48:51Z</time>
      </trkpt>
      <trkpt lat="42.86784" lon="-0.07726">
        <ele>2445</ele>
        <time>2017-02-26T10:48:53Z</time>
      </trkpt>
      <trkpt lat="42.86785" lon="-0.07732">
        <ele>2446</ele>
        <time>2017-02-26T10:50:36Z</time>
      </trkpt>
      <trkpt lat="42.86786" lon="-0.07732">
        <ele>2446</ele>
        <time>2017-02-26T10:50:38Z</time>
      </trkpt>
      <trkpt lat="42.86789" lon="-0.07732">
        <ele>2445</ele>
        <time>2017-02-26T10:50:43Z</time>
      </trkpt>
      <trkpt lat="42.86794" lon="-0.07727">
        <ele>2443</ele>
        <time>2017-02-26T10:50:45Z</time>
      </trkpt>
      <trkpt lat="42.86796" lon="-0.07726">
        <ele>2442</ele>
        <time>2017-02-26T10:50:47Z</time>
      </trkpt>
      <trkpt lat="42.86798" lon="-0.07725">
        <ele>2440</ele>
        <time>2017-02-26T10:51:01Z</time>
      </trkpt>
      <trkpt lat="42.86802" lon="-0.07725">
        <ele>2440</ele>
        <time>2017-02-26T10:51:03Z</time>
      </trkpt>
      <trkpt lat="42.86805" lon="-0.07727">
        <ele>2439</ele>
        <time>2017-02-26T10:51:04Z</time>
      </trkpt>
      <trkpt lat="42.86808" lon="-0.07727">
        <ele>2438</ele>
        <time>2017-02-26T10:51:05Z</time>
      </trkpt>
      <trkpt lat="42.86812" lon="-0.07727">
        <ele>2437.6</ele>
        <time>2017-02-26T10:51:06Z</time>
      </trkpt>
      <trkpt lat="42.86816" lon="-0.07725">
        <ele>2437</ele>
        <time>2017-02-26T10:51:07Z</time>
      </trkpt>
      <trkpt lat="42.86819" lon="-0.07724">
        <ele>2436</ele>
        <time>2017-02-26T10:51:08Z</time>
      </trkpt>
      <trkpt lat="42.86823" lon="-0.07724">
        <ele>2432</ele>
        <time>2017-02-26T10:51:09Z</time>
      </trkpt>
      <trkpt lat="42.86826" lon="-0.07723">
        <ele>2431</ele>
        <time>2017-02-26T10:51:10Z</time>
      </trkpt>
      <trkpt lat="42.86829" lon="-0.07721">
        <ele>2430</ele>
        <time>2017-02-26T10:51:11Z</time>
      </trkpt>
      <trkpt lat="42.86831" lon="-0.0772">
        <ele>2429</ele>
        <time>2017-02-26T10:51:12Z</time>
      </trkpt>
      <trkpt lat="42.86834" lon="-0.07722">
        <ele>2428</ele>
        <time>2017-02-26T10:51:13Z</time>
      </trkpt>
      <trkpt lat="42.86836" lon="-0.07722">
        <ele>2427</ele>
        <time>2017-02-26T10:51:14Z</time>
      </trkpt>
      <trkpt lat="42.86838" lon="-0.07719">
        <ele>2427</ele>
        <time>2017-02-26T10:51:16Z</time>
      </trkpt>
      <trkpt lat="42.8684" lon="-0.07717">
        <ele>2426</ele>
        <time>2017-02-26T10:51:18Z</time>
      </trkpt>
      <trkpt lat="42.86855" lon="-0.07702">
        <ele>2422</ele>
        <time>2017-02-26T10:51:23Z</time>
      </trkpt>
      <trkpt lat="42.86871" lon="-0.07691">
        <ele>2419</ele>
        <time>2017-02-26T10:51:27Z</time>
      </trkpt>
      <trkpt lat="42.86875" lon="-0.07688">
        <ele>2418</ele>
        <time>2017-02-26T10:51:28Z</time>
      </trkpt>
      <trkpt lat="42.86892" lon="-0.07685">
        <ele>2414</ele>
        <time>2017-02-26T10:51:32Z</time>
      </trkpt>
      <trkpt lat="42.86896" lon="-0.07684">
        <ele>2413</ele>
        <time>2017-02-26T10:51:33Z</time>
      </trkpt>
      <trkpt lat="42.86899" lon="-0.07682">
        <ele>2411</ele>
        <time>2017-02-26T10:51:34Z</time>
      </trkpt>
      <trkpt lat="42.86902" lon="-0.07681">
        <ele>2411</ele>
        <time>2017-02-26T10:51:35Z</time>
      </trkpt>
      <trkpt lat="42.86907" lon="-0.07682">
        <ele>2409</ele>
        <time>2017-02-26T10:51:37Z</time>
      </trkpt>
      <trkpt lat="42.8691" lon="-0.07681">
        <ele>2408</ele>
        <time>2017-02-26T10:51:38Z</time>
      </trkpt>
      <trkpt lat="42.86913" lon="-0.07682">
        <ele>2407</ele>
        <time>2017-02-26T10:51:40Z</time>
      </trkpt>
      <trkpt lat="42.86916" lon="-0.07683">
        <ele>2406</ele>
        <time>2017-02-26T10:51:42Z</time>
      </trkpt>
      <trkpt lat="42.86919" lon="-0.07685">
        <ele>2404</ele>
        <time>2017-02-26T10:51:44Z</time>
      </trkpt>
      <trkpt lat="42.86924" lon="-0.0769">
        <ele>2399</ele>
        <time>2017-02-26T10:51:48Z</time>
      </trkpt>
      <trkpt lat="42.86926" lon="-0.07691">
        <ele>2398</ele>
        <time>2017-02-26T10:51:49Z</time>
      </trkpt>
      <trkpt lat="42.86929" lon="-0.07692">
        <ele>2397</ele>
        <time>2017-02-26T10:51:50Z</time>
      </trkpt>
      <trkpt lat="42.86931" lon="-0.07695">
        <ele>2394</ele>
        <time>2017-02-26T10:51:52Z</time>
      </trkpt>
      <trkpt lat="42.86933" lon="-0.07697">
        <ele>2393</ele>
        <time>2017-02-26T10:51:53Z</time>
      </trkpt>
      <trkpt lat="42.86933" lon="-0.077">
        <ele>2392</ele>
        <time>2017-02-26T10:51:54Z</time>
      </trkpt>
      <trkpt lat="42.86931" lon="-0.07702">
        <ele>2392</ele>
        <time>2017-02-26T10:51:55Z</time>
      </trkpt>
      <trkpt lat="42.8693" lon="-0.07705">
        <ele>2391</ele>
        <time>2017-02-26T10:51:56Z</time>
      </trkpt>
      <trkpt lat="42.86933" lon="-0.07708">
        <ele>2390</ele>
        <time>2017-02-26T10:51:57Z</time>
      </trkpt>
      <trkpt lat="42.86944" lon="-0.07714">
        <ele>2385</ele>
        <time>2017-02-26T10:52:00Z</time>
      </trkpt>
      <trkpt lat="42.86953" lon="-0.07728">
        <ele>2380</ele>
        <time>2017-02-26T10:52:03Z</time>
      </trkpt>
      <trkpt lat="42.86976" lon="-0.0774">
        <ele>2371</ele>
        <time>2017-02-26T10:52:10Z</time>
      </trkpt>
      <trkpt lat="42.8699" lon="-0.07745">
        <ele>2365</ele>
        <time>2017-02-26T10:52:13Z</time>
      </trkpt>
      <trkpt lat="42.87" lon="-0.07747">
        <ele>2359</ele>
        <time>2017-02-26T10:52:16Z</time>
      </trkpt>
      <trkpt lat="42.8701" lon="-0.07755">
        <ele>2355</ele>
        <time>2017-02-26T10:52:19Z</time>
      </trkpt>
      <trkpt lat="42.87019" lon="-0.07757">
        <ele>2350</ele>
        <time>2017-02-26T10:52:22Z</time>
      </trkpt>
      <trkpt lat="42.87042" lon="-0.07758">
        <ele>2345</ele>
        <time>2017-02-26T10:52:27Z</time>
      </trkpt>
      <trkpt lat="42.87051" lon="-0.07766">
        <ele>2339</ele>
        <time>2017-02-26T10:52:30Z</time>
      </trkpt>
      <trkpt lat="42.87061" lon="-0.07768">
        <ele>2336</ele>
        <time>2017-02-26T10:52:32Z</time>
      </trkpt>
      <trkpt lat="42.87065" lon="-0.07767">
        <ele>2335</ele>
        <time>2017-02-26T10:52:33Z</time>
      </trkpt>
      <trkpt lat="42.87069" lon="-0.07766">
        <ele>2333</ele>
        <time>2017-02-26T10:52:34Z</time>
      </trkpt>
      <trkpt lat="42.87074" lon="-0.07766">
        <ele>2332</ele>
        <time>2017-02-26T10:52:35Z</time>
      </trkpt>
      <trkpt lat="42.87077" lon="-0.07766">
        <ele>2331</ele>
        <time>2017-02-26T10:52:36Z</time>
      </trkpt>
      <trkpt lat="42.87079" lon="-0.07767">
        <ele>2330</ele>
        <time>2017-02-26T10:52:37Z</time>
      </trkpt>
      <trkpt lat="42.87086" lon="-0.0778">
        <ele>2324</ele>
        <time>2017-02-26T10:52:40Z</time>
      </trkpt>
      <trkpt lat="42.87092" lon="-0.07779">
        <ele>2323</ele>
        <time>2017-02-26T10:52:41Z</time>
      </trkpt>
      <trkpt lat="42.871" lon="-0.07777">
        <ele>2320</ele>
        <time>2017-02-26T10:52:43Z</time>
      </trkpt>
      <trkpt lat="42.87138" lon="-0.07761">
        <ele>2312</ele>
        <time>2017-02-26T10:52:48Z</time>
      </trkpt>
      <trkpt lat="42.87152" lon="-0.07754">
        <ele>2311</ele>
        <time>2017-02-26T10:52:50Z</time>
      </trkpt>
      <trkpt lat="42.87163" lon="-0.07746">
        <ele>2309</ele>
        <time>2017-02-26T10:52:52Z</time>
      </trkpt>
      <trkpt lat="42.87192" lon="-0.07729">
        <ele>2304</ele>
        <time>2017-02-26T10:52:57Z</time>
      </trkpt>
      <trkpt lat="42.87193" lon="-0.07728">
        <ele>2304</ele>
        <time>2017-02-26T10:52:58Z</time>
      </trkpt>
      <trkpt lat="42.87193" lon="-0.07727">
        <ele>2304</ele>
        <time>2017-02-26T10:52:59Z</time>
      </trkpt>
      <trkpt lat="42.87193" lon="-0.07726">
        <ele>2304</ele>
        <time>2017-02-26T10:53:00Z</time>
      </trkpt>
      <trkpt lat="42.87194" lon="-0.07725">
        <ele>2304</ele>
        <time>2017-02-26T10:53:01Z</time>
      </trkpt>
      <trkpt lat="42.87194" lon="-0.07725">
        <ele>2304</ele>
        <time>2017-02-26T10:53:02Z</time>
      </trkpt>
      <trkpt lat="42.87195" lon="-0.07724">
        <ele>2304</ele>
        <time>2017-02-26T10:53:03Z</time>
      </trkpt>
      <trkpt lat="42.87195" lon="-0.07723">
        <ele>2304</ele>
        <time>2017-02-26T10:53:04Z</time>
      </trkpt>
      <trkpt lat="42.87196" lon="-0.07722">
        <ele>2304</ele>
        <time>2017-02-26T10:53:05Z</time>
      </trkpt>
      <trkpt lat="42.87196" lon="-0.07721">
        <ele>2304</ele>
        <time>2017-02-26T10:53:06Z</time>
      </trkpt>
      <trkpt lat="42.87197" lon="-0.0772">
        <ele>2304</ele>
        <time>2017-02-26T10:53:07Z</time>
      </trkpt>
      <trkpt lat="42.87197" lon="-0.07719">
        <ele>2304</ele>
        <time>2017-02-26T10:53:08Z</time>
      </trkpt>
      <trkpt lat="42.87197" lon="-0.07718">
        <ele>2304</ele>
        <time>2017-02-26T10:53:09Z</time>
      </trkpt>
      <trkpt lat="42.87208" lon="-0.07706">
        <ele>2303</ele>
        <time>2017-02-26T10:53:13Z</time>
      </trkpt>
      <trkpt lat="42.87343" lon="-0.07599">
        <ele>2279</ele>
        <time>2017-02-26T10:53:43Z</time>
      </trkpt>
      <trkpt lat="42.87359" lon="-0.07577">
        <ele>2274</ele>
        <time>2017-02-26T10:53:49Z</time>
      </trkpt>
      <trkpt lat="42.87371" lon="-0.07566">
        <ele>2268</ele>
        <time>2017-02-26T10:53:52Z</time>
      </trkpt>
      <trkpt lat="42.8738" lon="-0.07556">
        <ele>2265</ele>
        <time>2017-02-26T10:53:55Z</time>
      </trkpt>
      <trkpt lat="42.87384" lon="-0.07545">
        <ele>2262</ele>
        <time>2017-02-26T10:53:57Z</time>
      </trkpt>
      <trkpt lat="42.8738" lon="-0.07522">
        <ele>2254</ele>
        <time>2017-02-26T10:54:04Z</time>
      </trkpt>
      <trkpt lat="42.87378" lon="-0.07508">
        <ele>2252</ele>
        <time>2017-02-26T10:54:08Z</time>
      </trkpt>
      <trkpt lat="42.87378" lon="-0.07505">
        <ele>2251</ele>
        <time>2017-02-26T10:54:09Z</time>
      </trkpt>
      <trkpt lat="42.87374" lon="-0.07482">
        <ele>2244</ele>
        <time>2017-02-26T10:54:16Z</time>
      </trkpt>
      <trkpt lat="42.87369" lon="-0.07445">
        <ele>2240</ele>
        <time>2017-02-26T10:54:27Z</time>
      </trkpt>
      <trkpt lat="42.87365" lon="-0.07422">
        <ele>2241</ele>
        <time>2017-02-26T10:54:34Z</time>
      </trkpt>
      <trkpt lat="42.87365" lon="-0.07419">
        <ele>2241</ele>
        <time>2017-02-26T10:54:35Z</time>
      </trkpt>
      <trkpt lat="42.87362" lon="-0.07395">
        <ele>2241</ele>
        <time>2017-02-26T10:54:42Z</time>
      </trkpt>
      <trkpt lat="42.8736" lon="-0.07382">
        <ele>2241</ele>
        <time>2017-02-26T10:54:46Z</time>
      </trkpt>
      <trkpt lat="42.87352" lon="-0.07332">
        <ele>2242</ele>
        <time>2017-02-26T10:55:01Z</time>
      </trkpt>
      <trkpt lat="42.87349" lon="-0.07312">
        <ele>2243</ele>
        <time>2017-02-26T10:55:07Z</time>
      </trkpt>
      <trkpt lat="42.87342" lon="-0.07262">
        <ele>2243</ele>
        <time>2017-02-26T10:55:22Z</time>
      </trkpt>
      <trkpt lat="42.8734" lon="-0.07249">
        <ele>2243</ele>
        <time>2017-02-26T10:55:26Z</time>
      </trkpt>
      <trkpt lat="42.87336" lon="-0.07222">
        <ele>2244</ele>
        <time>2017-02-26T10:55:34Z</time>
      </trkpt>
      <trkpt lat="42.87331" lon="-0.07186">
        <ele>2243</ele>
        <time>2017-02-26T10:55:45Z</time>
      </trkpt>
      <trkpt lat="42.87327" lon="-0.07162">
        <ele>2238</ele>
        <time>2017-02-26T10:55:52Z</time>
      </trkpt>
      <trkpt lat="42.87327" lon="-0.07159">
        <ele>2238</ele>
        <time>2017-02-26T10:55:53Z</time>
      </trkpt>
      <trkpt lat="42.87324" lon="-0.07139">
        <ele>2237</ele>
        <time>2017-02-26T10:55:59Z</time>
      </trkpt>
      <trkpt lat="42.87323" lon="-0.07136">
        <ele>2237</ele>
        <time>2017-02-26T10:56:00Z</time>
      </trkpt>
      <trkpt lat="42.87322" lon="-0.07126">
        <ele>2236</ele>
        <time>2017-02-26T10:56:03Z</time>
      </trkpt>
      <trkpt lat="42.87321" lon="-0.07123">
        <ele>2236</ele>
        <time>2017-02-26T10:56:04Z</time>
      </trkpt>
      <trkpt lat="42.87318" lon="-0.07099">
        <ele>2231</ele>
        <time>2017-02-26T10:56:11Z</time>
      </trkpt>
      <trkpt lat="42.87304" lon="-0.07093">
        <ele>2229</ele>
        <time>2017-02-26T10:56:12Z</time>
      </trkpt>
      <trkpt lat="42.87291" lon="-0.0709">
        <ele>2227</ele>
        <time>2017-02-26T10:56:14Z</time>
      </trkpt>
      <trkpt lat="42.87283" lon="-0.07082">
        <ele>2226</ele>
        <time>2017-02-26T10:56:16Z</time>
      </trkpt>
      <trkpt lat="42.87298" lon="-0.07078">
        <ele>2218</ele>
        <time>2017-02-26T10:56:21Z</time>
      </trkpt>
      <trkpt lat="42.8731" lon="-0.07069">
        <ele>2213</ele>
        <time>2017-02-26T10:56:23Z</time>
      </trkpt>
      <trkpt lat="42.87328" lon="-0.07069">
        <ele>2212</ele>
        <time>2017-02-26T10:56:24Z</time>
      </trkpt>
      <trkpt lat="42.8736" lon="-0.07062">
        <ele>2205</ele>
        <time>2017-02-26T10:56:28Z</time>
      </trkpt>
      <trkpt lat="42.87369" lon="-0.07062">
        <ele>2202</ele>
        <time>2017-02-26T10:56:30Z</time>
      </trkpt>
      <trkpt lat="42.87381" lon="-0.07068">
        <ele>2200</ele>
        <time>2017-02-26T10:56:31Z</time>
      </trkpt>
      <trkpt lat="42.87393" lon="-0.07072">
        <ele>2197</ele>
        <time>2017-02-26T10:56:35Z</time>
      </trkpt>
      <trkpt lat="42.87402" lon="-0.07081">
        <ele>2193</ele>
        <time>2017-02-26T10:56:40Z</time>
      </trkpt>
      <trkpt lat="42.87411" lon="-0.07081">
        <ele>2190</ele>
        <time>2017-02-26T10:56:43Z</time>
      </trkpt>
      <trkpt lat="42.87418" lon="-0.07093">
        <ele>2186</ele>
        <time>2017-02-26T10:56:46Z</time>
      </trkpt>
      <trkpt lat="42.87429" lon="-0.07094">
        <ele>2180</ele>
        <time>2017-02-26T10:56:50Z</time>
      </trkpt>
      <trkpt lat="42.8744" lon="-0.071">
        <ele>2176</ele>
        <time>2017-02-26T10:56:51Z</time>
      </trkpt>
      <trkpt lat="42.87452" lon="-0.07098">
        <ele>2171</ele>
        <time>2017-02-26T10:56:54Z</time>
      </trkpt>
      <trkpt lat="42.87458" lon="-0.07108">
        <ele>2166</ele>
        <time>2017-02-26T10:56:58Z</time>
      </trkpt>
      <trkpt lat="42.87472" lon="-0.07101">
        <ele>2165</ele>
        <time>2017-02-26T10:56:59Z</time>
      </trkpt>
      <trkpt lat="42.87482" lon="-0.07103">
        <ele>2161</ele>
        <time>2017-02-26T10:57:02Z</time>
      </trkpt>
      <trkpt lat="42.87584" lon="-0.07068">
        <ele>2128</ele>
        <time>2017-02-26T10:57:26Z</time>
      </trkpt>
      <trkpt lat="42.8759" lon="-0.07055">
        <ele>2125</ele>
        <time>2017-02-26T10:57:28Z</time>
      </trkpt>
      <trkpt lat="42.87593" lon="-0.07025">
        <ele>2122</ele>
        <time>2017-02-26T10:57:31Z</time>
      </trkpt>
      <trkpt lat="42.87598" lon="-0.07013">
        <ele>2114</ele>
        <time>2017-02-26T10:57:38Z</time>
      </trkpt>
      <trkpt lat="42.87609" lon="-0.07017">
        <ele>2110</ele>
        <time>2017-02-26T10:57:40Z</time>
      </trkpt>
      <trkpt lat="42.87623" lon="-0.07017">
        <ele>2105</ele>
        <time>2017-02-26T10:57:42Z</time>
      </trkpt>
      <trkpt lat="42.87642" lon="-0.06998">
        <ele>2102.4</ele>
        <time>2017-02-26T10:57:45Z</time>
      </trkpt>
      <trkpt lat="42.87652" lon="-0.06991">
        <ele>2099</ele>
        <time>2017-02-26T10:57:47Z</time>
      </trkpt>
      <trkpt lat="42.87665" lon="-0.06982">
        <ele>2090</ele>
        <time>2017-02-26T10:57:51Z</time>
      </trkpt>
      <trkpt lat="42.87682" lon="-0.06974">
        <ele>2084</ele>
        <time>2017-02-26T10:57:54Z</time>
      </trkpt>
      <trkpt lat="42.87698" lon="-0.06966">
        <ele>2080</ele>
        <time>2017-02-26T10:57:56Z</time>
      </trkpt>
      <trkpt lat="42.87706" lon="-0.0696">
        <ele>2072</ele>
        <time>2017-02-26T10:57:59Z</time>
      </trkpt>
      <trkpt lat="42.8772" lon="-0.06961">
        <ele>2071</ele>
        <time>2017-02-26T10:58:00Z</time>
      </trkpt>
      <trkpt lat="42.87725" lon="-0.0695">
        <ele>2065</ele>
        <time>2017-02-26T10:58:03Z</time>
      </trkpt>
      <trkpt lat="42.87738" lon="-0.06948">
        <ele>2063</ele>
        <time>2017-02-26T10:58:04Z</time>
      </trkpt>
      <trkpt lat="42.8777" lon="-0.0692">
        <ele>2052</ele>
        <time>2017-02-26T10:58:12Z</time>
      </trkpt>
      <trkpt lat="42.8779" lon="-0.06925">
        <ele>2042</ele>
        <time>2017-02-26T10:58:18Z</time>
      </trkpt>
      <trkpt lat="42.87818" lon="-0.06932">
        <ele>2038</ele>
        <time>2017-02-26T10:58:26Z</time>
      </trkpt>
      <trkpt lat="42.87838" lon="-0.06937">
        <ele>2037</ele>
        <time>2017-02-26T10:58:32Z</time>
      </trkpt>
      <trkpt lat="42.87861" lon="-0.0688">
        <ele>2020</ele>
        <time>2017-02-26T10:58:46Z</time>
      </trkpt>
      <trkpt lat="42.8788" lon="-0.06857">
        <ele>2011</ele>
        <time>2017-02-26T10:58:51Z</time>
      </trkpt>
      <trkpt lat="42.87894" lon="-0.06831">
        <ele>2004</ele>
        <time>2017-02-26T10:58:55Z</time>
      </trkpt>
      <trkpt lat="42.87925" lon="-0.06785">
        <ele>1991</ele>
        <time>2017-02-26T10:59:03Z</time>
      </trkpt>
      <trkpt lat="42.87934" lon="-0.06777">
        <ele>1988</ele>
        <time>2017-02-26T10:59:06Z</time>
      </trkpt>
      <trkpt lat="42.87943" lon="-0.06772">
        <ele>1987</ele>
        <time>2017-02-26T10:59:09Z</time>
      </trkpt>
      <trkpt lat="42.87953" lon="-0.06767">
        <ele>1983</ele>
        <time>2017-02-26T10:59:12Z</time>
      </trkpt>
      <trkpt lat="42.87964" lon="-0.0678">
        <ele>1977</ele>
        <time>2017-02-26T10:59:15Z</time>
      </trkpt>
      <trkpt lat="42.87973" lon="-0.06775">
        <ele>1972</ele>
        <time>2017-02-26T10:59:17Z</time>
      </trkpt>
      <trkpt lat="42.87989" lon="-0.0677">
        <ele>1962</ele>
        <time>2017-02-26T10:59:21Z</time>
      </trkpt>
      <trkpt lat="42.88" lon="-0.06765">
        <ele>1956</ele>
        <time>2017-02-26T10:59:23Z</time>
      </trkpt>
      <trkpt lat="42.88016" lon="-0.06761">
        <ele>1952</ele>
        <time>2017-02-26T10:59:25Z</time>
      </trkpt>
      <trkpt lat="42.88022" lon="-0.06759">
        <ele>1949</ele>
        <time>2017-02-26T10:59:26Z</time>
      </trkpt>
      <trkpt lat="42.88028" lon="-0.06756">
        <ele>1947</ele>
        <time>2017-02-26T10:59:27Z</time>
      </trkpt>
      <trkpt lat="42.88043" lon="-0.06753">
        <ele>1942</ele>
        <time>2017-02-26T10:59:29Z</time>
      </trkpt>
      <trkpt lat="42.88057" lon="-0.06752">
        <ele>1938</ele>
        <time>2017-02-26T10:59:31Z</time>
      </trkpt>
      <trkpt lat="42.88068" lon="-0.06746">
        <ele>1934</ele>
        <time>2017-02-26T10:59:33Z</time>
      </trkpt>
      <trkpt lat="42.88081" lon="-0.06741">
        <ele>1933</ele>
        <time>2017-02-26T10:59:34Z</time>
      </trkpt>
      <trkpt lat="42.88089" lon="-0.06732">
        <ele>1930</ele>
        <time>2017-02-26T10:59:36Z</time>
      </trkpt>
      <trkpt lat="42.88097" lon="-0.06724">
        <ele>1926.4</ele>
        <time>2017-02-26T10:59:39Z</time>
      </trkpt>
      <trkpt lat="42.88109" lon="-0.06721">
        <ele>1925</ele>
        <time>2017-02-26T10:59:40Z</time>
      </trkpt>
      <trkpt lat="42.88118" lon="-0.06722">
        <ele>1922</ele>
        <time>2017-02-26T10:59:41Z</time>
      </trkpt>
      <trkpt lat="42.88134" lon="-0.06719">
        <ele>1917</ele>
        <time>2017-02-26T10:59:43Z</time>
      </trkpt>
      <trkpt lat="42.88226" lon="-0.0667">
        <ele>1886</ele>
        <time>2017-02-26T11:00:00Z</time>
      </trkpt>
      <trkpt lat="42.88235" lon="-0.06662">
        <ele>1880</ele>
        <time>2017-02-26T11:00:03Z</time>
      </trkpt>
      <trkpt lat="42.88247" lon="-0.06655">
        <ele>1878</ele>
        <time>2017-02-26T11:00:05Z</time>
      </trkpt>
      <trkpt lat="42.88254" lon="-0.06644">
        <ele>1877</ele>
        <time>2017-02-26T11:00:08Z</time>
      </trkpt>
      <trkpt lat="42.88258" lon="-0.06642">
        <ele>1878</ele>
        <time>2017-02-26T11:00:14Z</time>
      </trkpt>
      <trkpt lat="42.88259" lon="-0.06642">
        <ele>1877</ele>
        <time>2017-02-26T11:00:15Z</time>
      </trkpt>
      <trkpt lat="42.88262" lon="-0.0664">
        <ele>1877</ele>
        <time>2017-02-26T11:00:21Z</time>
      </trkpt>
      <trkpt lat="42.88264" lon="-0.06645">
        <ele>1877</ele>
        <time>2017-02-26T11:00:29Z</time>
      </trkpt>
      <trkpt lat="42.88264" lon="-0.06646">
        <ele>1877</ele>
        <time>2017-02-26T11:00:30Z</time>
      </trkpt>
      <trkpt lat="42.88266" lon="-0.06652">
        <ele>1877</ele>
        <time>2017-02-26T11:00:39Z</time>
      </trkpt>
      <trkpt lat="42.88271" lon="-0.06664">
        <ele>1878</ele>
        <time>2017-02-26T11:00:50Z</time>
      </trkpt>
      <trkpt lat="42.88275" lon="-0.06667">
        <ele>1878</ele>
        <time>2017-02-26T11:00:58Z</time>
      </trkpt>
      <trkpt lat="42.8828" lon="-0.0667">
        <ele>1877</ele>
        <time>2017-02-26T11:01:09Z</time>
      </trkpt>
      <trkpt lat="42.88281" lon="-0.06671">
        <ele>1877</ele>
        <time>2017-02-26T11:01:12Z</time>
      </trkpt>
      <trkpt lat="42.88282" lon="-0.06672">
        <ele>1877</ele>
        <time>2017-02-26T11:01:13Z</time>
      </trkpt>
      <trkpt lat="42.88286" lon="-0.06673">
        <ele>1877</ele>
        <time>2017-02-26T11:01:19Z</time>
      </trkpt>
      <trkpt lat="42.88286" lon="-0.06674">
        <ele>1877</ele>
        <time>2017-02-26T11:01:20Z</time>
      </trkpt>
      <trkpt lat="42.88288" lon="-0.06674">
        <ele>1877</ele>
        <time>2017-02-26T11:01:23Z</time>
      </trkpt>
      <trkpt lat="42.88288" lon="-0.06675">
        <ele>1877</ele>
        <time>2017-02-26T11:01:24Z</time>
      </trkpt>
      <trkpt lat="42.88289" lon="-0.06675">
        <ele>1877</ele>
        <time>2017-02-26T11:01:25Z</time>
      </trkpt>
      <trkpt lat="42.88289" lon="-0.06676">
        <ele>1877</ele>
        <time>2017-02-26T11:01:26Z</time>
      </trkpt>
      <trkpt lat="42.88289" lon="-0.06676">
        <ele>1877</ele>
        <time>2017-02-26T11:01:27Z</time>
      </trkpt>
      <trkpt lat="42.8829" lon="-0.06677">
        <ele>1877</ele>
        <time>2017-02-26T11:01:28Z</time>
      </trkpt>
      <trkpt lat="42.8829" lon="-0.06677">
        <ele>1877</ele>
        <time>2017-02-26T11:01:29Z</time>
      </trkpt>
      <trkpt lat="42.88291" lon="-0.06679">
        <ele>1877</ele>
        <time>2017-02-26T11:01:32Z</time>
      </trkpt>
      <trkpt lat="42.88291" lon="-0.06679">
        <ele>1878</ele>
        <time>2017-02-26T11:01:33Z</time>
      </trkpt>
      <trkpt lat="42.88291" lon="-0.0668">
        <ele>1878</ele>
        <time>2017-02-26T11:01:34Z</time>
      </trkpt>
      <trkpt lat="42.88292" lon="-0.0668">
        <ele>1878</ele>
        <time>2017-02-26T11:01:35Z</time>
      </trkpt>
      <trkpt lat="42.88292" lon="-0.06682">
        <ele>1878</ele>
        <time>2017-02-26T11:01:38Z</time>
      </trkpt>
      <trkpt lat="42.88293" lon="-0.06682">
        <ele>1878</ele>
        <time>2017-02-26T11:01:39Z</time>
      </trkpt>
      <trkpt lat="42.88293" lon="-0.06683">
        <ele>1878</ele>
        <time>2017-02-26T11:01:40Z</time>
      </trkpt>
      <trkpt lat="42.88293" lon="-0.06683">
        <ele>1878</ele>
        <time>2017-02-26T11:01:41Z</time>
      </trkpt>
      <trkpt lat="42.88294" lon="-0.06684">
        <ele>1878</ele>
        <time>2017-02-26T11:01:42Z</time>
      </trkpt>
      <trkpt lat="42.88294" lon="-0.06684">
        <ele>1878</ele>
        <time>2017-02-26T11:01:43Z</time>
      </trkpt>
      <trkpt lat="42.88295" lon="-0.06686">
        <ele>1878</ele>
        <time>2017-02-26T11:01:45Z</time>
      </trkpt>
      <trkpt lat="42.883" lon="-0.06695">
        <ele>1878</ele>
        <time>2017-02-26T11:01:56Z</time>
      </trkpt>
      <trkpt lat="42.88309" lon="-0.06702">
        <ele>1877</ele>
        <time>2017-02-26T11:02:04Z</time>
      </trkpt>
      <trkpt lat="42.88314" lon="-0.06705">
        <ele>1878</ele>
        <time>2017-02-26T11:02:08Z</time>
      </trkpt>
      <trkpt lat="42.88318" lon="-0.06707">
        <ele>1878</ele>
        <time>2017-02-26T11:02:11Z</time>
      </trkpt>
      <trkpt lat="42.88318" lon="-0.06708">
        <ele>1878</ele>
        <time>2017-02-26T11:02:12Z</time>
      </trkpt>
      <trkpt lat="42.88319" lon="-0.06709">
        <ele>1878</ele>
        <time>2017-02-26T11:02:13Z</time>
      </trkpt>
      <trkpt lat="42.88319" lon="-0.0671">
        <ele>1878</ele>
        <time>2017-02-26T11:02:14Z</time>
      </trkpt>
      <trkpt lat="42.88319" lon="-0.06713">
        <ele>1878</ele>
        <time>2017-02-26T11:02:17Z</time>
      </trkpt>
      <trkpt lat="42.8832" lon="-0.06714">
        <ele>1877</ele>
        <time>2017-02-26T11:02:18Z</time>
      </trkpt>
      <trkpt lat="42.8832" lon="-0.06715">
        <ele>1877</ele>
        <time>2017-02-26T11:02:19Z</time>
      </trkpt>
      <trkpt lat="42.8832" lon="-0.06716">
        <ele>1877</ele>
        <time>2017-02-26T11:02:20Z</time>
      </trkpt>
      <trkpt lat="42.8832" lon="-0.06717">
        <ele>1877</ele>
        <time>2017-02-26T11:02:21Z</time>
      </trkpt>
      <trkpt lat="42.88321" lon="-0.06718">
        <ele>1877</ele>
        <time>2017-02-26T11:02:22Z</time>
      </trkpt>
      <trkpt lat="42.88321" lon="-0.06719">
        <ele>1877</ele>
        <time>2017-02-26T11:02:23Z</time>
      </trkpt>
      <trkpt lat="42.88331" lon="-0.06726">
        <ele>1877</ele>
        <time>2017-02-26T11:02:30Z</time>
      </trkpt>
      <trkpt lat="42.88331" lon="-0.06727">
        <ele>1877</ele>
        <time>2017-02-26T11:02:31Z</time>
      </trkpt>
      <trkpt lat="42.88332" lon="-0.06727">
        <ele>1877</ele>
        <time>2017-02-26T11:02:32Z</time>
      </trkpt>
      <trkpt lat="42.88333" lon="-0.06728">
        <ele>1877</ele>
        <time>2017-02-26T11:02:33Z</time>
      </trkpt>
      <trkpt lat="42.88334" lon="-0.06729">
        <ele>1878</ele>
        <time>2017-02-26T11:02:35Z</time>
      </trkpt>
      <trkpt lat="42.88334" lon="-0.06729">
        <ele>1878</ele>
        <time>2017-02-26T11:02:36Z</time>
      </trkpt>
      <trkpt lat="42.88335" lon="-0.06729">
        <ele>1878</ele>
        <time>2017-02-26T11:02:37Z</time>
      </trkpt>
      <trkpt lat="42.88336" lon="-0.0673">
        <ele>1878</ele>
        <time>2017-02-26T11:02:38Z</time>
      </trkpt>
      <trkpt lat="42.88336" lon="-0.0673">
        <ele>1878</ele>
        <time>2017-02-26T11:02:39Z</time>
      </trkpt>
      <trkpt lat="42.88337" lon="-0.06731">
        <ele>1878</ele>
        <time>2017-02-26T11:02:40Z</time>
      </trkpt>
      <trkpt lat="42.88337" lon="-0.06731">
        <ele>1878</ele>
        <time>2017-02-26T11:02:41Z</time>
      </trkpt>
      <trkpt lat="42.88346" lon="-0.06724">
        <ele>1879</ele>
        <time>2017-02-26T11:02:47Z</time>
      </trkpt>
      <trkpt lat="42.88351" lon="-0.06722">
        <ele>1879</ele>
        <time>2017-02-26T11:02:54Z</time>
      </trkpt>
      <trkpt lat="42.88353" lon="-0.06722">
        <ele>1879</ele>
        <time>2017-02-26T11:02:57Z</time>
      </trkpt>
      <trkpt lat="42.88354" lon="-0.06721">
        <ele>1879</ele>
        <time>2017-02-26T11:02:58Z</time>
      </trkpt>
      <trkpt lat="42.88356" lon="-0.06721">
        <ele>1880</ele>
        <time>2017-02-26T11:03:01Z</time>
      </trkpt>
      <trkpt lat="42.88364" lon="-0.06715">
        <ele>1881</ele>
        <time>2017-02-26T11:03:08Z</time>
      </trkpt>
      <trkpt lat="42.88369" lon="-0.06703">
        <ele>1883</ele>
        <time>2017-02-26T11:03:15Z</time>
      </trkpt>
      <trkpt lat="42.88372" lon="-0.06689">
        <ele>1884</ele>
        <time>2017-02-26T11:03:21Z</time>
      </trkpt>
      <trkpt lat="42.88374" lon="-0.06664">
        <ele>1886</ele>
        <time>2017-02-26T11:03:33Z</time>
      </trkpt>
      <trkpt lat="42.88376" lon="-0.06661">
        <ele>1887</ele>
        <time>2017-02-26T11:03:37Z</time>
      </trkpt>
      <trkpt lat="42.88377" lon="-0.0666">
        <ele>1887</ele>
        <time>2017-02-26T11:03:38Z</time>
      </trkpt>
      <trkpt lat="42.88378" lon="-0.06657">
        <ele>1887</ele>
        <time>2017-02-26T11:03:41Z</time>
      </trkpt>
      <trkpt lat="42.88379" lon="-0.06656">
        <ele>1887</ele>
        <time>2017-02-26T11:03:42Z</time>
      </trkpt>
      <trkpt lat="42.88379" lon="-0.06656">
        <ele>1887</ele>
        <time>2017-02-26T11:03:43Z</time>
      </trkpt>
      <trkpt lat="42.88381" lon="-0.06653">
        <ele>1887</ele>
        <time>2017-02-26T11:03:46Z</time>
      </trkpt>
      <trkpt lat="42.88381" lon="-0.06641">
        <ele>1887</ele>
        <time>2017-02-26T11:03:53Z</time>
      </trkpt>
      <trkpt lat="42.88382" lon="-0.0664">
        <ele>1887</ele>
        <time>2017-02-26T11:03:54Z</time>
      </trkpt>
      <trkpt lat="42.88383" lon="-0.0664">
        <ele>1887</ele>
        <time>2017-02-26T11:03:55Z</time>
      </trkpt>
      <trkpt lat="42.88383" lon="-0.06639">
        <ele>1887</ele>
        <time>2017-02-26T11:03:56Z</time>
      </trkpt>
      <trkpt lat="42.88384" lon="-0.06639">
        <ele>1887</ele>
        <time>2017-02-26T11:03:57Z</time>
      </trkpt>
      <trkpt lat="42.88384" lon="-0.06638">
        <ele>1888</ele>
        <time>2017-02-26T11:03:58Z</time>
      </trkpt>
      <trkpt lat="42.88385" lon="-0.06638">
        <ele>1888</ele>
        <time>2017-02-26T11:03:59Z</time>
      </trkpt>
      <trkpt lat="42.88385" lon="-0.06637">
        <ele>1888</ele>
        <time>2017-02-26T11:04:00Z</time>
      </trkpt>
      <trkpt lat="42.88386" lon="-0.06637">
        <ele>1888</ele>
        <time>2017-02-26T11:04:01Z</time>
      </trkpt>
      <trkpt lat="42.88386" lon="-0.06636">
        <ele>1888</ele>
        <time>2017-02-26T11:04:02Z</time>
      </trkpt>
      <trkpt lat="42.88388" lon="-0.06634">
        <ele>1888</ele>
        <time>2017-02-26T11:04:05Z</time>
      </trkpt>
      <trkpt lat="42.88389" lon="-0.06634">
        <ele>1888</ele>
        <time>2017-02-26T11:04:06Z</time>
      </trkpt>
      <trkpt lat="42.88397" lon="-0.06626">
        <ele>1889</ele>
        <time>2017-02-26T11:04:14Z</time>
      </trkpt>
      <trkpt lat="42.88397" lon="-0.06625">
        <ele>1889</ele>
        <time>2017-02-26T11:04:15Z</time>
      </trkpt>
      <trkpt lat="42.88397" lon="-0.06624">
        <ele>1889</ele>
        <time>2017-02-26T11:04:16Z</time>
      </trkpt>
      <trkpt lat="42.88396" lon="-0.06623">
        <ele>1890</ele>
        <time>2017-02-26T11:04:18Z</time>
      </trkpt>
      <trkpt lat="42.88396" lon="-0.06622">
        <ele>1890</ele>
        <time>2017-02-26T11:04:19Z</time>
      </trkpt>
      <trkpt lat="42.88396" lon="-0.0662">
        <ele>1890</ele>
        <time>2017-02-26T11:04:21Z</time>
      </trkpt>
      <trkpt lat="42.88396" lon="-0.0662">
        <ele>1890</ele>
        <time>2017-02-26T11:04:22Z</time>
      </trkpt>
      <trkpt lat="42.88396" lon="-0.06619">
        <ele>1891</ele>
        <time>2017-02-26T11:04:23Z</time>
      </trkpt>
      <trkpt lat="42.88395" lon="-0.06618">
        <ele>1891</ele>
        <time>2017-02-26T11:04:24Z</time>
      </trkpt>
      <trkpt lat="42.88395" lon="-0.06617">
        <ele>1892</ele>
        <time>2017-02-26T11:04:26Z</time>
      </trkpt>
      <trkpt lat="42.88395" lon="-0.06616">
        <ele>1892</ele>
        <time>2017-02-26T11:04:27Z</time>
      </trkpt>
      <trkpt lat="42.88395" lon="-0.06615">
        <ele>1892</ele>
        <time>2017-02-26T11:04:29Z</time>
      </trkpt>
      <trkpt lat="42.88395" lon="-0.06614">
        <ele>1892</ele>
        <time>2017-02-26T11:04:30Z</time>
      </trkpt>
      <trkpt lat="42.88395" lon="-0.06613">
        <ele>1892</ele>
        <time>2017-02-26T11:04:31Z</time>
      </trkpt>
      <trkpt lat="42.8839" lon="-0.06603">
        <ele>1894</ele>
        <time>2017-02-26T11:04:41Z</time>
      </trkpt>
      <trkpt lat="42.88393" lon="-0.0659">
        <ele>1895</ele>
        <time>2017-02-26T11:04:47Z</time>
      </trkpt>
      <trkpt lat="42.88392" lon="-0.06578">
        <ele>1896</ele>
        <time>2017-02-26T11:04:55Z</time>
      </trkpt>
      <trkpt lat="42.88388" lon="-0.06566">
        <ele>1897</ele>
        <time>2017-02-26T11:05:03Z</time>
      </trkpt>
      <trkpt lat="42.88386" lon="-0.06539">
        <ele>1897</ele>
        <time>2017-02-26T11:05:14Z</time>
      </trkpt>
      <trkpt lat="42.88377" lon="-0.06514">
        <ele>1898</ele>
        <time>2017-02-26T11:05:25Z</time>
      </trkpt>
      <trkpt lat="42.88303" lon="-0.0639">
        <ele>1906</ele>
        <time>2017-02-26T11:06:06Z</time>
      </trkpt>
      <trkpt lat="42.88301" lon="-0.06387">
        <ele>1906</ele>
        <time>2017-02-26T11:06:07Z</time>
      </trkpt>
      <trkpt lat="42.88133" lon="-0.06262">
        <ele>1911</ele>
        <time>2017-02-26T11:06:37Z</time>
      </trkpt>
      <trkpt lat="42.88037" lon="-0.06192">
        <ele>1913</ele>
        <time>2017-02-26T11:06:54Z</time>
      </trkpt>
      <trkpt lat="42.87942" lon="-0.06121">
        <ele>1915</ele>
        <time>2017-02-26T11:07:11Z</time>
      </trkpt>
      <trkpt lat="42.87847" lon="-0.0605">
        <ele>1914</ele>
        <time>2017-02-26T11:07:28Z</time>
      </trkpt>
      <trkpt lat="42.87808" lon="-0.05961">
        <ele>1913</ele>
        <time>2017-02-26T11:07:38Z</time>
      </trkpt>
      <trkpt lat="42.87821" lon="-0.05983">
        <ele>1913</ele>
        <time>2017-02-26T11:07:41Z</time>
      </trkpt>
      <trkpt lat="42.87839" lon="-0.05987">
        <ele>1914</ele>
        <time>2017-02-26T11:07:44Z</time>
      </trkpt>
      <trkpt lat="42.87852" lon="-0.06012">
        <ele>1915</ele>
        <time>2017-02-26T11:07:45Z</time>
      </trkpt>
      <trkpt lat="42.87861" lon="-0.0601">
        <ele>1914</ele>
        <time>2017-02-26T11:07:48Z</time>
      </trkpt>
      <trkpt lat="42.87864" lon="-0.06014">
        <ele>1914</ele>
        <time>2017-02-26T11:07:55Z</time>
      </trkpt>
      <trkpt lat="42.87862" lon="-0.06013">
        <ele>1916</ele>
        <time>2017-02-26T11:08:16Z</time>
      </trkpt>
      <trkpt lat="42.87867" lon="-0.0601">
        <ele>1916</ele>
        <time>2017-02-26T11:10:14Z</time>
      </trkpt>
      <trkpt lat="42.87874" lon="-0.06005">
        <ele>1916</ele>
        <time>2017-02-26T11:10:18Z</time>
      </trkpt>
      <trkpt lat="42.87877" lon="-0.06003">
        <ele>1916</ele>
        <time>2017-02-26T11:10:19Z</time>
      </trkpt>
      <trkpt lat="42.87885" lon="-0.06001">
        <ele>1913</ele>
        <time>2017-02-26T11:10:21Z</time>
      </trkpt>
      <trkpt lat="42.87889" lon="-0.05999">
        <ele>1912</ele>
        <time>2017-02-26T11:10:22Z</time>
      </trkpt>
      <trkpt lat="42.87894" lon="-0.05997">
        <ele>1910</ele>
        <time>2017-02-26T11:10:23Z</time>
      </trkpt>
      <trkpt lat="42.87898" lon="-0.05997">
        <ele>1909</ele>
        <time>2017-02-26T11:10:24Z</time>
      </trkpt>
      <trkpt lat="42.87903" lon="-0.05997">
        <ele>1908</ele>
        <time>2017-02-26T11:10:25Z</time>
      </trkpt>
      <trkpt lat="42.87906" lon="-0.05999">
        <ele>1907</ele>
        <time>2017-02-26T11:10:26Z</time>
      </trkpt>
      <trkpt lat="42.8791" lon="-0.06002">
        <ele>1905</ele>
        <time>2017-02-26T11:10:27Z</time>
      </trkpt>
      <trkpt lat="42.87918" lon="-0.06006">
        <ele>1904</ele>
        <time>2017-02-26T11:10:29Z</time>
      </trkpt>
      <trkpt lat="42.87922" lon="-0.06005">
        <ele>1902</ele>
        <time>2017-02-26T11:10:30Z</time>
      </trkpt>
      <trkpt lat="42.87925" lon="-0.06005">
        <ele>1901</ele>
        <time>2017-02-26T11:10:31Z</time>
      </trkpt>
      <trkpt lat="42.87928" lon="-0.06005">
        <ele>1900</ele>
        <time>2017-02-26T11:10:32Z</time>
      </trkpt>
      <trkpt lat="42.87929" lon="-0.06009">
        <ele>1899</ele>
        <time>2017-02-26T11:10:33Z</time>
      </trkpt>
      <trkpt lat="42.8793" lon="-0.06015">
        <ele>1897</ele>
        <time>2017-02-26T11:10:34Z</time>
      </trkpt>
      <trkpt lat="42.87933" lon="-0.06019">
        <ele>1895</ele>
        <time>2017-02-26T11:10:35Z</time>
      </trkpt>
      <trkpt lat="42.87937" lon="-0.06021">
        <ele>1894</ele>
        <time>2017-02-26T11:10:36Z</time>
      </trkpt>
      <trkpt lat="42.87941" lon="-0.06021">
        <ele>1893</ele>
        <time>2017-02-26T11:10:37Z</time>
      </trkpt>
      <trkpt lat="42.87944" lon="-0.06024">
        <ele>1890</ele>
        <time>2017-02-26T11:10:38Z</time>
      </trkpt>
      <trkpt lat="42.87946" lon="-0.06029">
        <ele>1887</ele>
        <time>2017-02-26T11:10:39Z</time>
      </trkpt>
      <trkpt lat="42.87949" lon="-0.06032">
        <ele>1885</ele>
        <time>2017-02-26T11:10:40Z</time>
      </trkpt>
      <trkpt lat="42.87952" lon="-0.06033">
        <ele>1883</ele>
        <time>2017-02-26T11:10:41Z</time>
      </trkpt>
      <trkpt lat="42.8797" lon="-0.06056">
        <ele>1867</ele>
        <time>2017-02-26T11:10:48Z</time>
      </trkpt>
      <trkpt lat="42.87984" lon="-0.06056">
        <ele>1866</ele>
        <time>2017-02-26T11:10:49Z</time>
      </trkpt>
      <trkpt lat="42.8799" lon="-0.06054">
        <ele>1861</ele>
        <time>2017-02-26T11:10:51Z</time>
      </trkpt>
      <trkpt lat="42.88007" lon="-0.06051">
        <ele>1860</ele>
        <time>2017-02-26T11:10:52Z</time>
      </trkpt>
      <trkpt lat="42.88031" lon="-0.06037">
        <ele>1854</ele>
        <time>2017-02-26T11:10:55Z</time>
      </trkpt>
      <trkpt lat="42.8804" lon="-0.06035">
        <ele>1851</ele>
        <time>2017-02-26T11:10:58Z</time>
      </trkpt>
      <trkpt lat="42.88051" lon="-0.06031">
        <ele>1849</ele>
        <time>2017-02-26T11:11:01Z</time>
      </trkpt>
      <trkpt lat="42.8806" lon="-0.06024">
        <ele>1846</ele>
        <time>2017-02-26T11:11:04Z</time>
      </trkpt>
      <trkpt lat="42.88077" lon="-0.06016">
        <ele>1844</ele>
        <time>2017-02-26T11:11:06Z</time>
      </trkpt>
      <trkpt lat="42.88082" lon="-0.06018">
        <ele>1837</ele>
        <time>2017-02-26T11:11:07Z</time>
      </trkpt>
      <trkpt lat="42.88094" lon="-0.06018">
        <ele>1834</ele>
        <time>2017-02-26T11:11:09Z</time>
      </trkpt>
      <trkpt lat="42.88104" lon="-0.06013">
        <ele>1830</ele>
        <time>2017-02-26T11:11:13Z</time>
      </trkpt>
      <trkpt lat="42.88117" lon="-0.06016">
        <ele>1822</ele>
        <time>2017-02-26T11:11:17Z</time>
      </trkpt>
      <trkpt lat="42.88128" lon="-0.06027">
        <ele>1819</ele>
        <time>2017-02-26T11:11:18Z</time>
      </trkpt>
      <trkpt lat="42.8814" lon="-0.06025">
        <ele>1814</ele>
        <time>2017-02-26T11:11:20Z</time>
      </trkpt>
      <trkpt lat="42.88153" lon="-0.06029">
        <ele>1809</ele>
        <time>2017-02-26T11:11:22Z</time>
      </trkpt>
      <trkpt lat="42.88159" lon="-0.0603">
        <ele>1807</ele>
        <time>2017-02-26T11:11:23Z</time>
      </trkpt>
      <trkpt lat="42.8818" lon="-0.06035">
        <ele>1803</ele>
        <time>2017-02-26T11:11:26Z</time>
      </trkpt>
      <trkpt lat="42.88189" lon="-0.06026">
        <ele>1797</ele>
        <time>2017-02-26T11:11:28Z</time>
      </trkpt>
      <trkpt lat="42.88223" lon="-0.06002">
        <ele>1791</ele>
        <time>2017-02-26T11:11:32Z</time>
      </trkpt>
      <trkpt lat="42.88231" lon="-0.05989">
        <ele>1787</ele>
        <time>2017-02-26T11:11:34Z</time>
      </trkpt>
      <trkpt lat="42.88242" lon="-0.05979">
        <ele>1784</ele>
        <time>2017-02-26T11:11:36Z</time>
      </trkpt>
      <trkpt lat="42.88247" lon="-0.0596">
        <ele>1781</ele>
        <time>2017-02-26T11:11:38Z</time>
      </trkpt>
      <trkpt lat="42.88255" lon="-0.05946">
        <ele>1776</ele>
        <time>2017-02-26T11:11:40Z</time>
      </trkpt>
      <trkpt lat="42.88266" lon="-0.05935">
        <ele>1772.4</ele>
        <time>2017-02-26T11:11:42Z</time>
      </trkpt>
      <trkpt lat="42.88279" lon="-0.05929">
        <ele>1771</ele>
        <time>2017-02-26T11:11:43Z</time>
      </trkpt>
      <trkpt lat="42.88297" lon="-0.0593">
        <ele>1762</ele>
        <time>2017-02-26T11:11:45Z</time>
      </trkpt>
      <trkpt lat="42.88307" lon="-0.05924">
        <ele>1761</ele>
        <time>2017-02-26T11:11:46Z</time>
      </trkpt>
      <trkpt lat="42.88317" lon="-0.05911">
        <ele>1755</ele>
        <time>2017-02-26T11:11:49Z</time>
      </trkpt>
      <trkpt lat="42.88335" lon="-0.05912">
        <ele>1752</ele>
        <time>2017-02-26T11:11:51Z</time>
      </trkpt>
      <trkpt lat="42.88351" lon="-0.05903">
        <ele>1747</ele>
        <time>2017-02-26T11:11:53Z</time>
      </trkpt>
      <trkpt lat="42.88368" lon="-0.05899">
        <ele>1744</ele>
        <time>2017-02-26T11:11:54Z</time>
      </trkpt>
      <trkpt lat="42.88378" lon="-0.05902">
        <ele>1740</ele>
        <time>2017-02-26T11:11:55Z</time>
      </trkpt>
      <trkpt lat="42.88388" lon="-0.05902">
        <ele>1737</ele>
        <time>2017-02-26T11:11:56Z</time>
      </trkpt>
      <trkpt lat="42.88397" lon="-0.05904">
        <ele>1733</ele>
        <time>2017-02-26T11:11:58Z</time>
      </trkpt>
      <trkpt lat="42.88404" lon="-0.05905">
        <ele>1730</ele>
        <time>2017-02-26T11:11:59Z</time>
      </trkpt>
      <trkpt lat="42.88411" lon="-0.05907">
        <ele>1727</ele>
        <time>2017-02-26T11:12:00Z</time>
      </trkpt>
      <trkpt lat="42.8842" lon="-0.05921">
        <ele>1723</ele>
        <time>2017-02-26T11:12:02Z</time>
      </trkpt>
      <trkpt lat="42.88431" lon="-0.05921">
        <ele>1719</ele>
        <time>2017-02-26T11:12:04Z</time>
      </trkpt>
      <trkpt lat="42.88442" lon="-0.05933">
        <ele>1717</ele>
        <time>2017-02-26T11:12:06Z</time>
      </trkpt>
      <trkpt lat="42.8845" lon="-0.05948">
        <ele>1715</ele>
        <time>2017-02-26T11:12:08Z</time>
      </trkpt>
      <trkpt lat="42.88462" lon="-0.05996">
        <ele>1709</ele>
        <time>2017-02-26T11:12:11Z</time>
      </trkpt>
      <trkpt lat="42.8844" lon="-0.05978">
        <ele>1709</ele>
        <time>2017-02-26T11:12:12Z</time>
      </trkpt>
      <trkpt lat="42.88425" lon="-0.0601">
        <ele>1708</ele>
        <time>2017-02-26T11:12:23Z</time>
      </trkpt>
      <trkpt lat="42.88424" lon="-0.06012">
        <ele>1708</ele>
        <time>2017-02-26T11:12:29Z</time>
      </trkpt>
      <trkpt lat="42.88422" lon="-0.06014">
        <ele>1708</ele>
        <time>2017-02-26T11:12:39Z</time>
      </trkpt>
      <trkpt lat="42.88422" lon="-0.0602">
        <ele>1708</ele>
        <time>2017-02-26T11:12:47Z</time>
      </trkpt>
      <trkpt lat="42.8842" lon="-0.06023">
        <ele>1709</ele>
        <time>2017-02-26T11:12:50Z</time>
      </trkpt>
      <trkpt lat="42.88418" lon="-0.06024">
        <ele>1709</ele>
        <time>2017-02-26T11:12:52Z</time>
      </trkpt>
      <trkpt lat="42.88414" lon="-0.06027">
        <ele>1708</ele>
        <time>2017-02-26T11:13:16Z</time>
      </trkpt>
      <trkpt lat="42.88415" lon="-0.06029">
        <ele>1710</ele>
        <time>2017-02-26T11:18:09Z</time>
      </trkpt>
      <trkpt lat="42.88414" lon="-0.0603">
        <ele>1710</ele>
        <time>2017-02-26T11:18:38Z</time>
      </trkpt>
    </trkseg>
  </trk>
</gpx>